<?xml version="1.0" encoding="UTF-8" standalone="no" ?>
<gpx xmlns="http://www.topografix.com/GPX/1/1" xmlns:xsi="http://www.w3.org/2001/XMLSchema-instance" xsi:schemaLocation="http://www.topografix.com/GPX/1/1 http://www.topografix.com/GPX/1/1/gpx.xsd" version="1.1" creator="VisuGPX - https://www.visugpx.com">
  <metadata>
    <name>06-Mj-2013-16-05- Saint Cézaire - Gorges de la Siagne</name>
    <desc><![CDATA[Saint Cézaire - Gorges de la Siagne]]></desc>
  </metadata>
  <trk>
    <name><![CDATA[2013-05-15-st cezaire corrige]]></name>
    <trkseg>
      <trkpt lat="43.62842" lon="6.81775">
        <ele>101.72097</ele>
        <time>2013-05-15T07:19:53Z</time>
      </trkpt>
      <trkpt lat="43.62845" lon="6.81786">
        <ele>101.331543</ele>
        <time>2013-05-15T07:20:56Z</time>
      </trkpt>
      <trkpt lat="43.62844" lon="6.81787">
        <ele>101.46479</ele>
        <time>2013-05-15T07:20:57Z</time>
      </trkpt>
      <trkpt lat="43.62853" lon="6.81779">
        <ele>103.5</ele>
        <time>2013-05-15T07:22:12Z</time>
      </trkpt>
      <trkpt lat="43.62853" lon="6.81779">
        <ele>103.800003</ele>
        <time>2013-05-15T07:23:17Z</time>
      </trkpt>
      <trkpt lat="43.62851" lon="6.81779">
        <ele>103.599998</ele>
        <time>2013-05-15T07:23:18Z</time>
      </trkpt>
      <trkpt lat="43.62853" lon="6.8178">
        <ele>103</ele>
        <time>2013-05-15T07:23:58Z</time>
      </trkpt>
      <trkpt lat="43.62847" lon="6.81771">
        <ele>104</ele>
        <time>2013-05-15T07:24:39Z</time>
      </trkpt>
      <trkpt lat="43.62846" lon="6.81771">
        <ele>103.800003</ele>
        <time>2013-05-15T07:24:40Z</time>
      </trkpt>
      <trkpt lat="43.62841" lon="6.81792">
        <ele>104.099998</ele>
        <time>2013-05-15T07:27:28Z</time>
      </trkpt>
      <trkpt lat="43.62842" lon="6.81792">
        <ele>103.400002</ele>
        <time>2013-05-15T07:27:29Z</time>
      </trkpt>
      <trkpt lat="43.62834" lon="6.81784">
        <ele>103.099998</ele>
        <time>2013-05-15T07:28:32Z</time>
      </trkpt>
      <trkpt lat="43.62828" lon="6.81792">
        <ele>104.400002</ele>
        <time>2013-05-15T07:30:15Z</time>
      </trkpt>
      <trkpt lat="43.62821" lon="6.81813">
        <ele>105.900002</ele>
        <time>2013-05-15T07:30:50Z</time>
      </trkpt>
      <trkpt lat="43.62814" lon="6.8182">
        <ele>106.099998</ele>
        <time>2013-05-15T07:30:59Z</time>
      </trkpt>
      <trkpt lat="43.6281" lon="6.81829">
        <ele>106.5</ele>
        <time>2013-05-15T07:31:07Z</time>
      </trkpt>
      <trkpt lat="43.62802" lon="6.81835">
        <ele>106.900002</ele>
        <time>2013-05-15T07:31:14Z</time>
      </trkpt>
      <trkpt lat="43.62795" lon="6.81837">
        <ele>107.099998</ele>
        <time>2013-05-15T07:31:20Z</time>
      </trkpt>
      <trkpt lat="43.62793" lon="6.81838">
        <ele>107.400002</ele>
        <time>2013-05-15T07:31:21Z</time>
      </trkpt>
      <trkpt lat="43.62785" lon="6.81857">
        <ele>107.400002</ele>
        <time>2013-05-15T07:31:44Z</time>
      </trkpt>
      <trkpt lat="43.62783" lon="6.81868">
        <ele>108</ele>
        <time>2013-05-15T07:32:04Z</time>
      </trkpt>
      <trkpt lat="43.62775" lon="6.81874">
        <ele>107.599998</ele>
        <time>2013-05-15T07:32:12Z</time>
      </trkpt>
      <trkpt lat="43.62767" lon="6.81879">
        <ele>108.900002</ele>
        <time>2013-05-15T07:32:20Z</time>
      </trkpt>
      <trkpt lat="43.6276" lon="6.81885">
        <ele>108.599998</ele>
        <time>2013-05-15T07:32:26Z</time>
      </trkpt>
      <trkpt lat="43.62759" lon="6.81886">
        <ele>108.699997</ele>
        <time>2013-05-15T07:32:27Z</time>
      </trkpt>
      <trkpt lat="43.62776" lon="6.81885">
        <ele>110.300003</ele>
        <time>2013-05-15T07:32:53Z</time>
      </trkpt>
      <trkpt lat="43.62784" lon="6.81883">
        <ele>110.900002</ele>
        <time>2013-05-15T07:33:00Z</time>
      </trkpt>
      <trkpt lat="43.62792" lon="6.81882">
        <ele>112.599998</ele>
        <time>2013-05-15T07:33:07Z</time>
      </trkpt>
      <trkpt lat="43.628" lon="6.81881">
        <ele>113.800003</ele>
        <time>2013-05-15T07:33:14Z</time>
      </trkpt>
      <trkpt lat="43.62808" lon="6.81876">
        <ele>114.900002</ele>
        <time>2013-05-15T07:33:22Z</time>
      </trkpt>
      <trkpt lat="43.62817" lon="6.81875">
        <ele>115.599998</ele>
        <time>2013-05-15T07:33:31Z</time>
      </trkpt>
      <trkpt lat="43.62817" lon="6.81876">
        <ele>115.800003</ele>
        <time>2013-05-15T07:33:32Z</time>
      </trkpt>
      <trkpt lat="43.62834" lon="6.81873">
        <ele>117.300003</ele>
        <time>2013-05-15T07:34:07Z</time>
      </trkpt>
      <trkpt lat="43.62842" lon="6.81874">
        <ele>118.599998</ele>
        <time>2013-05-15T07:34:14Z</time>
      </trkpt>
      <trkpt lat="43.62849" lon="6.81869">
        <ele>120.099998</ele>
        <time>2013-05-15T07:34:21Z</time>
      </trkpt>
      <trkpt lat="43.62857" lon="6.81863">
        <ele>121.099998</ele>
        <time>2013-05-15T07:34:29Z</time>
      </trkpt>
      <trkpt lat="43.62864" lon="6.81859">
        <ele>121</ele>
        <time>2013-05-15T07:34:36Z</time>
      </trkpt>
      <trkpt lat="43.62866" lon="6.81859">
        <ele>121.099998</ele>
        <time>2013-05-15T07:34:37Z</time>
      </trkpt>
      <trkpt lat="43.62876" lon="6.81845">
        <ele>122</ele>
        <time>2013-05-15T07:34:49Z</time>
      </trkpt>
      <trkpt lat="43.62885" lon="6.8184">
        <ele>122.699997</ele>
        <time>2013-05-15T07:34:55Z</time>
      </trkpt>
      <trkpt lat="43.62892" lon="6.81833">
        <ele>123.599998</ele>
        <time>2013-05-15T07:35:04Z</time>
      </trkpt>
      <trkpt lat="43.62899" lon="6.81826">
        <ele>124.699997</ele>
        <time>2013-05-15T07:35:20Z</time>
      </trkpt>
      <trkpt lat="43.62906" lon="6.81818">
        <ele>125.400002</ele>
        <time>2013-05-15T07:35:34Z</time>
      </trkpt>
      <trkpt lat="43.62912" lon="6.81812">
        <ele>126.900002</ele>
        <time>2013-05-15T07:35:44Z</time>
      </trkpt>
      <trkpt lat="43.62913" lon="6.81811">
        <ele>127.099998</ele>
        <time>2013-05-15T07:35:45Z</time>
      </trkpt>
      <trkpt lat="43.62925" lon="6.81796">
        <ele>133.600006</ele>
        <time>2013-05-15T07:36:17Z</time>
      </trkpt>
      <trkpt lat="43.62934" lon="6.81799">
        <ele>135.399994</ele>
        <time>2013-05-15T07:36:44Z</time>
      </trkpt>
      <trkpt lat="43.6294" lon="6.81792">
        <ele>137.300003</ele>
        <time>2013-05-15T07:36:58Z</time>
      </trkpt>
      <trkpt lat="43.62941" lon="6.81791">
        <ele>137.199997</ele>
        <time>2013-05-15T07:36:59Z</time>
      </trkpt>
      <trkpt lat="43.62957" lon="6.81797">
        <ele>143</ele>
        <time>2013-05-15T07:37:28Z</time>
      </trkpt>
      <trkpt lat="43.62965" lon="6.818">
        <ele>142.600006</ele>
        <time>2013-05-15T07:37:38Z</time>
      </trkpt>
      <trkpt lat="43.62972" lon="6.81806">
        <ele>143.5</ele>
        <time>2013-05-15T07:37:46Z</time>
      </trkpt>
      <trkpt lat="43.6298" lon="6.81812">
        <ele>146.399994</ele>
        <time>2013-05-15T07:38:07Z</time>
      </trkpt>
      <trkpt lat="43.6298" lon="6.81813">
        <ele>146.199997</ele>
        <time>2013-05-15T07:38:08Z</time>
      </trkpt>
      <trkpt lat="43.62988" lon="6.81834">
        <ele>149.199997</ele>
        <time>2013-05-15T07:38:39Z</time>
      </trkpt>
      <trkpt lat="43.62993" lon="6.81842">
        <ele>150.199997</ele>
        <time>2013-05-15T07:38:48Z</time>
      </trkpt>
      <trkpt lat="43.62999" lon="6.8185">
        <ele>151.300003</ele>
        <time>2013-05-15T07:38:55Z</time>
      </trkpt>
      <trkpt lat="43.63002" lon="6.81861">
        <ele>150.899994</ele>
        <time>2013-05-15T07:39:09Z</time>
      </trkpt>
      <trkpt lat="43.63002" lon="6.81862">
        <ele>151</ele>
        <time>2013-05-15T07:39:10Z</time>
      </trkpt>
      <trkpt lat="43.6302" lon="6.81864">
        <ele>151.300003</ele>
        <time>2013-05-15T07:39:59Z</time>
      </trkpt>
      <trkpt lat="43.63028" lon="6.81866">
        <ele>150</ele>
        <time>2013-05-15T07:40:05Z</time>
      </trkpt>
      <trkpt lat="43.63037" lon="6.81866">
        <ele>148.800003</ele>
        <time>2013-05-15T07:40:14Z</time>
      </trkpt>
      <trkpt lat="43.63038" lon="6.81866">
        <ele>148.699997</ele>
        <time>2013-05-15T07:40:15Z</time>
      </trkpt>
      <trkpt lat="43.63054" lon="6.8186">
        <ele>148</ele>
        <time>2013-05-15T07:40:41Z</time>
      </trkpt>
      <trkpt lat="43.63061" lon="6.81856">
        <ele>148.100006</ele>
        <time>2013-05-15T07:40:47Z</time>
      </trkpt>
      <trkpt lat="43.63068" lon="6.81852">
        <ele>147.699997</ele>
        <time>2013-05-15T07:40:52Z</time>
      </trkpt>
      <trkpt lat="43.63076" lon="6.81847">
        <ele>148.5</ele>
        <time>2013-05-15T07:41:01Z</time>
      </trkpt>
      <trkpt lat="43.63085" lon="6.81845">
        <ele>147.399994</ele>
        <time>2013-05-15T07:41:16Z</time>
      </trkpt>
      <trkpt lat="43.63085" lon="6.81844">
        <ele>147.399994</ele>
        <time>2013-05-15T07:41:17Z</time>
      </trkpt>
      <trkpt lat="43.63098" lon="6.81829">
        <ele>146.5</ele>
        <time>2013-05-15T07:41:27Z</time>
      </trkpt>
      <trkpt lat="43.63103" lon="6.8182">
        <ele>146.199997</ele>
        <time>2013-05-15T07:41:31Z</time>
      </trkpt>
      <trkpt lat="43.63105" lon="6.8181">
        <ele>146.600006</ele>
        <time>2013-05-15T07:41:37Z</time>
      </trkpt>
      <trkpt lat="43.63108" lon="6.81798">
        <ele>146.899994</ele>
        <time>2013-05-15T07:41:44Z</time>
      </trkpt>
      <trkpt lat="43.6311" lon="6.81788">
        <ele>147</ele>
        <time>2013-05-15T07:41:50Z</time>
      </trkpt>
      <trkpt lat="43.63112" lon="6.81777">
        <ele>147.899994</ele>
        <time>2013-05-15T07:41:56Z</time>
      </trkpt>
      <trkpt lat="43.63114" lon="6.81765">
        <ele>147.100006</ele>
        <time>2013-05-15T07:42:04Z</time>
      </trkpt>
      <trkpt lat="43.63113" lon="6.81754">
        <ele>146.899994</ele>
        <time>2013-05-15T07:42:10Z</time>
      </trkpt>
      <trkpt lat="43.63117" lon="6.81744">
        <ele>145.800003</ele>
        <time>2013-05-15T07:42:17Z</time>
      </trkpt>
      <trkpt lat="43.63118" lon="6.81742">
        <ele>145.800003</ele>
        <time>2013-05-15T07:42:18Z</time>
      </trkpt>
      <trkpt lat="43.63131" lon="6.81729">
        <ele>145.600006</ele>
        <time>2013-05-15T07:42:30Z</time>
      </trkpt>
      <trkpt lat="43.63137" lon="6.81721">
        <ele>146.800003</ele>
        <time>2013-05-15T07:42:38Z</time>
      </trkpt>
      <trkpt lat="43.63143" lon="6.81713">
        <ele>148.5</ele>
        <time>2013-05-15T07:42:47Z</time>
      </trkpt>
      <trkpt lat="43.63148" lon="6.81703">
        <ele>148.300003</ele>
        <time>2013-05-15T07:42:55Z</time>
      </trkpt>
      <trkpt lat="43.63152" lon="6.81693">
        <ele>148.600006</ele>
        <time>2013-05-15T07:43:03Z</time>
      </trkpt>
      <trkpt lat="43.63158" lon="6.81687">
        <ele>148.699997</ele>
        <time>2013-05-15T07:43:09Z</time>
      </trkpt>
      <trkpt lat="43.63166" lon="6.81682">
        <ele>148.5</ele>
        <time>2013-05-15T07:43:15Z</time>
      </trkpt>
      <trkpt lat="43.63173" lon="6.81679">
        <ele>146.899994</ele>
        <time>2013-05-15T07:43:20Z</time>
      </trkpt>
      <trkpt lat="43.63175" lon="6.81679">
        <ele>147.300003</ele>
        <time>2013-05-15T07:43:21Z</time>
      </trkpt>
      <trkpt lat="43.63189" lon="6.8167">
        <ele>147</ele>
        <time>2013-05-15T07:43:35Z</time>
      </trkpt>
      <trkpt lat="43.63196" lon="6.81666">
        <ele>147</ele>
        <time>2013-05-15T07:43:40Z</time>
      </trkpt>
      <trkpt lat="43.63203" lon="6.81662">
        <ele>145.199997</ele>
        <time>2013-05-15T07:43:47Z</time>
      </trkpt>
      <trkpt lat="43.63212" lon="6.81657">
        <ele>145</ele>
        <time>2013-05-15T07:43:58Z</time>
      </trkpt>
      <trkpt lat="43.63219" lon="6.81655">
        <ele>145.199997</ele>
        <time>2013-05-15T07:44:08Z</time>
      </trkpt>
      <trkpt lat="43.63227" lon="6.81652">
        <ele>144.600006</ele>
        <time>2013-05-15T07:44:16Z</time>
      </trkpt>
      <trkpt lat="43.63234" lon="6.81659">
        <ele>143.5</ele>
        <time>2013-05-15T07:44:25Z</time>
      </trkpt>
      <trkpt lat="43.63234" lon="6.8166">
        <ele>143.5</ele>
        <time>2013-05-15T07:44:26Z</time>
      </trkpt>
      <trkpt lat="43.63247" lon="6.81673">
        <ele>144.100006</ele>
        <time>2013-05-15T07:45:00Z</time>
      </trkpt>
      <trkpt lat="43.63252" lon="6.81683">
        <ele>144.699997</ele>
        <time>2013-05-15T07:45:09Z</time>
      </trkpt>
      <trkpt lat="43.63252" lon="6.81671">
        <ele>143.399994</ele>
        <time>2013-05-15T07:45:24Z</time>
      </trkpt>
      <trkpt lat="43.63258" lon="6.81663">
        <ele>147.600006</ele>
        <time>2013-05-15T07:45:45Z</time>
      </trkpt>
      <trkpt lat="43.63259" lon="6.81661">
        <ele>147.600006</ele>
        <time>2013-05-15T07:45:46Z</time>
      </trkpt>
      <trkpt lat="43.63272" lon="6.8165">
        <ele>150.5</ele>
        <time>2013-05-15T07:46:01Z</time>
      </trkpt>
      <trkpt lat="43.63278" lon="6.81659">
        <ele>155.399994</ele>
        <time>2013-05-15T07:46:20Z</time>
      </trkpt>
      <trkpt lat="43.63285" lon="6.81654">
        <ele>156.100006</ele>
        <time>2013-05-15T07:46:27Z</time>
      </trkpt>
      <trkpt lat="43.63293" lon="6.81648">
        <ele>157.899994</ele>
        <time>2013-05-15T07:46:37Z</time>
      </trkpt>
      <trkpt lat="43.63298" lon="6.81638">
        <ele>160.699997</ele>
        <time>2013-05-15T07:46:50Z</time>
      </trkpt>
      <trkpt lat="43.63298" lon="6.81638">
        <ele>161</ele>
        <time>2013-05-15T07:46:51Z</time>
      </trkpt>
      <trkpt lat="43.63302" lon="6.81617">
        <ele>165.199997</ele>
        <time>2013-05-15T07:47:14Z</time>
      </trkpt>
      <trkpt lat="43.63305" lon="6.81605">
        <ele>165.399994</ele>
        <time>2013-05-15T07:47:21Z</time>
      </trkpt>
      <trkpt lat="43.63308" lon="6.81594">
        <ele>167.5</ele>
        <time>2013-05-15T07:47:31Z</time>
      </trkpt>
      <trkpt lat="43.6331" lon="6.81583">
        <ele>170.399994</ele>
        <time>2013-05-15T07:47:45Z</time>
      </trkpt>
      <trkpt lat="43.63308" lon="6.81571">
        <ele>172.699997</ele>
        <time>2013-05-15T07:47:55Z</time>
      </trkpt>
      <trkpt lat="43.63307" lon="6.81571">
        <ele>173.199997</ele>
        <time>2013-05-15T07:47:56Z</time>
      </trkpt>
      <trkpt lat="43.63308" lon="6.81558">
        <ele>173.100006</ele>
        <time>2013-05-15T07:49:10Z</time>
      </trkpt>
      <trkpt lat="43.63315" lon="6.81538">
        <ele>174.800003</ele>
        <time>2013-05-15T07:49:24Z</time>
      </trkpt>
      <trkpt lat="43.63315" lon="6.81526">
        <ele>177.600006</ele>
        <time>2013-05-15T07:49:34Z</time>
      </trkpt>
      <trkpt lat="43.6331" lon="6.81517">
        <ele>179.600006</ele>
        <time>2013-05-15T07:49:46Z</time>
      </trkpt>
      <trkpt lat="43.63303" lon="6.8151">
        <ele>182</ele>
        <time>2013-05-15T07:49:56Z</time>
      </trkpt>
      <trkpt lat="43.63295" lon="6.81509">
        <ele>183.899994</ele>
        <time>2013-05-15T07:50:18Z</time>
      </trkpt>
      <trkpt lat="43.63294" lon="6.81509">
        <ele>184.199997</ele>
        <time>2013-05-15T07:50:19Z</time>
      </trkpt>
      <trkpt lat="43.63306" lon="6.81495">
        <ele>190</ele>
        <time>2013-05-15T07:51:25Z</time>
      </trkpt>
      <trkpt lat="43.63306" lon="6.81494">
        <ele>189.800003</ele>
        <time>2013-05-15T07:51:26Z</time>
      </trkpt>
      <trkpt lat="43.6331" lon="6.81474">
        <ele>193.399994</ele>
        <time>2013-05-15T07:51:36Z</time>
      </trkpt>
      <trkpt lat="43.63308" lon="6.81463">
        <ele>194.800003</ele>
        <time>2013-05-15T07:51:45Z</time>
      </trkpt>
      <trkpt lat="43.63307" lon="6.81452">
        <ele>196.600006</ele>
        <time>2013-05-15T07:51:53Z</time>
      </trkpt>
      <trkpt lat="43.63305" lon="6.81441">
        <ele>198.5</ele>
        <time>2013-05-15T07:52:03Z</time>
      </trkpt>
      <trkpt lat="43.63304" lon="6.8143">
        <ele>199.300003</ele>
        <time>2013-05-15T07:52:11Z</time>
      </trkpt>
      <trkpt lat="43.633" lon="6.8142">
        <ele>201.800003</ele>
        <time>2013-05-15T07:52:22Z</time>
      </trkpt>
      <trkpt lat="43.63301" lon="6.81408">
        <ele>202.5</ele>
        <time>2013-05-15T07:52:29Z</time>
      </trkpt>
      <trkpt lat="43.63302" lon="6.81405">
        <ele>203</ele>
        <time>2013-05-15T07:52:30Z</time>
      </trkpt>
      <trkpt lat="43.63307" lon="6.81385">
        <ele>204.899994</ele>
        <time>2013-05-15T07:54:29Z</time>
      </trkpt>
      <trkpt lat="43.63307" lon="6.81384">
        <ele>204.699997</ele>
        <time>2013-05-15T07:54:30Z</time>
      </trkpt>
      <trkpt lat="43.63309" lon="6.81371">
        <ele>205.199997</ele>
        <time>2013-05-15T07:55:51Z</time>
      </trkpt>
      <trkpt lat="43.63306" lon="6.81351">
        <ele>205.199997</ele>
        <time>2013-05-15T07:56:05Z</time>
      </trkpt>
      <trkpt lat="43.63306" lon="6.81339">
        <ele>204.800003</ele>
        <time>2013-05-15T07:56:12Z</time>
      </trkpt>
      <trkpt lat="43.63305" lon="6.81327">
        <ele>205.100006</ele>
        <time>2013-05-15T07:56:19Z</time>
      </trkpt>
      <trkpt lat="43.63305" lon="6.81315">
        <ele>205.300003</ele>
        <time>2013-05-15T07:56:25Z</time>
      </trkpt>
      <trkpt lat="43.633" lon="6.81305">
        <ele>205.399994</ele>
        <time>2013-05-15T07:56:33Z</time>
      </trkpt>
      <trkpt lat="43.63295" lon="6.81295">
        <ele>206.600006</ele>
        <time>2013-05-15T07:56:43Z</time>
      </trkpt>
      <trkpt lat="43.63286" lon="6.81291">
        <ele>206.600006</ele>
        <time>2013-05-15T07:56:52Z</time>
      </trkpt>
      <trkpt lat="43.63286" lon="6.8129">
        <ele>206.399994</ele>
        <time>2013-05-15T07:56:53Z</time>
      </trkpt>
      <trkpt lat="43.63279" lon="6.81269">
        <ele>202.899994</ele>
        <time>2013-05-15T07:57:19Z</time>
      </trkpt>
      <trkpt lat="43.6327" lon="6.81268">
        <ele>198.100006</ele>
        <time>2013-05-15T07:57:42Z</time>
      </trkpt>
      <trkpt lat="43.63262" lon="6.81267">
        <ele>195.899994</ele>
        <time>2013-05-15T07:57:56Z</time>
      </trkpt>
      <trkpt lat="43.63261" lon="6.81267">
        <ele>195.399994</ele>
        <time>2013-05-15T07:57:57Z</time>
      </trkpt>
      <trkpt lat="43.63245" lon="6.81273">
        <ele>191</ele>
        <time>2013-05-15T07:58:18Z</time>
      </trkpt>
      <trkpt lat="43.63237" lon="6.81276">
        <ele>188.300003</ele>
        <time>2013-05-15T07:58:33Z</time>
      </trkpt>
      <trkpt lat="43.63228" lon="6.8128">
        <ele>185.399994</ele>
        <time>2013-05-15T07:58:45Z</time>
      </trkpt>
      <trkpt lat="43.63221" lon="6.81282">
        <ele>184.100006</ele>
        <time>2013-05-15T07:58:53Z</time>
      </trkpt>
      <trkpt lat="43.63212" lon="6.81281">
        <ele>182.600006</ele>
        <time>2013-05-15T07:59:02Z</time>
      </trkpt>
      <trkpt lat="43.63212" lon="6.81281">
        <ele>182.399994</ele>
        <time>2013-05-15T07:59:03Z</time>
      </trkpt>
      <trkpt lat="43.63202" lon="6.81262">
        <ele>179.600006</ele>
        <time>2013-05-15T07:59:36Z</time>
      </trkpt>
      <trkpt lat="43.63199" lon="6.81251">
        <ele>178.899994</ele>
        <time>2013-05-15T07:59:46Z</time>
      </trkpt>
      <trkpt lat="43.63197" lon="6.81239">
        <ele>177.5</ele>
        <time>2013-05-15T07:59:55Z</time>
      </trkpt>
      <trkpt lat="43.63204" lon="6.81231">
        <ele>175.800003</ele>
        <time>2013-05-15T08:00:33Z</time>
      </trkpt>
      <trkpt lat="43.63204" lon="6.81231">
        <ele>175.600006</ele>
        <time>2013-05-15T08:00:34Z</time>
      </trkpt>
      <trkpt lat="43.63198" lon="6.81222">
        <ele>175.699997</ele>
        <time>2013-05-15T08:01:52Z</time>
      </trkpt>
      <trkpt lat="43.63186" lon="6.81207">
        <ele>175.600006</ele>
        <time>2013-05-15T08:02:07Z</time>
      </trkpt>
      <trkpt lat="43.63187" lon="6.81197">
        <ele>175.699997</ele>
        <time>2013-05-15T08:02:12Z</time>
      </trkpt>
      <trkpt lat="43.6318" lon="6.81192">
        <ele>176.800003</ele>
        <time>2013-05-15T08:02:19Z</time>
      </trkpt>
      <trkpt lat="43.63174" lon="6.81185">
        <ele>175.699997</ele>
        <time>2013-05-15T08:02:28Z</time>
      </trkpt>
      <trkpt lat="43.63173" lon="6.81173">
        <ele>174.5</ele>
        <time>2013-05-15T08:02:35Z</time>
      </trkpt>
      <trkpt lat="43.6317" lon="6.81162">
        <ele>174.300003</ele>
        <time>2013-05-15T08:02:55Z</time>
      </trkpt>
      <trkpt lat="43.6317" lon="6.8116">
        <ele>174.100006</ele>
        <time>2013-05-15T08:02:56Z</time>
      </trkpt>
      <trkpt lat="43.63168" lon="6.81139">
        <ele>174.5</ele>
        <time>2013-05-15T08:03:15Z</time>
      </trkpt>
      <trkpt lat="43.63161" lon="6.81131">
        <ele>175.199997</ele>
        <time>2013-05-15T08:03:29Z</time>
      </trkpt>
      <trkpt lat="43.6316" lon="6.8112">
        <ele>175.800003</ele>
        <time>2013-05-15T08:03:37Z</time>
      </trkpt>
      <trkpt lat="43.63161" lon="6.8111">
        <ele>177.100006</ele>
        <time>2013-05-15T08:03:42Z</time>
      </trkpt>
      <trkpt lat="43.63164" lon="6.811">
        <ele>178.100006</ele>
        <time>2013-05-15T08:03:46Z</time>
      </trkpt>
      <trkpt lat="43.63166" lon="6.81091">
        <ele>178.399994</ele>
        <time>2013-05-15T08:03:49Z</time>
      </trkpt>
      <trkpt lat="43.63165" lon="6.81078">
        <ele>179.100006</ele>
        <time>2013-05-15T08:03:56Z</time>
      </trkpt>
      <trkpt lat="43.63164" lon="6.81077">
        <ele>179.199997</ele>
        <time>2013-05-15T08:03:57Z</time>
      </trkpt>
      <trkpt lat="43.63153" lon="6.81062">
        <ele>179.899994</ele>
        <time>2013-05-15T08:04:08Z</time>
      </trkpt>
      <trkpt lat="43.63148" lon="6.81053">
        <ele>178.399994</ele>
        <time>2013-05-15T08:04:13Z</time>
      </trkpt>
      <trkpt lat="43.63145" lon="6.81043">
        <ele>177.600006</ele>
        <time>2013-05-15T08:04:19Z</time>
      </trkpt>
      <trkpt lat="43.6314" lon="6.81033">
        <ele>176.100006</ele>
        <time>2013-05-15T08:04:25Z</time>
      </trkpt>
      <trkpt lat="43.63142" lon="6.81021">
        <ele>174.600006</ele>
        <time>2013-05-15T08:04:33Z</time>
      </trkpt>
      <trkpt lat="43.63144" lon="6.81011">
        <ele>174.600006</ele>
        <time>2013-05-15T08:04:37Z</time>
      </trkpt>
      <trkpt lat="43.63144" lon="6.81001">
        <ele>173.800003</ele>
        <time>2013-05-15T08:04:41Z</time>
      </trkpt>
      <trkpt lat="43.63142" lon="6.80989">
        <ele>173.5</ele>
        <time>2013-05-15T08:04:49Z</time>
      </trkpt>
      <trkpt lat="43.63143" lon="6.80977">
        <ele>172.899994</ele>
        <time>2013-05-15T08:05:38Z</time>
      </trkpt>
      <trkpt lat="43.63143" lon="6.80975">
        <ele>172.800003</ele>
        <time>2013-05-15T08:05:39Z</time>
      </trkpt>
      <trkpt lat="43.63144" lon="6.80956">
        <ele>173.5</ele>
        <time>2013-05-15T08:05:54Z</time>
      </trkpt>
      <trkpt lat="43.63144" lon="6.80945">
        <ele>174</ele>
        <time>2013-05-15T08:06:10Z</time>
      </trkpt>
      <trkpt lat="43.63149" lon="6.80935">
        <ele>173.600006</ele>
        <time>2013-05-15T08:06:15Z</time>
      </trkpt>
      <trkpt lat="43.63145" lon="6.80925">
        <ele>173.5</ele>
        <time>2013-05-15T08:06:29Z</time>
      </trkpt>
      <trkpt lat="43.63138" lon="6.80917">
        <ele>173.699997</ele>
        <time>2013-05-15T08:06:40Z</time>
      </trkpt>
      <trkpt lat="43.63137" lon="6.80917">
        <ele>173.899994</ele>
        <time>2013-05-15T08:06:41Z</time>
      </trkpt>
      <trkpt lat="43.63132" lon="6.80899">
        <ele>176.100006</ele>
        <time>2013-05-15T08:07:08Z</time>
      </trkpt>
      <trkpt lat="43.63132" lon="6.80888">
        <ele>178</ele>
        <time>2013-05-15T08:07:19Z</time>
      </trkpt>
      <trkpt lat="43.63131" lon="6.80876">
        <ele>178.600006</ele>
        <time>2013-05-15T08:07:30Z</time>
      </trkpt>
      <trkpt lat="43.63124" lon="6.80869">
        <ele>180</ele>
        <time>2013-05-15T08:07:38Z</time>
      </trkpt>
      <trkpt lat="43.63122" lon="6.80858">
        <ele>181.899994</ele>
        <time>2013-05-15T08:07:49Z</time>
      </trkpt>
      <trkpt lat="43.63122" lon="6.80856">
        <ele>182.300003</ele>
        <time>2013-05-15T08:07:50Z</time>
      </trkpt>
      <trkpt lat="43.63113" lon="6.80838">
        <ele>183.300003</ele>
        <time>2013-05-15T08:08:11Z</time>
      </trkpt>
      <trkpt lat="43.63106" lon="6.80831">
        <ele>183.300003</ele>
        <time>2013-05-15T08:08:21Z</time>
      </trkpt>
      <trkpt lat="43.63102" lon="6.80821">
        <ele>182.199997</ele>
        <time>2013-05-15T08:08:30Z</time>
      </trkpt>
      <trkpt lat="43.63104" lon="6.80809">
        <ele>182.699997</ele>
        <time>2013-05-15T08:08:37Z</time>
      </trkpt>
      <trkpt lat="43.63097" lon="6.80801">
        <ele>182.699997</ele>
        <time>2013-05-15T08:08:44Z</time>
      </trkpt>
      <trkpt lat="43.63092" lon="6.80793">
        <ele>182.300003</ele>
        <time>2013-05-15T08:08:51Z</time>
      </trkpt>
      <trkpt lat="43.6309" lon="6.80791">
        <ele>182.100006</ele>
        <time>2013-05-15T08:08:52Z</time>
      </trkpt>
      <trkpt lat="43.6308" lon="6.80777">
        <ele>182.5</ele>
        <time>2013-05-15T08:09:10Z</time>
      </trkpt>
      <trkpt lat="43.63072" lon="6.80772">
        <ele>182.800003</ele>
        <time>2013-05-15T08:09:18Z</time>
      </trkpt>
      <trkpt lat="43.63065" lon="6.80766">
        <ele>182.199997</ele>
        <time>2013-05-15T08:09:24Z</time>
      </trkpt>
      <trkpt lat="43.63059" lon="6.80758">
        <ele>182.600006</ele>
        <time>2013-05-15T08:09:31Z</time>
      </trkpt>
      <trkpt lat="43.63052" lon="6.80751">
        <ele>182.100006</ele>
        <time>2013-05-15T08:09:38Z</time>
      </trkpt>
      <trkpt lat="43.63045" lon="6.80744">
        <ele>183.699997</ele>
        <time>2013-05-15T08:09:46Z</time>
      </trkpt>
      <trkpt lat="43.63041" lon="6.80733">
        <ele>184.199997</ele>
        <time>2013-05-15T08:09:52Z</time>
      </trkpt>
      <trkpt lat="43.6304" lon="6.80731">
        <ele>184.399994</ele>
        <time>2013-05-15T08:09:53Z</time>
      </trkpt>
      <trkpt lat="43.63035" lon="6.80711">
        <ele>182.899994</ele>
        <time>2013-05-15T08:10:08Z</time>
      </trkpt>
      <trkpt lat="43.63032" lon="6.80702">
        <ele>183.600006</ele>
        <time>2013-05-15T08:10:13Z</time>
      </trkpt>
      <trkpt lat="43.63028" lon="6.80691">
        <ele>183.5</ele>
        <time>2013-05-15T08:10:21Z</time>
      </trkpt>
      <trkpt lat="43.63027" lon="6.80679">
        <ele>183.699997</ele>
        <time>2013-05-15T08:10:26Z</time>
      </trkpt>
      <trkpt lat="43.63026" lon="6.80669">
        <ele>183.199997</ele>
        <time>2013-05-15T08:10:32Z</time>
      </trkpt>
      <trkpt lat="43.63024" lon="6.80658">
        <ele>183.800003</ele>
        <time>2013-05-15T08:10:40Z</time>
      </trkpt>
      <trkpt lat="43.63022" lon="6.80647">
        <ele>183.199997</ele>
        <time>2013-05-15T08:10:47Z</time>
      </trkpt>
      <trkpt lat="43.63016" lon="6.80638">
        <ele>183.199997</ele>
        <time>2013-05-15T08:10:56Z</time>
      </trkpt>
      <trkpt lat="43.63015" lon="6.80637">
        <ele>183.300003</ele>
        <time>2013-05-15T08:10:57Z</time>
      </trkpt>
      <trkpt lat="43.63007" lon="6.8062">
        <ele>182.899994</ele>
        <time>2013-05-15T08:11:14Z</time>
      </trkpt>
      <trkpt lat="43.63002" lon="6.80612">
        <ele>183.899994</ele>
        <time>2013-05-15T08:11:21Z</time>
      </trkpt>
      <trkpt lat="43.63001" lon="6.80601">
        <ele>183.5</ele>
        <time>2013-05-15T08:11:26Z</time>
      </trkpt>
      <trkpt lat="43.63" lon="6.80589">
        <ele>184.399994</ele>
        <time>2013-05-15T08:11:34Z</time>
      </trkpt>
      <trkpt lat="43.62998" lon="6.80577">
        <ele>184.300003</ele>
        <time>2013-05-15T08:11:41Z</time>
      </trkpt>
      <trkpt lat="43.62995" lon="6.80566">
        <ele>184.699997</ele>
        <time>2013-05-15T08:11:47Z</time>
      </trkpt>
      <trkpt lat="43.62995" lon="6.80555">
        <ele>184.899994</ele>
        <time>2013-05-15T08:11:56Z</time>
      </trkpt>
      <trkpt lat="43.62994" lon="6.80544">
        <ele>185.600006</ele>
        <time>2013-05-15T08:12:02Z</time>
      </trkpt>
      <trkpt lat="43.62994" lon="6.80542">
        <ele>185.5</ele>
        <time>2013-05-15T08:12:03Z</time>
      </trkpt>
      <trkpt lat="43.62989" lon="6.80524">
        <ele>185.899994</ele>
        <time>2013-05-15T08:12:16Z</time>
      </trkpt>
      <trkpt lat="43.62984" lon="6.80514">
        <ele>185.300003</ele>
        <time>2013-05-15T08:12:24Z</time>
      </trkpt>
      <trkpt lat="43.62977" lon="6.80507">
        <ele>185.399994</ele>
        <time>2013-05-15T08:12:34Z</time>
      </trkpt>
      <trkpt lat="43.6297" lon="6.805">
        <ele>184</ele>
        <time>2013-05-15T08:12:43Z</time>
      </trkpt>
      <trkpt lat="43.62963" lon="6.80493">
        <ele>182.899994</ele>
        <time>2013-05-15T08:12:52Z</time>
      </trkpt>
      <trkpt lat="43.62959" lon="6.80482">
        <ele>181.699997</ele>
        <time>2013-05-15T08:13:02Z</time>
      </trkpt>
      <trkpt lat="43.62955" lon="6.80471">
        <ele>182.300003</ele>
        <time>2013-05-15T08:13:11Z</time>
      </trkpt>
      <trkpt lat="43.62954" lon="6.8047">
        <ele>182.100006</ele>
        <time>2013-05-15T08:13:12Z</time>
      </trkpt>
      <trkpt lat="43.62946" lon="6.80451">
        <ele>182.100006</ele>
        <time>2013-05-15T08:13:28Z</time>
      </trkpt>
      <trkpt lat="43.62942" lon="6.80441">
        <ele>182.399994</ele>
        <time>2013-05-15T08:13:35Z</time>
      </trkpt>
      <trkpt lat="43.62939" lon="6.80431">
        <ele>182.399994</ele>
        <time>2013-05-15T08:13:41Z</time>
      </trkpt>
      <trkpt lat="43.62933" lon="6.80423">
        <ele>183.300003</ele>
        <time>2013-05-15T08:13:48Z</time>
      </trkpt>
      <trkpt lat="43.62932" lon="6.80411">
        <ele>183.100006</ele>
        <time>2013-05-15T08:13:57Z</time>
      </trkpt>
      <trkpt lat="43.6293" lon="6.804">
        <ele>182.5</ele>
        <time>2013-05-15T08:14:04Z</time>
      </trkpt>
      <trkpt lat="43.62924" lon="6.80392">
        <ele>182.600006</ele>
        <time>2013-05-15T08:14:11Z</time>
      </trkpt>
      <trkpt lat="43.62918" lon="6.80384">
        <ele>183.699997</ele>
        <time>2013-05-15T08:14:19Z</time>
      </trkpt>
      <trkpt lat="43.62917" lon="6.80383">
        <ele>183.699997</ele>
        <time>2013-05-15T08:14:20Z</time>
      </trkpt>
      <trkpt lat="43.62906" lon="6.80366">
        <ele>185.800003</ele>
        <time>2013-05-15T08:14:39Z</time>
      </trkpt>
      <trkpt lat="43.62899" lon="6.8036">
        <ele>184.800003</ele>
        <time>2013-05-15T08:14:47Z</time>
      </trkpt>
      <trkpt lat="43.62898" lon="6.80349">
        <ele>185.199997</ele>
        <time>2013-05-15T08:14:57Z</time>
      </trkpt>
      <trkpt lat="43.62895" lon="6.80337">
        <ele>185.5</ele>
        <time>2013-05-15T08:15:08Z</time>
      </trkpt>
      <trkpt lat="43.6289" lon="6.80328">
        <ele>183.699997</ele>
        <time>2013-05-15T08:15:19Z</time>
      </trkpt>
      <trkpt lat="43.62891" lon="6.80317">
        <ele>182.899994</ele>
        <time>2013-05-15T08:15:29Z</time>
      </trkpt>
      <trkpt lat="43.62891" lon="6.80315">
        <ele>182.800003</ele>
        <time>2013-05-15T08:15:30Z</time>
      </trkpt>
      <trkpt lat="43.62891" lon="6.80293">
        <ele>181</ele>
        <time>2013-05-15T08:15:47Z</time>
      </trkpt>
      <trkpt lat="43.6289" lon="6.80282">
        <ele>181.699997</ele>
        <time>2013-05-15T08:15:56Z</time>
      </trkpt>
      <trkpt lat="43.62891" lon="6.80271">
        <ele>181.699997</ele>
        <time>2013-05-15T08:16:03Z</time>
      </trkpt>
      <trkpt lat="43.62893" lon="6.8026">
        <ele>182</ele>
        <time>2013-05-15T08:16:10Z</time>
      </trkpt>
      <trkpt lat="43.62897" lon="6.8025">
        <ele>181.800003</ele>
        <time>2013-05-15T08:16:17Z</time>
      </trkpt>
      <trkpt lat="43.62897" lon="6.80238">
        <ele>181.600006</ele>
        <time>2013-05-15T08:16:24Z</time>
      </trkpt>
      <trkpt lat="43.62895" lon="6.80227">
        <ele>180.899994</ele>
        <time>2013-05-15T08:16:32Z</time>
      </trkpt>
      <trkpt lat="43.62894" lon="6.80226">
        <ele>180.800003</ele>
        <time>2013-05-15T08:16:33Z</time>
      </trkpt>
      <trkpt lat="43.62884" lon="6.80208">
        <ele>179.399994</ele>
        <time>2013-05-15T08:16:51Z</time>
      </trkpt>
      <trkpt lat="43.62876" lon="6.80209">
        <ele>177.300003</ele>
        <time>2013-05-15T08:17:00Z</time>
      </trkpt>
      <trkpt lat="43.62868" lon="6.80203">
        <ele>175.600006</ele>
        <time>2013-05-15T08:17:13Z</time>
      </trkpt>
      <trkpt lat="43.62861" lon="6.80195">
        <ele>173.600006</ele>
        <time>2013-05-15T08:17:28Z</time>
      </trkpt>
      <trkpt lat="43.62853" lon="6.8019">
        <ele>172.699997</ele>
        <time>2013-05-15T08:17:43Z</time>
      </trkpt>
      <trkpt lat="43.62853" lon="6.80191">
        <ele>172.600006</ele>
        <time>2013-05-15T08:17:44Z</time>
      </trkpt>
      <trkpt lat="43.62847" lon="6.80168">
        <ele>172.199997</ele>
        <time>2013-05-15T08:18:07Z</time>
      </trkpt>
      <trkpt lat="43.62843" lon="6.80159">
        <ele>171</ele>
        <time>2013-05-15T08:18:17Z</time>
      </trkpt>
      <trkpt lat="43.6284" lon="6.80148">
        <ele>170.399994</ele>
        <time>2013-05-15T08:18:28Z</time>
      </trkpt>
      <trkpt lat="43.62831" lon="6.8015">
        <ele>169.800003</ele>
        <time>2013-05-15T08:18:55Z</time>
      </trkpt>
      <trkpt lat="43.6283" lon="6.80152">
        <ele>169.899994</ele>
        <time>2013-05-15T08:18:56Z</time>
      </trkpt>
      <trkpt lat="43.62832" lon="6.80138">
        <ele>169.399994</ele>
        <time>2013-05-15T08:20:17Z</time>
      </trkpt>
      <trkpt lat="43.62823" lon="6.80156">
        <ele>169.199997</ele>
        <time>2013-05-15T08:21:07Z</time>
      </trkpt>
      <trkpt lat="43.62826" lon="6.80145">
        <ele>169.899994</ele>
        <time>2013-05-15T08:21:40Z</time>
      </trkpt>
      <trkpt lat="43.62826" lon="6.80143">
        <ele>170.100006</ele>
        <time>2013-05-15T08:21:41Z</time>
      </trkpt>
      <trkpt lat="43.6283" lon="6.80139">
        <ele>168.699997</ele>
        <time>2013-05-15T08:26:54Z</time>
      </trkpt>
      <trkpt lat="43.62831" lon="6.80137">
        <ele>168.600006</ele>
        <time>2013-05-15T08:26:55Z</time>
      </trkpt>
      <trkpt lat="43.62837" lon="6.80161">
        <ele>171.199997</ele>
        <time>2013-05-15T08:27:59Z</time>
      </trkpt>
      <trkpt lat="43.62837" lon="6.80162">
        <ele>171.5</ele>
        <time>2013-05-15T08:28:00Z</time>
      </trkpt>
      <trkpt lat="43.62844" lon="6.80182">
        <ele>173.699997</ele>
        <time>2013-05-15T08:28:16Z</time>
      </trkpt>
      <trkpt lat="43.62844" lon="6.80193">
        <ele>173.5</ele>
        <time>2013-05-15T08:28:28Z</time>
      </trkpt>
      <trkpt lat="43.62849" lon="6.80203">
        <ele>174.199997</ele>
        <time>2013-05-15T08:28:36Z</time>
      </trkpt>
      <trkpt lat="43.62857" lon="6.80205">
        <ele>173.800003</ele>
        <time>2013-05-15T08:28:41Z</time>
      </trkpt>
      <trkpt lat="43.62864" lon="6.80213">
        <ele>175.300003</ele>
        <time>2013-05-15T08:28:50Z</time>
      </trkpt>
      <trkpt lat="43.62871" lon="6.80217">
        <ele>176.199997</ele>
        <time>2013-05-15T08:28:58Z</time>
      </trkpt>
      <trkpt lat="43.6288" lon="6.80218">
        <ele>179.100006</ele>
        <time>2013-05-15T08:29:10Z</time>
      </trkpt>
      <trkpt lat="43.6288" lon="6.80218">
        <ele>179.300003</ele>
        <time>2013-05-15T08:29:11Z</time>
      </trkpt>
      <trkpt lat="43.62897" lon="6.80214">
        <ele>182.399994</ele>
        <time>2013-05-15T08:29:35Z</time>
      </trkpt>
      <trkpt lat="43.62905" lon="6.80209">
        <ele>186.600006</ele>
        <time>2013-05-15T08:29:58Z</time>
      </trkpt>
      <trkpt lat="43.62914" lon="6.8021">
        <ele>190</ele>
        <time>2013-05-15T08:30:19Z</time>
      </trkpt>
      <trkpt lat="43.62915" lon="6.80209">
        <ele>190.199997</ele>
        <time>2013-05-15T08:30:20Z</time>
      </trkpt>
      <trkpt lat="43.6293" lon="6.80204">
        <ele>194.699997</ele>
        <time>2013-05-15T08:30:49Z</time>
      </trkpt>
      <trkpt lat="43.62935" lon="6.80195">
        <ele>195.899994</ele>
        <time>2013-05-15T08:30:57Z</time>
      </trkpt>
      <trkpt lat="43.62941" lon="6.80186">
        <ele>198.5</ele>
        <time>2013-05-15T08:31:07Z</time>
      </trkpt>
      <trkpt lat="43.6294" lon="6.80175">
        <ele>199.199997</ele>
        <time>2013-05-15T08:31:19Z</time>
      </trkpt>
      <trkpt lat="43.62936" lon="6.80165">
        <ele>201.399994</ele>
        <time>2013-05-15T08:31:28Z</time>
      </trkpt>
      <trkpt lat="43.62935" lon="6.80165">
        <ele>201.100006</ele>
        <time>2013-05-15T08:31:29Z</time>
      </trkpt>
      <trkpt lat="43.6295" lon="6.80155">
        <ele>205.399994</ele>
        <time>2013-05-15T08:32:01Z</time>
      </trkpt>
      <trkpt lat="43.62954" lon="6.80144">
        <ele>206.199997</ele>
        <time>2013-05-15T08:32:09Z</time>
      </trkpt>
      <trkpt lat="43.62951" lon="6.80134">
        <ele>207.100006</ele>
        <time>2013-05-15T08:32:17Z</time>
      </trkpt>
      <trkpt lat="43.62959" lon="6.8013">
        <ele>210</ele>
        <time>2013-05-15T08:32:49Z</time>
      </trkpt>
      <trkpt lat="43.6296" lon="6.8013">
        <ele>210</ele>
        <time>2013-05-15T08:32:50Z</time>
      </trkpt>
      <trkpt lat="43.62966" lon="6.80139">
        <ele>209.600006</ele>
        <time>2013-05-15T08:34:03Z</time>
      </trkpt>
      <trkpt lat="43.62965" lon="6.80115">
        <ele>212.300003</ele>
        <time>2013-05-15T08:35:00Z</time>
      </trkpt>
      <trkpt lat="43.62971" lon="6.80106">
        <ele>213</ele>
        <time>2013-05-15T08:35:09Z</time>
      </trkpt>
      <trkpt lat="43.62972" lon="6.80106">
        <ele>213.100006</ele>
        <time>2013-05-15T08:35:10Z</time>
      </trkpt>
      <trkpt lat="43.62974" lon="6.80085">
        <ele>211.899994</ele>
        <time>2013-05-15T08:35:34Z</time>
      </trkpt>
      <trkpt lat="43.62976" lon="6.80074">
        <ele>211.699997</ele>
        <time>2013-05-15T08:35:46Z</time>
      </trkpt>
      <trkpt lat="43.62978" lon="6.80063">
        <ele>210.600006</ele>
        <time>2013-05-15T08:35:58Z</time>
      </trkpt>
      <trkpt lat="43.62979" lon="6.80051">
        <ele>209.699997</ele>
        <time>2013-05-15T08:36:08Z</time>
      </trkpt>
      <trkpt lat="43.62985" lon="6.80042">
        <ele>209.5</ele>
        <time>2013-05-15T08:36:22Z</time>
      </trkpt>
      <trkpt lat="43.62985" lon="6.80042">
        <ele>209.199997</ele>
        <time>2013-05-15T08:36:23Z</time>
      </trkpt>
      <trkpt lat="43.63" lon="6.80031">
        <ele>206.100006</ele>
        <time>2013-05-15T08:36:55Z</time>
      </trkpt>
      <trkpt lat="43.63008" lon="6.80026">
        <ele>204.600006</ele>
        <time>2013-05-15T08:37:08Z</time>
      </trkpt>
      <trkpt lat="43.63015" lon="6.80021">
        <ele>204.399994</ele>
        <time>2013-05-15T08:37:22Z</time>
      </trkpt>
      <trkpt lat="43.63023" lon="6.80017">
        <ele>204.100006</ele>
        <time>2013-05-15T08:37:31Z</time>
      </trkpt>
      <trkpt lat="43.63024" lon="6.80016">
        <ele>204</ele>
        <time>2013-05-15T08:37:32Z</time>
      </trkpt>
      <trkpt lat="43.63038" lon="6.80005">
        <ele>201.100006</ele>
        <time>2013-05-15T08:37:52Z</time>
      </trkpt>
      <trkpt lat="43.63046" lon="6.79998">
        <ele>200.5</ele>
        <time>2013-05-15T08:38:11Z</time>
      </trkpt>
      <trkpt lat="43.63054" lon="6.79993">
        <ele>200</ele>
        <time>2013-05-15T08:38:22Z</time>
      </trkpt>
      <trkpt lat="43.63062" lon="6.79987">
        <ele>199.699997</ele>
        <time>2013-05-15T08:38:30Z</time>
      </trkpt>
      <trkpt lat="43.63067" lon="6.79977">
        <ele>199.5</ele>
        <time>2013-05-15T08:38:45Z</time>
      </trkpt>
      <trkpt lat="43.63067" lon="6.79976">
        <ele>199.399994</ele>
        <time>2013-05-15T08:38:46Z</time>
      </trkpt>
      <trkpt lat="43.63076" lon="6.79957">
        <ele>198</ele>
        <time>2013-05-15T08:39:28Z</time>
      </trkpt>
      <trkpt lat="43.63081" lon="6.79948">
        <ele>197.100006</ele>
        <time>2013-05-15T08:39:37Z</time>
      </trkpt>
      <trkpt lat="43.6309" lon="6.79947">
        <ele>196.800003</ele>
        <time>2013-05-15T08:39:47Z</time>
      </trkpt>
      <trkpt lat="43.6309" lon="6.79946">
        <ele>196.800003</ele>
        <time>2013-05-15T08:39:48Z</time>
      </trkpt>
      <trkpt lat="43.63107" lon="6.79951">
        <ele>198.5</ele>
        <time>2013-05-15T08:40:15Z</time>
      </trkpt>
      <trkpt lat="43.63115" lon="6.79948">
        <ele>199.5</ele>
        <time>2013-05-15T08:40:43Z</time>
      </trkpt>
      <trkpt lat="43.63122" lon="6.79941">
        <ele>197.5</ele>
        <time>2013-05-15T08:41:18Z</time>
      </trkpt>
      <trkpt lat="43.63123" lon="6.7994">
        <ele>197.199997</ele>
        <time>2013-05-15T08:41:19Z</time>
      </trkpt>
      <trkpt lat="43.63138" lon="6.79941">
        <ele>194.800003</ele>
        <time>2013-05-15T08:41:50Z</time>
      </trkpt>
      <trkpt lat="43.63147" lon="6.79943">
        <ele>195.199997</ele>
        <time>2013-05-15T08:42:02Z</time>
      </trkpt>
      <trkpt lat="43.63153" lon="6.79935">
        <ele>197.199997</ele>
        <time>2013-05-15T08:42:28Z</time>
      </trkpt>
      <trkpt lat="43.63154" lon="6.79934">
        <ele>197.199997</ele>
        <time>2013-05-15T08:42:29Z</time>
      </trkpt>
      <trkpt lat="43.63165" lon="6.7992">
        <ele>196.699997</ele>
        <time>2013-05-15T08:42:43Z</time>
      </trkpt>
      <trkpt lat="43.63169" lon="6.7991">
        <ele>197.5</ele>
        <time>2013-05-15T08:42:50Z</time>
      </trkpt>
      <trkpt lat="43.63178" lon="6.7991">
        <ele>200</ele>
        <time>2013-05-15T08:43:10Z</time>
      </trkpt>
      <trkpt lat="43.63187" lon="6.79911">
        <ele>202.199997</ele>
        <time>2013-05-15T08:43:23Z</time>
      </trkpt>
      <trkpt lat="43.63194" lon="6.79903">
        <ele>203.600006</ele>
        <time>2013-05-15T08:43:34Z</time>
      </trkpt>
      <trkpt lat="43.63195" lon="6.79902">
        <ele>203.699997</ele>
        <time>2013-05-15T08:43:35Z</time>
      </trkpt>
      <trkpt lat="43.6321" lon="6.79905">
        <ele>206.100006</ele>
        <time>2013-05-15T08:43:53Z</time>
      </trkpt>
      <trkpt lat="43.63218" lon="6.79899">
        <ele>205.600006</ele>
        <time>2013-05-15T08:44:02Z</time>
      </trkpt>
      <trkpt lat="43.63225" lon="6.79895">
        <ele>205.399994</ele>
        <time>2013-05-15T08:44:12Z</time>
      </trkpt>
      <trkpt lat="43.63233" lon="6.79891">
        <ele>204.600006</ele>
        <time>2013-05-15T08:44:20Z</time>
      </trkpt>
      <trkpt lat="43.6324" lon="6.79883">
        <ele>204</ele>
        <time>2013-05-15T08:44:30Z</time>
      </trkpt>
      <trkpt lat="43.63245" lon="6.79873">
        <ele>204.600006</ele>
        <time>2013-05-15T08:44:38Z</time>
      </trkpt>
      <trkpt lat="43.63245" lon="6.79872">
        <ele>204.399994</ele>
        <time>2013-05-15T08:44:39Z</time>
      </trkpt>
      <trkpt lat="43.63253" lon="6.79854">
        <ele>203.600006</ele>
        <time>2013-05-15T08:44:58Z</time>
      </trkpt>
      <trkpt lat="43.63259" lon="6.79846">
        <ele>204.600006</ele>
        <time>2013-05-15T08:45:08Z</time>
      </trkpt>
      <trkpt lat="43.63261" lon="6.79834">
        <ele>204.600006</ele>
        <time>2013-05-15T08:45:19Z</time>
      </trkpt>
      <trkpt lat="43.63267" lon="6.79826">
        <ele>203.300003</ele>
        <time>2013-05-15T08:45:55Z</time>
      </trkpt>
      <trkpt lat="43.63267" lon="6.79824">
        <ele>203.399994</ele>
        <time>2013-05-15T08:45:56Z</time>
      </trkpt>
      <trkpt lat="43.63274" lon="6.79806">
        <ele>203.699997</ele>
        <time>2013-05-15T08:46:07Z</time>
      </trkpt>
      <trkpt lat="43.63276" lon="6.79794">
        <ele>203.100006</ele>
        <time>2013-05-15T08:46:14Z</time>
      </trkpt>
      <trkpt lat="43.63279" lon="6.79783">
        <ele>201.800003</ele>
        <time>2013-05-15T08:46:23Z</time>
      </trkpt>
      <trkpt lat="43.63283" lon="6.79773">
        <ele>201.199997</ele>
        <time>2013-05-15T08:46:30Z</time>
      </trkpt>
      <trkpt lat="43.63291" lon="6.79767">
        <ele>201.199997</ele>
        <time>2013-05-15T08:46:39Z</time>
      </trkpt>
      <trkpt lat="43.63299" lon="6.79764">
        <ele>201.899994</ele>
        <time>2013-05-15T08:46:49Z</time>
      </trkpt>
      <trkpt lat="43.63306" lon="6.79758">
        <ele>203.300003</ele>
        <time>2013-05-15T08:47:02Z</time>
      </trkpt>
      <trkpt lat="43.63307" lon="6.79758">
        <ele>203.399994</ele>
        <time>2013-05-15T08:47:03Z</time>
      </trkpt>
      <trkpt lat="43.63323" lon="6.79753">
        <ele>210.399994</ele>
        <time>2013-05-15T08:48:03Z</time>
      </trkpt>
      <trkpt lat="43.63324" lon="6.79754">
        <ele>210.5</ele>
        <time>2013-05-15T08:48:04Z</time>
      </trkpt>
      <trkpt lat="43.63338" lon="6.79749">
        <ele>215.699997</ele>
        <time>2013-05-15T08:48:32Z</time>
      </trkpt>
      <trkpt lat="43.63346" lon="6.79745">
        <ele>217.100006</ele>
        <time>2013-05-15T08:48:44Z</time>
      </trkpt>
      <trkpt lat="43.63351" lon="6.79736">
        <ele>216.100006</ele>
        <time>2013-05-15T08:48:49Z</time>
      </trkpt>
      <trkpt lat="43.63356" lon="6.79727">
        <ele>217.199997</ele>
        <time>2013-05-15T08:49:03Z</time>
      </trkpt>
      <trkpt lat="43.63364" lon="6.79723">
        <ele>219.100006</ele>
        <time>2013-05-15T08:49:16Z</time>
      </trkpt>
      <trkpt lat="43.63365" lon="6.79723">
        <ele>219.300003</ele>
        <time>2013-05-15T08:49:17Z</time>
      </trkpt>
      <trkpt lat="43.63378" lon="6.79711">
        <ele>221.699997</ele>
        <time>2013-05-15T08:49:48Z</time>
      </trkpt>
      <trkpt lat="43.63384" lon="6.79701">
        <ele>223</ele>
        <time>2013-05-15T08:50:04Z</time>
      </trkpt>
      <trkpt lat="43.63387" lon="6.7969">
        <ele>224.100006</ele>
        <time>2013-05-15T08:50:13Z</time>
      </trkpt>
      <trkpt lat="43.63393" lon="6.79683">
        <ele>225.5</ele>
        <time>2013-05-15T08:50:22Z</time>
      </trkpt>
      <trkpt lat="43.63394" lon="6.79681">
        <ele>225.5</ele>
        <time>2013-05-15T08:50:23Z</time>
      </trkpt>
      <trkpt lat="43.634" lon="6.79662">
        <ele>229.899994</ele>
        <time>2013-05-15T08:50:54Z</time>
      </trkpt>
      <trkpt lat="43.63408" lon="6.79662">
        <ele>239.800003</ele>
        <time>2013-05-15T08:52:05Z</time>
      </trkpt>
      <trkpt lat="43.63409" lon="6.79662">
        <ele>239.800003</ele>
        <time>2013-05-15T08:52:06Z</time>
      </trkpt>
      <trkpt lat="43.6341" lon="6.79665">
        <ele>242.899994</ele>
        <time>2013-05-15T08:53:09Z</time>
      </trkpt>
      <trkpt lat="43.63409" lon="6.79666">
        <ele>243.100006</ele>
        <time>2013-05-15T08:53:10Z</time>
      </trkpt>
      <trkpt lat="43.63423" lon="6.79677">
        <ele>246.300003</ele>
        <time>2013-05-15T08:55:29Z</time>
      </trkpt>
      <trkpt lat="43.63423" lon="6.79676">
        <ele>246.199997</ele>
        <time>2013-05-15T08:55:30Z</time>
      </trkpt>
      <trkpt lat="43.63437" lon="6.79666">
        <ele>246.5</ele>
        <time>2013-05-15T08:56:15Z</time>
      </trkpt>
      <trkpt lat="43.63445" lon="6.79662">
        <ele>248.699997</ele>
        <time>2013-05-15T08:56:28Z</time>
      </trkpt>
      <trkpt lat="43.63444" lon="6.7965">
        <ele>249.800003</ele>
        <time>2013-05-15T08:56:40Z</time>
      </trkpt>
      <trkpt lat="43.63445" lon="6.79649">
        <ele>250.199997</ele>
        <time>2013-05-15T08:56:41Z</time>
      </trkpt>
      <trkpt lat="43.6346" lon="6.7965">
        <ele>253</ele>
        <time>2013-05-15T08:56:57Z</time>
      </trkpt>
      <trkpt lat="43.63469" lon="6.7965">
        <ele>255.399994</ele>
        <time>2013-05-15T08:57:13Z</time>
      </trkpt>
      <trkpt lat="43.63477" lon="6.79651">
        <ele>257.200012</ele>
        <time>2013-05-15T08:57:28Z</time>
      </trkpt>
      <trkpt lat="43.63485" lon="6.7965">
        <ele>259.100006</ele>
        <time>2013-05-15T08:57:39Z</time>
      </trkpt>
      <trkpt lat="43.63493" lon="6.79645">
        <ele>260</ele>
        <time>2013-05-15T08:57:53Z</time>
      </trkpt>
      <trkpt lat="43.63494" lon="6.79645">
        <ele>260.200012</ele>
        <time>2013-05-15T08:57:53Z</time>
      </trkpt>
      <trkpt lat="43.63509" lon="6.79636">
        <ele>262.700012</ele>
        <time>2013-05-15T08:58:15Z</time>
      </trkpt>
      <trkpt lat="43.63516" lon="6.7963">
        <ele>264.299988</ele>
        <time>2013-05-15T08:58:35Z</time>
      </trkpt>
      <trkpt lat="43.63524" lon="6.79627">
        <ele>265.5</ele>
        <time>2013-05-15T08:58:49Z</time>
      </trkpt>
      <trkpt lat="43.63532" lon="6.79622">
        <ele>265.899994</ele>
        <time>2013-05-15T08:58:57Z</time>
      </trkpt>
      <trkpt lat="43.63533" lon="6.79621">
        <ele>266</ele>
        <time>2013-05-15T08:58:58Z</time>
      </trkpt>
      <trkpt lat="43.63545" lon="6.79612">
        <ele>267.100006</ele>
        <time>2013-05-15T08:59:39Z</time>
      </trkpt>
      <trkpt lat="43.63553" lon="6.79613">
        <ele>267.899994</ele>
        <time>2013-05-15T08:59:54Z</time>
      </trkpt>
      <trkpt lat="43.63558" lon="6.79623">
        <ele>267.200012</ele>
        <time>2013-05-15T09:00:08Z</time>
      </trkpt>
      <trkpt lat="43.63558" lon="6.79624">
        <ele>267</ele>
        <time>2013-05-15T09:00:09Z</time>
      </trkpt>
      <trkpt lat="43.63572" lon="6.79635">
        <ele>266.899994</ele>
        <time>2013-05-15T09:00:25Z</time>
      </trkpt>
      <trkpt lat="43.63576" lon="6.79647">
        <ele>268.200012</ele>
        <time>2013-05-15T09:01:27Z</time>
      </trkpt>
      <trkpt lat="43.63577" lon="6.79647">
        <ele>268.200012</ele>
        <time>2013-05-15T09:01:28Z</time>
      </trkpt>
      <trkpt lat="43.63592" lon="6.79654">
        <ele>269.100006</ele>
        <time>2013-05-15T09:01:42Z</time>
      </trkpt>
      <trkpt lat="43.636" lon="6.79656">
        <ele>268.899994</ele>
        <time>2013-05-15T09:01:51Z</time>
      </trkpt>
      <trkpt lat="43.63608" lon="6.79661">
        <ele>268.399994</ele>
        <time>2013-05-15T09:01:59Z</time>
      </trkpt>
      <trkpt lat="43.63615" lon="6.79664">
        <ele>268.100006</ele>
        <time>2013-05-15T09:02:06Z</time>
      </trkpt>
      <trkpt lat="43.63624" lon="6.79667">
        <ele>268.799988</ele>
        <time>2013-05-15T09:02:13Z</time>
      </trkpt>
      <trkpt lat="43.63629" lon="6.79676">
        <ele>269.600006</ele>
        <time>2013-05-15T09:02:23Z</time>
      </trkpt>
      <trkpt lat="43.63636" lon="6.79683">
        <ele>270.100006</ele>
        <time>2013-05-15T09:02:32Z</time>
      </trkpt>
      <trkpt lat="43.63637" lon="6.79683">
        <ele>270.200012</ele>
        <time>2013-05-15T09:02:33Z</time>
      </trkpt>
      <trkpt lat="43.63652" lon="6.79694">
        <ele>273.200012</ele>
        <time>2013-05-15T09:02:55Z</time>
      </trkpt>
      <trkpt lat="43.63658" lon="6.79702">
        <ele>274.799988</ele>
        <time>2013-05-15T09:03:06Z</time>
      </trkpt>
      <trkpt lat="43.63665" lon="6.79707">
        <ele>277</ele>
        <time>2013-05-15T09:03:19Z</time>
      </trkpt>
      <trkpt lat="43.63673" lon="6.79711">
        <ele>277.700012</ele>
        <time>2013-05-15T09:03:25Z</time>
      </trkpt>
      <trkpt lat="43.6368" lon="6.79712">
        <ele>277.799988</ele>
        <time>2013-05-15T09:03:30Z</time>
      </trkpt>
      <trkpt lat="43.63687" lon="6.7972">
        <ele>277.299988</ele>
        <time>2013-05-15T09:03:35Z</time>
      </trkpt>
      <trkpt lat="43.63687" lon="6.79721">
        <ele>277.299988</ele>
        <time>2013-05-15T09:03:36Z</time>
      </trkpt>
      <trkpt lat="43.63697" lon="6.79736">
        <ele>277.799988</ele>
        <time>2013-05-15T09:03:48Z</time>
      </trkpt>
      <trkpt lat="43.63701" lon="6.79743">
        <ele>277.700012</ele>
        <time>2013-05-15T09:03:52Z</time>
      </trkpt>
      <trkpt lat="43.63708" lon="6.7975">
        <ele>276.5</ele>
        <time>2013-05-15T09:03:59Z</time>
      </trkpt>
      <trkpt lat="43.63716" lon="6.79757">
        <ele>276</ele>
        <time>2013-05-15T09:04:05Z</time>
      </trkpt>
      <trkpt lat="43.63723" lon="6.79763">
        <ele>275.700012</ele>
        <time>2013-05-15T09:04:10Z</time>
      </trkpt>
      <trkpt lat="43.63729" lon="6.79768">
        <ele>275.600006</ele>
        <time>2013-05-15T09:04:17Z</time>
      </trkpt>
      <trkpt lat="43.63736" lon="6.79774">
        <ele>275</ele>
        <time>2013-05-15T09:04:21Z</time>
      </trkpt>
      <trkpt lat="43.63742" lon="6.79782">
        <ele>274.899994</ele>
        <time>2013-05-15T09:04:26Z</time>
      </trkpt>
      <trkpt lat="43.63749" lon="6.79787">
        <ele>275.799988</ele>
        <time>2013-05-15T09:04:36Z</time>
      </trkpt>
      <trkpt lat="43.63751" lon="6.79786">
        <ele>275.700012</ele>
        <time>2013-05-15T09:04:37Z</time>
      </trkpt>
      <trkpt lat="43.63766" lon="6.79783">
        <ele>277.5</ele>
        <time>2013-05-15T09:04:53Z</time>
      </trkpt>
      <trkpt lat="43.63772" lon="6.79774">
        <ele>276.100006</ele>
        <time>2013-05-15T09:05:00Z</time>
      </trkpt>
      <trkpt lat="43.6378" lon="6.79772">
        <ele>275.5</ele>
        <time>2013-05-15T09:05:07Z</time>
      </trkpt>
      <trkpt lat="43.63788" lon="6.79771">
        <ele>276.700012</ele>
        <time>2013-05-15T09:05:13Z</time>
      </trkpt>
      <trkpt lat="43.63793" lon="6.79762">
        <ele>277.200012</ele>
        <time>2013-05-15T09:05:21Z</time>
      </trkpt>
      <trkpt lat="43.638" lon="6.79755">
        <ele>277.100006</ele>
        <time>2013-05-15T09:05:28Z</time>
      </trkpt>
      <trkpt lat="43.63806" lon="6.79747">
        <ele>277.5</ele>
        <time>2013-05-15T09:05:37Z</time>
      </trkpt>
      <trkpt lat="43.63807" lon="6.79747">
        <ele>277.600006</ele>
        <time>2013-05-15T09:05:38Z</time>
      </trkpt>
      <trkpt lat="43.63823" lon="6.79748">
        <ele>279.600006</ele>
        <time>2013-05-15T09:05:54Z</time>
      </trkpt>
      <trkpt lat="43.63831" lon="6.7975">
        <ele>282.5</ele>
        <time>2013-05-15T09:06:12Z</time>
      </trkpt>
      <trkpt lat="43.6384" lon="6.79754">
        <ele>285.399994</ele>
        <time>2013-05-15T09:06:29Z</time>
      </trkpt>
      <trkpt lat="43.63846" lon="6.79762">
        <ele>286.5</ele>
        <time>2013-05-15T09:06:39Z</time>
      </trkpt>
      <trkpt lat="43.63847" lon="6.79763">
        <ele>286.600006</ele>
        <time>2013-05-15T09:06:40Z</time>
      </trkpt>
      <trkpt lat="43.63859" lon="6.79779">
        <ele>289.600006</ele>
        <time>2013-05-15T09:07:04Z</time>
      </trkpt>
      <trkpt lat="43.63866" lon="6.79786">
        <ele>291.5</ele>
        <time>2013-05-15T09:07:20Z</time>
      </trkpt>
      <trkpt lat="43.63874" lon="6.7978">
        <ele>293.399994</ele>
        <time>2013-05-15T09:08:10Z</time>
      </trkpt>
      <trkpt lat="43.63874" lon="6.79779">
        <ele>293.299988</ele>
        <time>2013-05-15T09:08:11Z</time>
      </trkpt>
      <trkpt lat="43.6389" lon="6.79775">
        <ele>295.200012</ele>
        <time>2013-05-15T09:09:15Z</time>
      </trkpt>
      <trkpt lat="43.6389" lon="6.79775">
        <ele>295.399994</ele>
        <time>2013-05-15T09:09:16Z</time>
      </trkpt>
      <trkpt lat="43.63873" lon="6.79781">
        <ele>299.299988</ele>
        <time>2013-05-15T09:09:49Z</time>
      </trkpt>
      <trkpt lat="43.63865" lon="6.79785">
        <ele>300.899994</ele>
        <time>2013-05-15T09:10:05Z</time>
      </trkpt>
      <trkpt lat="43.63857" lon="6.79781">
        <ele>300.5</ele>
        <time>2013-05-15T09:10:17Z</time>
      </trkpt>
      <trkpt lat="43.63856" lon="6.79781">
        <ele>300.5</ele>
        <time>2013-05-15T09:10:18Z</time>
      </trkpt>
      <trkpt lat="43.6384" lon="6.79784">
        <ele>303.200012</ele>
        <time>2013-05-15T09:10:39Z</time>
      </trkpt>
      <trkpt lat="43.63831" lon="6.79784">
        <ele>304.200012</ele>
        <time>2013-05-15T09:10:50Z</time>
      </trkpt>
      <trkpt lat="43.63823" lon="6.79788">
        <ele>305.5</ele>
        <time>2013-05-15T09:11:02Z</time>
      </trkpt>
      <trkpt lat="43.63816" lon="6.79794">
        <ele>307.100006</ele>
        <time>2013-05-15T09:11:12Z</time>
      </trkpt>
      <trkpt lat="43.6381" lon="6.79803">
        <ele>307.100006</ele>
        <time>2013-05-15T09:11:28Z</time>
      </trkpt>
      <trkpt lat="43.6381" lon="6.79804">
        <ele>307.100006</ele>
        <time>2013-05-15T09:11:29Z</time>
      </trkpt>
      <trkpt lat="43.638" lon="6.79821">
        <ele>310.100006</ele>
        <time>2013-05-15T09:12:15Z</time>
      </trkpt>
      <trkpt lat="43.63793" lon="6.79828">
        <ele>312.100006</ele>
        <time>2013-05-15T09:13:05Z</time>
      </trkpt>
      <trkpt lat="43.63793" lon="6.79829">
        <ele>312.100006</ele>
        <time>2013-05-15T09:13:06Z</time>
      </trkpt>
      <trkpt lat="43.63785" lon="6.7985">
        <ele>316.399994</ele>
        <time>2013-05-15T09:13:29Z</time>
      </trkpt>
      <trkpt lat="43.63793" lon="6.79856">
        <ele>318.299988</ele>
        <time>2013-05-15T09:13:41Z</time>
      </trkpt>
      <trkpt lat="43.638" lon="6.79861">
        <ele>323.200012</ele>
        <time>2013-05-15T09:14:23Z</time>
      </trkpt>
      <trkpt lat="43.63802" lon="6.79861">
        <ele>323.399994</ele>
        <time>2013-05-15T09:14:24Z</time>
      </trkpt>
      <trkpt lat="43.63817" lon="6.79856">
        <ele>326.700012</ele>
        <time>2013-05-15T09:15:03Z</time>
      </trkpt>
      <trkpt lat="43.6382" lon="6.79867">
        <ele>333.700012</ele>
        <time>2013-05-15T09:15:47Z</time>
      </trkpt>
      <trkpt lat="43.63821" lon="6.79868">
        <ele>333.600006</ele>
        <time>2013-05-15T09:15:48Z</time>
      </trkpt>
      <trkpt lat="43.63814" lon="6.79889">
        <ele>344.5</ele>
        <time>2013-05-15T09:17:05Z</time>
      </trkpt>
      <trkpt lat="43.63813" lon="6.79889">
        <ele>344.799988</ele>
        <time>2013-05-15T09:17:06Z</time>
      </trkpt>
      <trkpt lat="43.63797" lon="6.79896">
        <ele>348.299988</ele>
        <time>2013-05-15T09:17:35Z</time>
      </trkpt>
      <trkpt lat="43.63793" lon="6.79906">
        <ele>349.600006</ele>
        <time>2013-05-15T09:17:44Z</time>
      </trkpt>
      <trkpt lat="43.63786" lon="6.79914">
        <ele>351</ele>
        <time>2013-05-15T09:17:55Z</time>
      </trkpt>
      <trkpt lat="43.63778" lon="6.79919">
        <ele>353.5</ele>
        <time>2013-05-15T09:18:09Z</time>
      </trkpt>
      <trkpt lat="43.63777" lon="6.79919">
        <ele>353.600006</ele>
        <time>2013-05-15T09:18:10Z</time>
      </trkpt>
      <trkpt lat="43.63772" lon="6.79934">
        <ele>355.100006</ele>
        <time>2013-05-15T09:21:05Z</time>
      </trkpt>
      <trkpt lat="43.63771" lon="6.79934">
        <ele>355.299988</ele>
        <time>2013-05-15T09:21:06Z</time>
      </trkpt>
      <trkpt lat="43.63756" lon="6.79944">
        <ele>358.200012</ele>
        <time>2013-05-15T09:21:39Z</time>
      </trkpt>
      <trkpt lat="43.63752" lon="6.79954">
        <ele>360.5</ele>
        <time>2013-05-15T09:21:53Z</time>
      </trkpt>
      <trkpt lat="43.63746" lon="6.79963">
        <ele>363.799988</ele>
        <time>2013-05-15T09:22:13Z</time>
      </trkpt>
      <trkpt lat="43.63746" lon="6.79964">
        <ele>364</ele>
        <time>2013-05-15T09:22:14Z</time>
      </trkpt>
      <trkpt lat="43.63735" lon="6.79981">
        <ele>370.600006</ele>
        <time>2013-05-15T09:22:52Z</time>
      </trkpt>
      <trkpt lat="43.63735" lon="6.79993">
        <ele>374.100006</ele>
        <time>2013-05-15T09:23:09Z</time>
      </trkpt>
      <trkpt lat="43.63735" lon="6.80004">
        <ele>375.799988</ele>
        <time>2013-05-15T09:23:25Z</time>
      </trkpt>
      <trkpt lat="43.63736" lon="6.80005">
        <ele>376</ele>
        <time>2013-05-15T09:23:26Z</time>
      </trkpt>
      <trkpt lat="43.63746" lon="6.80023">
        <ele>380.600006</ele>
        <time>2013-05-15T09:23:54Z</time>
      </trkpt>
      <trkpt lat="43.6375" lon="6.80034">
        <ele>386.299988</ele>
        <time>2013-05-15T09:24:37Z</time>
      </trkpt>
      <trkpt lat="43.63751" lon="6.80034">
        <ele>386.399994</ele>
        <time>2013-05-15T09:24:38Z</time>
      </trkpt>
      <trkpt lat="43.63762" lon="6.80051">
        <ele>390.200012</ele>
        <time>2013-05-15T09:25:05Z</time>
      </trkpt>
      <trkpt lat="43.63768" lon="6.80059">
        <ele>392.299988</ele>
        <time>2013-05-15T09:25:29Z</time>
      </trkpt>
      <trkpt lat="43.63772" lon="6.80069">
        <ele>392.899994</ele>
        <time>2013-05-15T09:25:44Z</time>
      </trkpt>
      <trkpt lat="43.63773" lon="6.8007">
        <ele>392.799988</ele>
        <time>2013-05-15T09:25:45Z</time>
      </trkpt>
      <trkpt lat="43.63787" lon="6.8008">
        <ele>395.600006</ele>
        <time>2013-05-15T09:26:00Z</time>
      </trkpt>
      <trkpt lat="43.63794" lon="6.80087">
        <ele>396.799988</ele>
        <time>2013-05-15T09:26:11Z</time>
      </trkpt>
      <trkpt lat="43.63802" lon="6.80093">
        <ele>398.100006</ele>
        <time>2013-05-15T09:26:23Z</time>
      </trkpt>
      <trkpt lat="43.63809" lon="6.80098">
        <ele>399.899994</ele>
        <time>2013-05-15T09:26:34Z</time>
      </trkpt>
      <trkpt lat="43.63815" lon="6.80107">
        <ele>401</ele>
        <time>2013-05-15T09:26:44Z</time>
      </trkpt>
      <trkpt lat="43.6382" lon="6.80117">
        <ele>401.600006</ele>
        <time>2013-05-15T09:26:55Z</time>
      </trkpt>
      <trkpt lat="43.6382" lon="6.80118">
        <ele>401.700012</ele>
        <time>2013-05-15T09:26:56Z</time>
      </trkpt>
      <trkpt lat="43.63828" lon="6.80137">
        <ele>402.600006</ele>
        <time>2013-05-15T09:27:37Z</time>
      </trkpt>
      <trkpt lat="43.63834" lon="6.80145">
        <ele>403.200012</ele>
        <time>2013-05-15T09:27:48Z</time>
      </trkpt>
      <trkpt lat="43.63842" lon="6.80147">
        <ele>404.200012</ele>
        <time>2013-05-15T09:27:54Z</time>
      </trkpt>
      <trkpt lat="43.6385" lon="6.80153">
        <ele>404.899994</ele>
        <time>2013-05-15T09:28:02Z</time>
      </trkpt>
      <trkpt lat="43.63851" lon="6.80153">
        <ele>405.100006</ele>
        <time>2013-05-15T09:28:03Z</time>
      </trkpt>
      <trkpt lat="43.63866" lon="6.80159">
        <ele>407.399994</ele>
        <time>2013-05-15T09:28:19Z</time>
      </trkpt>
      <trkpt lat="43.63874" lon="6.80161">
        <ele>409.200012</ele>
        <time>2013-05-15T09:28:30Z</time>
      </trkpt>
      <trkpt lat="43.63882" lon="6.80165">
        <ele>411.200012</ele>
        <time>2013-05-15T09:28:41Z</time>
      </trkpt>
      <trkpt lat="43.6389" lon="6.80162">
        <ele>412.200012</ele>
        <time>2013-05-15T09:28:49Z</time>
      </trkpt>
      <trkpt lat="43.63898" lon="6.80159">
        <ele>412.799988</ele>
        <time>2013-05-15T09:28:55Z</time>
      </trkpt>
      <trkpt lat="43.63905" lon="6.80153">
        <ele>413.899994</ele>
        <time>2013-05-15T09:29:03Z</time>
      </trkpt>
      <trkpt lat="43.63906" lon="6.80152">
        <ele>414</ele>
        <time>2013-05-15T09:29:04Z</time>
      </trkpt>
      <trkpt lat="43.6392" lon="6.80143">
        <ele>416.399994</ele>
        <time>2013-05-15T09:29:26Z</time>
      </trkpt>
      <trkpt lat="43.63928" lon="6.80141">
        <ele>417.299988</ele>
        <time>2013-05-15T09:29:33Z</time>
      </trkpt>
      <trkpt lat="43.63936" lon="6.80137">
        <ele>417.799988</ele>
        <time>2013-05-15T09:29:42Z</time>
      </trkpt>
      <trkpt lat="43.63943" lon="6.80132">
        <ele>419.600006</ele>
        <time>2013-05-15T09:29:53Z</time>
      </trkpt>
      <trkpt lat="43.63951" lon="6.80127">
        <ele>421.399994</ele>
        <time>2013-05-15T09:30:01Z</time>
      </trkpt>
      <trkpt lat="43.63958" lon="6.80122">
        <ele>422.299988</ele>
        <time>2013-05-15T09:30:10Z</time>
      </trkpt>
      <trkpt lat="43.63959" lon="6.80121">
        <ele>422.5</ele>
        <time>2013-05-15T09:30:11Z</time>
      </trkpt>
      <trkpt lat="43.63974" lon="6.80113">
        <ele>424.5</ele>
        <time>2013-05-15T09:30:33Z</time>
      </trkpt>
      <trkpt lat="43.63981" lon="6.80107">
        <ele>427.200012</ele>
        <time>2013-05-15T09:30:46Z</time>
      </trkpt>
      <trkpt lat="43.63988" lon="6.80099">
        <ele>428.399994</ele>
        <time>2013-05-15T09:30:55Z</time>
      </trkpt>
      <trkpt lat="43.63996" lon="6.80096">
        <ele>429.899994</ele>
        <time>2013-05-15T09:31:07Z</time>
      </trkpt>
      <trkpt lat="43.64004" lon="6.80092">
        <ele>431.299988</ele>
        <time>2013-05-15T09:31:19Z</time>
      </trkpt>
      <trkpt lat="43.64005" lon="6.80092">
        <ele>431.299988</ele>
        <time>2013-05-15T09:31:20Z</time>
      </trkpt>
      <trkpt lat="43.64021" lon="6.80091">
        <ele>435.100006</ele>
        <time>2013-05-15T09:31:45Z</time>
      </trkpt>
      <trkpt lat="43.64028" lon="6.80085">
        <ele>435.799988</ele>
        <time>2013-05-15T09:32:15Z</time>
      </trkpt>
      <trkpt lat="43.64036" lon="6.80083">
        <ele>437.5</ele>
        <time>2013-05-15T09:32:25Z</time>
      </trkpt>
      <trkpt lat="43.64037" lon="6.80082">
        <ele>437.899994</ele>
        <time>2013-05-15T09:32:26Z</time>
      </trkpt>
      <trkpt lat="43.64052" lon="6.80074">
        <ele>442</ele>
        <time>2013-05-15T09:32:47Z</time>
      </trkpt>
      <trkpt lat="43.6406" lon="6.80068">
        <ele>443.200012</ele>
        <time>2013-05-15T09:32:59Z</time>
      </trkpt>
      <trkpt lat="43.64068" lon="6.80063">
        <ele>444</ele>
        <time>2013-05-15T09:33:11Z</time>
      </trkpt>
      <trkpt lat="43.64076" lon="6.80057">
        <ele>446.299988</ele>
        <time>2013-05-15T09:33:21Z</time>
      </trkpt>
      <trkpt lat="43.64084" lon="6.80051">
        <ele>448.100006</ele>
        <time>2013-05-15T09:33:32Z</time>
      </trkpt>
      <trkpt lat="43.64085" lon="6.80051">
        <ele>448.200012</ele>
        <time>2013-05-15T09:33:33Z</time>
      </trkpt>
      <trkpt lat="43.64098" lon="6.80037">
        <ele>450.299988</ele>
        <time>2013-05-15T09:35:08Z</time>
      </trkpt>
      <trkpt lat="43.64098" lon="6.80036">
        <ele>450.5</ele>
        <time>2013-05-15T09:35:09Z</time>
      </trkpt>
      <trkpt lat="43.64107" lon="6.80016">
        <ele>451</ele>
        <time>2013-05-15T09:36:06Z</time>
      </trkpt>
      <trkpt lat="43.64112" lon="6.80007">
        <ele>451.399994</ele>
        <time>2013-05-15T09:36:14Z</time>
      </trkpt>
      <trkpt lat="43.64112" lon="6.80006">
        <ele>451.5</ele>
        <time>2013-05-15T09:36:15Z</time>
      </trkpt>
      <trkpt lat="43.6412" lon="6.79987">
        <ele>451.700012</ele>
        <time>2013-05-15T09:36:28Z</time>
      </trkpt>
      <trkpt lat="43.64125" lon="6.79979">
        <ele>452.200012</ele>
        <time>2013-05-15T09:36:33Z</time>
      </trkpt>
      <trkpt lat="43.64133" lon="6.79973">
        <ele>453</ele>
        <time>2013-05-15T09:36:43Z</time>
      </trkpt>
      <trkpt lat="43.6414" lon="6.79967">
        <ele>453.799988</ele>
        <time>2013-05-15T09:36:50Z</time>
      </trkpt>
      <trkpt lat="43.64146" lon="6.7996">
        <ele>454.399994</ele>
        <time>2013-05-15T09:36:59Z</time>
      </trkpt>
      <trkpt lat="43.64153" lon="6.79951">
        <ele>454.700012</ele>
        <time>2013-05-15T09:37:09Z</time>
      </trkpt>
      <trkpt lat="43.64159" lon="6.79944">
        <ele>454.700012</ele>
        <time>2013-05-15T09:37:19Z</time>
      </trkpt>
      <trkpt lat="43.6416" lon="6.79944">
        <ele>454.700012</ele>
        <time>2013-05-15T09:37:20Z</time>
      </trkpt>
      <trkpt lat="43.64175" lon="6.79935">
        <ele>457.399994</ele>
        <time>2013-05-15T09:37:40Z</time>
      </trkpt>
      <trkpt lat="43.64182" lon="6.79929">
        <ele>458.799988</ele>
        <time>2013-05-15T09:37:56Z</time>
      </trkpt>
      <trkpt lat="43.6419" lon="6.79923">
        <ele>460.600006</ele>
        <time>2013-05-15T09:38:06Z</time>
      </trkpt>
      <trkpt lat="43.64196" lon="6.79916">
        <ele>462.100006</ele>
        <time>2013-05-15T09:38:16Z</time>
      </trkpt>
      <trkpt lat="43.64203" lon="6.79909">
        <ele>463.799988</ele>
        <time>2013-05-15T09:38:26Z</time>
      </trkpt>
      <trkpt lat="43.64203" lon="6.79908">
        <ele>464.200012</ele>
        <time>2013-05-15T09:38:27Z</time>
      </trkpt>
      <trkpt lat="43.6422" lon="6.79905">
        <ele>464.299988</ele>
        <time>2013-05-15T09:39:33Z</time>
      </trkpt>
      <trkpt lat="43.64221" lon="6.79905">
        <ele>464.399994</ele>
        <time>2013-05-15T09:39:34Z</time>
      </trkpt>
      <trkpt lat="43.64237" lon="6.79911">
        <ele>466</ele>
        <time>2013-05-15T09:39:52Z</time>
      </trkpt>
      <trkpt lat="43.64245" lon="6.79915">
        <ele>466.200012</ele>
        <time>2013-05-15T09:39:59Z</time>
      </trkpt>
      <trkpt lat="43.64253" lon="6.79916">
        <ele>466.899994</ele>
        <time>2013-05-15T09:40:07Z</time>
      </trkpt>
      <trkpt lat="43.64261" lon="6.79916">
        <ele>467.5</ele>
        <time>2013-05-15T09:40:16Z</time>
      </trkpt>
      <trkpt lat="43.64269" lon="6.79918">
        <ele>468.399994</ele>
        <time>2013-05-15T09:40:23Z</time>
      </trkpt>
      <trkpt lat="43.64277" lon="6.79917">
        <ele>469.200012</ele>
        <time>2013-05-15T09:40:33Z</time>
      </trkpt>
      <trkpt lat="43.64285" lon="6.79917">
        <ele>470.5</ele>
        <time>2013-05-15T09:40:42Z</time>
      </trkpt>
      <trkpt lat="43.64286" lon="6.79916">
        <ele>470.5</ele>
        <time>2013-05-15T09:40:43Z</time>
      </trkpt>
      <trkpt lat="43.64301" lon="6.79907">
        <ele>472.100006</ele>
        <time>2013-05-15T09:41:01Z</time>
      </trkpt>
      <trkpt lat="43.64308" lon="6.79908">
        <ele>472.299988</ele>
        <time>2013-05-15T09:41:08Z</time>
      </trkpt>
      <trkpt lat="43.64316" lon="6.79905">
        <ele>472.600006</ele>
        <time>2013-05-15T09:41:15Z</time>
      </trkpt>
      <trkpt lat="43.64323" lon="6.799">
        <ele>473.100006</ele>
        <time>2013-05-15T09:41:22Z</time>
      </trkpt>
      <trkpt lat="43.64328" lon="6.79893">
        <ele>473.5</ele>
        <time>2013-05-15T09:41:28Z</time>
      </trkpt>
      <trkpt lat="43.64334" lon="6.79887">
        <ele>474.100006</ele>
        <time>2013-05-15T09:41:35Z</time>
      </trkpt>
      <trkpt lat="43.64339" lon="6.79878">
        <ele>474.700012</ele>
        <time>2013-05-15T09:41:41Z</time>
      </trkpt>
      <trkpt lat="43.64344" lon="6.79869">
        <ele>474.700012</ele>
        <time>2013-05-15T09:41:49Z</time>
      </trkpt>
      <trkpt lat="43.64345" lon="6.79867">
        <ele>474.700012</ele>
        <time>2013-05-15T09:41:50Z</time>
      </trkpt>
      <trkpt lat="43.64353" lon="6.79849">
        <ele>475.899994</ele>
        <time>2013-05-15T09:42:04Z</time>
      </trkpt>
      <trkpt lat="43.64358" lon="6.7984">
        <ele>476.5</ele>
        <time>2013-05-15T09:42:12Z</time>
      </trkpt>
      <trkpt lat="43.64363" lon="6.79831">
        <ele>477</ele>
        <time>2013-05-15T09:42:20Z</time>
      </trkpt>
      <trkpt lat="43.6437" lon="6.79825">
        <ele>477</ele>
        <time>2013-05-15T09:42:28Z</time>
      </trkpt>
      <trkpt lat="43.64377" lon="6.7982">
        <ele>477.200012</ele>
        <time>2013-05-15T09:42:35Z</time>
      </trkpt>
      <trkpt lat="43.64384" lon="6.79813">
        <ele>475.899994</ele>
        <time>2013-05-15T09:42:42Z</time>
      </trkpt>
      <trkpt lat="43.64392" lon="6.79807">
        <ele>475.799988</ele>
        <time>2013-05-15T09:42:49Z</time>
      </trkpt>
      <trkpt lat="43.644" lon="6.79803">
        <ele>475</ele>
        <time>2013-05-15T09:42:58Z</time>
      </trkpt>
      <trkpt lat="43.64401" lon="6.79802">
        <ele>474.899994</ele>
        <time>2013-05-15T09:42:59Z</time>
      </trkpt>
      <trkpt lat="43.64416" lon="6.79796">
        <ele>474.5</ele>
        <time>2013-05-15T09:43:08Z</time>
      </trkpt>
      <trkpt lat="43.64424" lon="6.798">
        <ele>475.5</ele>
        <time>2013-05-15T09:43:15Z</time>
      </trkpt>
      <trkpt lat="43.64432" lon="6.79804">
        <ele>476</ele>
        <time>2013-05-15T09:43:21Z</time>
      </trkpt>
      <trkpt lat="43.64439" lon="6.79806">
        <ele>476.5</ele>
        <time>2013-05-15T09:43:26Z</time>
      </trkpt>
      <trkpt lat="43.64447" lon="6.79809">
        <ele>477</ele>
        <time>2013-05-15T09:43:33Z</time>
      </trkpt>
      <trkpt lat="43.64456" lon="6.79812">
        <ele>477.799988</ele>
        <time>2013-05-15T09:43:44Z</time>
      </trkpt>
      <trkpt lat="43.64463" lon="6.79819">
        <ele>478.600006</ele>
        <time>2013-05-15T09:43:54Z</time>
      </trkpt>
      <trkpt lat="43.64471" lon="6.7982">
        <ele>478.100006</ele>
        <time>2013-05-15T09:44:02Z</time>
      </trkpt>
      <trkpt lat="43.64472" lon="6.7982">
        <ele>478.100006</ele>
        <time>2013-05-15T09:44:03Z</time>
      </trkpt>
      <trkpt lat="43.64488" lon="6.79818">
        <ele>477.899994</ele>
        <time>2013-05-15T09:44:15Z</time>
      </trkpt>
      <trkpt lat="43.64496" lon="6.79821">
        <ele>478.299988</ele>
        <time>2013-05-15T09:44:21Z</time>
      </trkpt>
      <trkpt lat="43.64504" lon="6.79824">
        <ele>478.600006</ele>
        <time>2013-05-15T09:44:28Z</time>
      </trkpt>
      <trkpt lat="43.64512" lon="6.79823">
        <ele>478.899994</ele>
        <time>2013-05-15T09:44:34Z</time>
      </trkpt>
      <trkpt lat="43.64519" lon="6.79822">
        <ele>478.399994</ele>
        <time>2013-05-15T09:44:41Z</time>
      </trkpt>
      <trkpt lat="43.64528" lon="6.79822">
        <ele>477.899994</ele>
        <time>2013-05-15T09:44:47Z</time>
      </trkpt>
      <trkpt lat="43.64536" lon="6.79821">
        <ele>478</ele>
        <time>2013-05-15T09:44:54Z</time>
      </trkpt>
      <trkpt lat="43.64545" lon="6.79823">
        <ele>477.5</ele>
        <time>2013-05-15T09:45:01Z</time>
      </trkpt>
      <trkpt lat="43.64554" lon="6.79823">
        <ele>477.700012</ele>
        <time>2013-05-15T09:45:10Z</time>
      </trkpt>
      <trkpt lat="43.64554" lon="6.79823">
        <ele>477.799988</ele>
        <time>2013-05-15T09:45:11Z</time>
      </trkpt>
      <trkpt lat="43.64567" lon="6.79816">
        <ele>477.200012</ele>
        <time>2013-05-15T09:45:31Z</time>
      </trkpt>
      <trkpt lat="43.64568" lon="6.79805">
        <ele>476.799988</ele>
        <time>2013-05-15T09:45:40Z</time>
      </trkpt>
      <trkpt lat="43.64569" lon="6.79793">
        <ele>477.600006</ele>
        <time>2013-05-15T09:45:49Z</time>
      </trkpt>
      <trkpt lat="43.64573" lon="6.79783">
        <ele>477.600006</ele>
        <time>2013-05-15T09:45:56Z</time>
      </trkpt>
      <trkpt lat="43.64575" lon="6.79772">
        <ele>477.299988</ele>
        <time>2013-05-15T09:46:04Z</time>
      </trkpt>
      <trkpt lat="43.64576" lon="6.7976">
        <ele>477.899994</ele>
        <time>2013-05-15T09:46:14Z</time>
      </trkpt>
      <trkpt lat="43.64577" lon="6.79759">
        <ele>477.899994</ele>
        <time>2013-05-15T09:46:15Z</time>
      </trkpt>
      <trkpt lat="43.64583" lon="6.79738">
        <ele>478.399994</ele>
        <time>2013-05-15T09:46:31Z</time>
      </trkpt>
      <trkpt lat="43.64588" lon="6.7973">
        <ele>478.600006</ele>
        <time>2013-05-15T09:46:39Z</time>
      </trkpt>
      <trkpt lat="43.64592" lon="6.79719">
        <ele>479.100006</ele>
        <time>2013-05-15T09:46:47Z</time>
      </trkpt>
      <trkpt lat="43.64599" lon="6.79711">
        <ele>479.899994</ele>
        <time>2013-05-15T09:46:56Z</time>
      </trkpt>
      <trkpt lat="43.64604" lon="6.79702">
        <ele>480.200012</ele>
        <time>2013-05-15T09:47:05Z</time>
      </trkpt>
      <trkpt lat="43.6461" lon="6.79694">
        <ele>480.700012</ele>
        <time>2013-05-15T09:47:13Z</time>
      </trkpt>
      <trkpt lat="43.64615" lon="6.79684">
        <ele>481.299988</ele>
        <time>2013-05-15T09:47:21Z</time>
      </trkpt>
      <trkpt lat="43.64616" lon="6.79683">
        <ele>481.299988</ele>
        <time>2013-05-15T09:47:22Z</time>
      </trkpt>
      <trkpt lat="43.64627" lon="6.79669">
        <ele>481.799988</ele>
        <time>2013-05-15T09:47:36Z</time>
      </trkpt>
      <trkpt lat="43.64633" lon="6.79663">
        <ele>481.200012</ele>
        <time>2013-05-15T09:47:44Z</time>
      </trkpt>
      <trkpt lat="43.64641" lon="6.79658">
        <ele>481.200012</ele>
        <time>2013-05-15T09:47:50Z</time>
      </trkpt>
      <trkpt lat="43.64649" lon="6.79654">
        <ele>481.100006</ele>
        <time>2013-05-15T09:47:58Z</time>
      </trkpt>
      <trkpt lat="43.64656" lon="6.79648">
        <ele>481.299988</ele>
        <time>2013-05-15T09:48:05Z</time>
      </trkpt>
      <trkpt lat="43.64662" lon="6.79641">
        <ele>481.100006</ele>
        <time>2013-05-15T09:48:13Z</time>
      </trkpt>
      <trkpt lat="43.64669" lon="6.79634">
        <ele>481.600006</ele>
        <time>2013-05-15T09:48:16Z</time>
      </trkpt>
      <trkpt lat="43.64675" lon="6.79626">
        <ele>481.100006</ele>
        <time>2013-05-15T09:48:25Z</time>
      </trkpt>
      <trkpt lat="43.64676" lon="6.79626">
        <ele>480.700012</ele>
        <time>2013-05-15T09:48:26Z</time>
      </trkpt>
      <trkpt lat="43.64685" lon="6.79607">
        <ele>481.799988</ele>
        <time>2013-05-15T09:48:40Z</time>
      </trkpt>
      <trkpt lat="43.64691" lon="6.796">
        <ele>482.100006</ele>
        <time>2013-05-15T09:48:48Z</time>
      </trkpt>
      <trkpt lat="43.64698" lon="6.79592">
        <ele>482.200012</ele>
        <time>2013-05-15T09:48:56Z</time>
      </trkpt>
      <trkpt lat="43.64704" lon="6.79584">
        <ele>482.200012</ele>
        <time>2013-05-15T09:49:04Z</time>
      </trkpt>
      <trkpt lat="43.6471" lon="6.79577">
        <ele>482.899994</ele>
        <time>2013-05-15T09:49:12Z</time>
      </trkpt>
      <trkpt lat="43.64716" lon="6.79568">
        <ele>483.5</ele>
        <time>2013-05-15T09:49:21Z</time>
      </trkpt>
      <trkpt lat="43.64721" lon="6.79558">
        <ele>484.100006</ele>
        <time>2013-05-15T09:49:30Z</time>
      </trkpt>
      <trkpt lat="43.64722" lon="6.79557">
        <ele>484.200012</ele>
        <time>2013-05-15T09:49:31Z</time>
      </trkpt>
      <trkpt lat="43.6473" lon="6.79539">
        <ele>486.200012</ele>
        <time>2013-05-15T09:49:48Z</time>
      </trkpt>
      <trkpt lat="43.64734" lon="6.79529">
        <ele>487.5</ele>
        <time>2013-05-15T09:49:57Z</time>
      </trkpt>
      <trkpt lat="43.64739" lon="6.7952">
        <ele>488.5</ele>
        <time>2013-05-15T09:50:06Z</time>
      </trkpt>
      <trkpt lat="43.64743" lon="6.7951">
        <ele>489.200012</ele>
        <time>2013-05-15T09:50:15Z</time>
      </trkpt>
      <trkpt lat="43.64746" lon="6.79499">
        <ele>490.200012</ele>
        <time>2013-05-15T09:50:24Z</time>
      </trkpt>
      <trkpt lat="43.64749" lon="6.79488">
        <ele>490.299988</ele>
        <time>2013-05-15T09:50:31Z</time>
      </trkpt>
      <trkpt lat="43.64749" lon="6.79486">
        <ele>490.399994</ele>
        <time>2013-05-15T09:50:32Z</time>
      </trkpt>
      <trkpt lat="43.64747" lon="6.79464">
        <ele>491</ele>
        <time>2013-05-15T09:50:42Z</time>
      </trkpt>
      <trkpt lat="43.64753" lon="6.79457">
        <ele>491.600006</ele>
        <time>2013-05-15T09:50:49Z</time>
      </trkpt>
      <trkpt lat="43.64761" lon="6.79451">
        <ele>492.100006</ele>
        <time>2013-05-15T09:50:57Z</time>
      </trkpt>
      <trkpt lat="43.64767" lon="6.79443">
        <ele>492.399994</ele>
        <time>2013-05-15T09:51:07Z</time>
      </trkpt>
      <trkpt lat="43.64775" lon="6.79442">
        <ele>492.799988</ele>
        <time>2013-05-15T09:51:14Z</time>
      </trkpt>
      <trkpt lat="43.64783" lon="6.79443">
        <ele>492.700012</ele>
        <time>2013-05-15T09:51:20Z</time>
      </trkpt>
      <trkpt lat="43.64791" lon="6.79443">
        <ele>492.200012</ele>
        <time>2013-05-15T09:51:28Z</time>
      </trkpt>
      <trkpt lat="43.64798" lon="6.79438">
        <ele>491.899994</ele>
        <time>2013-05-15T09:51:35Z</time>
      </trkpt>
      <trkpt lat="43.64799" lon="6.79436">
        <ele>491.899994</ele>
        <time>2013-05-15T09:51:36Z</time>
      </trkpt>
      <trkpt lat="43.6481" lon="6.79422">
        <ele>491.200012</ele>
        <time>2013-05-15T09:52:10Z</time>
      </trkpt>
      <trkpt lat="43.64815" lon="6.79413">
        <ele>490.5</ele>
        <time>2013-05-15T09:52:39Z</time>
      </trkpt>
      <trkpt lat="43.64816" lon="6.79413">
        <ele>490.299988</ele>
        <time>2013-05-15T09:52:40Z</time>
      </trkpt>
      <trkpt lat="43.6483" lon="6.79404">
        <ele>489.5</ele>
        <time>2013-05-15T09:52:59Z</time>
      </trkpt>
      <trkpt lat="43.64837" lon="6.79397">
        <ele>488.100006</ele>
        <time>2013-05-15T09:53:05Z</time>
      </trkpt>
      <trkpt lat="43.64845" lon="6.79393">
        <ele>487.100006</ele>
        <time>2013-05-15T09:53:12Z</time>
      </trkpt>
      <trkpt lat="43.64849" lon="6.79382">
        <ele>486.5</ele>
        <time>2013-05-15T09:53:19Z</time>
      </trkpt>
      <trkpt lat="43.64857" lon="6.79376">
        <ele>485.899994</ele>
        <time>2013-05-15T09:53:25Z</time>
      </trkpt>
      <trkpt lat="43.64864" lon="6.79372">
        <ele>485.5</ele>
        <time>2013-05-15T09:53:31Z</time>
      </trkpt>
      <trkpt lat="43.64872" lon="6.79367">
        <ele>485.5</ele>
        <time>2013-05-15T09:53:37Z</time>
      </trkpt>
      <trkpt lat="43.64877" lon="6.79357">
        <ele>484.5</ele>
        <time>2013-05-15T09:53:45Z</time>
      </trkpt>
      <trkpt lat="43.64877" lon="6.79356">
        <ele>484.5</ele>
        <time>2013-05-15T09:53:46Z</time>
      </trkpt>
      <trkpt lat="43.64888" lon="6.7934">
        <ele>483.100006</ele>
        <time>2013-05-15T09:54:01Z</time>
      </trkpt>
      <trkpt lat="43.64894" lon="6.79332">
        <ele>482.799988</ele>
        <time>2013-05-15T09:54:19Z</time>
      </trkpt>
      <trkpt lat="43.649" lon="6.79325">
        <ele>482.799988</ele>
        <time>2013-05-15T09:54:26Z</time>
      </trkpt>
      <trkpt lat="43.64903" lon="6.79313">
        <ele>481.600006</ele>
        <time>2013-05-15T09:54:31Z</time>
      </trkpt>
      <trkpt lat="43.64909" lon="6.79304">
        <ele>481.399994</ele>
        <time>2013-05-15T09:54:44Z</time>
      </trkpt>
      <trkpt lat="43.64916" lon="6.79296">
        <ele>480.5</ele>
        <time>2013-05-15T09:55:01Z</time>
      </trkpt>
      <trkpt lat="43.64916" lon="6.79296">
        <ele>480.5</ele>
        <time>2013-05-15T09:55:02Z</time>
      </trkpt>
      <trkpt lat="43.64932" lon="6.79297">
        <ele>480.399994</ele>
        <time>2013-05-15T09:55:14Z</time>
      </trkpt>
      <trkpt lat="43.64941" lon="6.79296">
        <ele>480.299988</ele>
        <time>2013-05-15T09:55:19Z</time>
      </trkpt>
      <trkpt lat="43.64949" lon="6.79293">
        <ele>480</ele>
        <time>2013-05-15T09:55:27Z</time>
      </trkpt>
      <trkpt lat="43.6495" lon="6.79282">
        <ele>479.700012</ele>
        <time>2013-05-15T09:56:08Z</time>
      </trkpt>
      <trkpt lat="43.64952" lon="6.79281">
        <ele>479.399994</ele>
        <time>2013-05-15T09:56:09Z</time>
      </trkpt>
      <trkpt lat="43.64965" lon="6.79276">
        <ele>479.600006</ele>
        <time>2013-05-15T09:56:18Z</time>
      </trkpt>
      <trkpt lat="43.64972" lon="6.79269">
        <ele>479</ele>
        <time>2013-05-15T09:56:25Z</time>
      </trkpt>
      <trkpt lat="43.64975" lon="6.79253">
        <ele>481.299988</ele>
        <time>2013-05-15T11:04:02Z</time>
      </trkpt>
      <trkpt lat="43.64976" lon="6.79242">
        <ele>481.799988</ele>
        <time>2013-05-15T11:04:06Z</time>
      </trkpt>
      <trkpt lat="43.64982" lon="6.79233">
        <ele>481.899994</ele>
        <time>2013-05-15T11:04:17Z</time>
      </trkpt>
      <trkpt lat="43.64979" lon="6.79221">
        <ele>478.799988</ele>
        <time>2013-05-15T11:04:59Z</time>
      </trkpt>
      <trkpt lat="43.64978" lon="6.79219">
        <ele>478.799988</ele>
        <time>2013-05-15T11:05:00Z</time>
      </trkpt>
      <trkpt lat="43.64964" lon="6.79206">
        <ele>475</ele>
        <time>2013-05-15T11:05:51Z</time>
      </trkpt>
      <trkpt lat="43.64971" lon="6.792">
        <ele>476.100006</ele>
        <time>2013-05-15T11:06:03Z</time>
      </trkpt>
      <trkpt lat="43.64972" lon="6.79198">
        <ele>475.799988</ele>
        <time>2013-05-15T11:06:04Z</time>
      </trkpt>
      <trkpt lat="43.64984" lon="6.79182">
        <ele>473</ele>
        <time>2013-05-15T11:06:15Z</time>
      </trkpt>
      <trkpt lat="43.64987" lon="6.79172">
        <ele>473.200012</ele>
        <time>2013-05-15T11:06:22Z</time>
      </trkpt>
      <trkpt lat="43.64993" lon="6.79164">
        <ele>473.200012</ele>
        <time>2013-05-15T11:06:26Z</time>
      </trkpt>
      <trkpt lat="43.65001" lon="6.79158">
        <ele>471.399994</ele>
        <time>2013-05-15T11:06:36Z</time>
      </trkpt>
      <trkpt lat="43.65002" lon="6.79146">
        <ele>469.899994</ele>
        <time>2013-05-15T11:06:43Z</time>
      </trkpt>
      <trkpt lat="43.65003" lon="6.79134">
        <ele>468.700012</ele>
        <time>2013-05-15T11:06:52Z</time>
      </trkpt>
      <trkpt lat="43.65005" lon="6.79123">
        <ele>468.299988</ele>
        <time>2013-05-15T11:07:19Z</time>
      </trkpt>
      <trkpt lat="43.65006" lon="6.7912">
        <ele>468.299988</ele>
        <time>2013-05-15T11:07:20Z</time>
      </trkpt>
      <trkpt lat="43.65023" lon="6.79114">
        <ele>467</ele>
        <time>2013-05-15T11:07:45Z</time>
      </trkpt>
      <trkpt lat="43.6503" lon="6.79108">
        <ele>467.899994</ele>
        <time>2013-05-15T11:07:54Z</time>
      </trkpt>
      <trkpt lat="43.65038" lon="6.79101">
        <ele>466.899994</ele>
        <time>2013-05-15T11:08:06Z</time>
      </trkpt>
      <trkpt lat="43.65046" lon="6.79102">
        <ele>464.600006</ele>
        <time>2013-05-15T11:08:15Z</time>
      </trkpt>
      <trkpt lat="43.65054" lon="6.79107">
        <ele>464.600006</ele>
        <time>2013-05-15T11:08:24Z</time>
      </trkpt>
      <trkpt lat="43.65055" lon="6.79107">
        <ele>464.799988</ele>
        <time>2013-05-15T11:08:25Z</time>
      </trkpt>
      <trkpt lat="43.65071" lon="6.79109">
        <ele>462.299988</ele>
        <time>2013-05-15T11:08:47Z</time>
      </trkpt>
      <trkpt lat="43.65077" lon="6.79102">
        <ele>460.799988</ele>
        <time>2013-05-15T11:09:09Z</time>
      </trkpt>
      <trkpt lat="43.65086" lon="6.79104">
        <ele>459.5</ele>
        <time>2013-05-15T11:09:51Z</time>
      </trkpt>
      <trkpt lat="43.65086" lon="6.79104">
        <ele>459.799988</ele>
        <time>2013-05-15T11:09:52Z</time>
      </trkpt>
      <trkpt lat="43.651" lon="6.79098">
        <ele>456.200012</ele>
        <time>2013-05-15T11:10:04Z</time>
      </trkpt>
      <trkpt lat="43.65108" lon="6.79095">
        <ele>455.700012</ele>
        <time>2013-05-15T11:10:13Z</time>
      </trkpt>
      <trkpt lat="43.65117" lon="6.79094">
        <ele>453.899994</ele>
        <time>2013-05-15T11:10:22Z</time>
      </trkpt>
      <trkpt lat="43.65124" lon="6.79088">
        <ele>453.200012</ele>
        <time>2013-05-15T11:10:29Z</time>
      </trkpt>
      <trkpt lat="43.65132" lon="6.79082">
        <ele>452</ele>
        <time>2013-05-15T11:10:36Z</time>
      </trkpt>
      <trkpt lat="43.6514" lon="6.79078">
        <ele>450.5</ele>
        <time>2013-05-15T11:10:44Z</time>
      </trkpt>
      <trkpt lat="43.65147" lon="6.79072">
        <ele>449.5</ele>
        <time>2013-05-15T11:10:52Z</time>
      </trkpt>
      <trkpt lat="43.65148" lon="6.7907">
        <ele>449.200012</ele>
        <time>2013-05-15T11:10:53Z</time>
      </trkpt>
      <trkpt lat="43.6516" lon="6.79058">
        <ele>447.700012</ele>
        <time>2013-05-15T11:11:09Z</time>
      </trkpt>
      <trkpt lat="43.65169" lon="6.79061">
        <ele>446.700012</ele>
        <time>2013-05-15T11:11:20Z</time>
      </trkpt>
      <trkpt lat="43.65177" lon="6.79057">
        <ele>444.899994</ele>
        <time>2013-05-15T11:11:33Z</time>
      </trkpt>
      <trkpt lat="43.65185" lon="6.79054">
        <ele>444.299988</ele>
        <time>2013-05-15T11:11:43Z</time>
      </trkpt>
      <trkpt lat="43.65193" lon="6.7905">
        <ele>441.5</ele>
        <time>2013-05-15T11:11:56Z</time>
      </trkpt>
      <trkpt lat="43.65193" lon="6.79048">
        <ele>441.100006</ele>
        <time>2013-05-15T11:11:57Z</time>
      </trkpt>
      <trkpt lat="43.65208" lon="6.7904">
        <ele>439.200012</ele>
        <time>2013-05-15T11:12:18Z</time>
      </trkpt>
      <trkpt lat="43.65216" lon="6.79037">
        <ele>436.399994</ele>
        <time>2013-05-15T11:12:39Z</time>
      </trkpt>
      <trkpt lat="43.65224" lon="6.79034">
        <ele>434.600006</ele>
        <time>2013-05-15T11:12:50Z</time>
      </trkpt>
      <trkpt lat="43.65233" lon="6.7903">
        <ele>433.5</ele>
        <time>2013-05-15T11:13:07Z</time>
      </trkpt>
      <trkpt lat="43.65234" lon="6.7903">
        <ele>433.100006</ele>
        <time>2013-05-15T11:13:08Z</time>
      </trkpt>
      <trkpt lat="43.65249" lon="6.79028">
        <ele>432</ele>
        <time>2013-05-15T11:13:33Z</time>
      </trkpt>
      <trkpt lat="43.65257" lon="6.79022">
        <ele>429.399994</ele>
        <time>2013-05-15T11:13:45Z</time>
      </trkpt>
      <trkpt lat="43.6526" lon="6.79011">
        <ele>428.899994</ele>
        <time>2013-05-15T11:13:57Z</time>
      </trkpt>
      <trkpt lat="43.65268" lon="6.79005">
        <ele>425.799988</ele>
        <time>2013-05-15T11:14:13Z</time>
      </trkpt>
      <trkpt lat="43.65269" lon="6.79005">
        <ele>425.5</ele>
        <time>2013-05-15T11:14:14Z</time>
      </trkpt>
      <trkpt lat="43.65283" lon="6.78998">
        <ele>424.399994</ele>
        <time>2013-05-15T11:14:39Z</time>
      </trkpt>
      <trkpt lat="43.65291" lon="6.78988">
        <ele>423</ele>
        <time>2013-05-15T11:14:53Z</time>
      </trkpt>
      <trkpt lat="43.65295" lon="6.78978">
        <ele>422.299988</ele>
        <time>2013-05-15T11:15:10Z</time>
      </trkpt>
      <trkpt lat="43.65301" lon="6.7897">
        <ele>421.100006</ele>
        <time>2013-05-15T11:15:20Z</time>
      </trkpt>
      <trkpt lat="43.65302" lon="6.78969">
        <ele>421.299988</ele>
        <time>2013-05-15T11:15:21Z</time>
      </trkpt>
      <trkpt lat="43.65312" lon="6.78951">
        <ele>420</ele>
        <time>2013-05-15T11:15:39Z</time>
      </trkpt>
      <trkpt lat="43.65319" lon="6.78943">
        <ele>419.100006</ele>
        <time>2013-05-15T11:15:49Z</time>
      </trkpt>
      <trkpt lat="43.65326" lon="6.78937">
        <ele>418.899994</ele>
        <time>2013-05-15T11:15:58Z</time>
      </trkpt>
      <trkpt lat="43.65332" lon="6.78927">
        <ele>418.799988</ele>
        <time>2013-05-15T11:16:06Z</time>
      </trkpt>
      <trkpt lat="43.65338" lon="6.78921">
        <ele>417.5</ele>
        <time>2013-05-15T11:16:14Z</time>
      </trkpt>
      <trkpt lat="43.65344" lon="6.78912">
        <ele>415.5</ele>
        <time>2013-05-15T11:16:26Z</time>
      </trkpt>
      <trkpt lat="43.65345" lon="6.78911">
        <ele>415.100006</ele>
        <time>2013-05-15T11:16:27Z</time>
      </trkpt>
      <trkpt lat="43.65357" lon="6.78895">
        <ele>412.899994</ele>
        <time>2013-05-15T11:16:51Z</time>
      </trkpt>
      <trkpt lat="43.65365" lon="6.78891">
        <ele>411.700012</ele>
        <time>2013-05-15T11:17:03Z</time>
      </trkpt>
      <trkpt lat="43.65372" lon="6.78884">
        <ele>410.399994</ele>
        <time>2013-05-15T11:17:12Z</time>
      </trkpt>
      <trkpt lat="43.65381" lon="6.78881">
        <ele>410.399994</ele>
        <time>2013-05-15T11:17:21Z</time>
      </trkpt>
      <trkpt lat="43.65387" lon="6.78874">
        <ele>408.600006</ele>
        <time>2013-05-15T11:17:32Z</time>
      </trkpt>
      <trkpt lat="43.65388" lon="6.78874">
        <ele>408.299988</ele>
        <time>2013-05-15T11:17:33Z</time>
      </trkpt>
      <trkpt lat="43.65399" lon="6.78859">
        <ele>405.299988</ele>
        <time>2013-05-15T11:17:57Z</time>
      </trkpt>
      <trkpt lat="43.65408" lon="6.78856">
        <ele>404.100006</ele>
        <time>2013-05-15T11:18:13Z</time>
      </trkpt>
      <trkpt lat="43.65416" lon="6.7885">
        <ele>403.799988</ele>
        <time>2013-05-15T11:18:22Z</time>
      </trkpt>
      <trkpt lat="43.65422" lon="6.78842">
        <ele>402.399994</ele>
        <time>2013-05-15T11:18:36Z</time>
      </trkpt>
      <trkpt lat="43.65422" lon="6.78841">
        <ele>402</ele>
        <time>2013-05-15T11:18:37Z</time>
      </trkpt>
      <trkpt lat="43.65438" lon="6.78837">
        <ele>400.299988</ele>
        <time>2013-05-15T11:18:56Z</time>
      </trkpt>
      <trkpt lat="43.65447" lon="6.78835">
        <ele>397</ele>
        <time>2013-05-15T11:19:07Z</time>
      </trkpt>
      <trkpt lat="43.65454" lon="6.78831">
        <ele>395.899994</ele>
        <time>2013-05-15T11:19:20Z</time>
      </trkpt>
      <trkpt lat="43.65462" lon="6.78825">
        <ele>393.799988</ele>
        <time>2013-05-15T11:19:34Z</time>
      </trkpt>
      <trkpt lat="43.6547" lon="6.78822">
        <ele>392.899994</ele>
        <time>2013-05-15T11:19:43Z</time>
      </trkpt>
      <trkpt lat="43.65472" lon="6.78822">
        <ele>393.5</ele>
        <time>2013-05-15T11:19:44Z</time>
      </trkpt>
      <trkpt lat="43.65484" lon="6.78806">
        <ele>390.799988</ele>
        <time>2013-05-15T11:20:11Z</time>
      </trkpt>
      <trkpt lat="43.6549" lon="6.78797">
        <ele>390.299988</ele>
        <time>2013-05-15T11:20:27Z</time>
      </trkpt>
      <trkpt lat="43.65497" lon="6.78789">
        <ele>388.5</ele>
        <time>2013-05-15T11:20:41Z</time>
      </trkpt>
      <trkpt lat="43.65488" lon="6.78791">
        <ele>384.600006</ele>
        <time>2013-05-15T11:21:06Z</time>
      </trkpt>
      <trkpt lat="43.65487" lon="6.7879">
        <ele>384.399994</ele>
        <time>2013-05-15T11:21:07Z</time>
      </trkpt>
      <trkpt lat="43.65494" lon="6.78772">
        <ele>380</ele>
        <time>2013-05-15T11:21:40Z</time>
      </trkpt>
      <trkpt lat="43.65501" lon="6.78765">
        <ele>378.600006</ele>
        <time>2013-05-15T11:21:52Z</time>
      </trkpt>
      <trkpt lat="43.65509" lon="6.78759">
        <ele>376.600006</ele>
        <time>2013-05-15T11:22:02Z</time>
      </trkpt>
      <trkpt lat="43.65514" lon="6.78751">
        <ele>376.200012</ele>
        <time>2013-05-15T11:22:15Z</time>
      </trkpt>
      <trkpt lat="43.65515" lon="6.7875">
        <ele>376.100006</ele>
        <time>2013-05-15T11:22:16Z</time>
      </trkpt>
      <trkpt lat="43.65529" lon="6.78737">
        <ele>374.100006</ele>
        <time>2013-05-15T11:22:36Z</time>
      </trkpt>
      <trkpt lat="43.65534" lon="6.78728">
        <ele>372</ele>
        <time>2013-05-15T11:22:46Z</time>
      </trkpt>
      <trkpt lat="43.65541" lon="6.78721">
        <ele>370.200012</ele>
        <time>2013-05-15T11:22:57Z</time>
      </trkpt>
      <trkpt lat="43.65545" lon="6.7871">
        <ele>368.299988</ele>
        <time>2013-05-15T11:23:10Z</time>
      </trkpt>
      <trkpt lat="43.6555" lon="6.78701">
        <ele>365.100006</ele>
        <time>2013-05-15T11:23:24Z</time>
      </trkpt>
      <trkpt lat="43.65551" lon="6.787">
        <ele>365.100006</ele>
        <time>2013-05-15T11:23:25Z</time>
      </trkpt>
      <trkpt lat="43.65562" lon="6.78682">
        <ele>361.600006</ele>
        <time>2013-05-15T11:23:49Z</time>
      </trkpt>
      <trkpt lat="43.65567" lon="6.78673">
        <ele>359.5</ele>
        <time>2013-05-15T11:24:05Z</time>
      </trkpt>
      <trkpt lat="43.65572" lon="6.78664">
        <ele>357.600006</ele>
        <time>2013-05-15T11:24:17Z</time>
      </trkpt>
      <trkpt lat="43.65579" lon="6.78657">
        <ele>356.399994</ele>
        <time>2013-05-15T11:24:30Z</time>
      </trkpt>
      <trkpt lat="43.65579" lon="6.78656">
        <ele>356.100006</ele>
        <time>2013-05-15T11:24:31Z</time>
      </trkpt>
      <trkpt lat="43.65592" lon="6.78642">
        <ele>352.399994</ele>
        <time>2013-05-15T11:24:54Z</time>
      </trkpt>
      <trkpt lat="43.65597" lon="6.78633">
        <ele>351.700012</ele>
        <time>2013-05-15T11:25:06Z</time>
      </trkpt>
      <trkpt lat="43.65605" lon="6.78628">
        <ele>350.700012</ele>
        <time>2013-05-15T11:25:17Z</time>
      </trkpt>
      <trkpt lat="43.65612" lon="6.7862">
        <ele>349.899994</ele>
        <time>2013-05-15T11:25:25Z</time>
      </trkpt>
      <trkpt lat="43.65618" lon="6.78611">
        <ele>347.5</ele>
        <time>2013-05-15T11:25:43Z</time>
      </trkpt>
      <trkpt lat="43.65619" lon="6.7861">
        <ele>347.600006</ele>
        <time>2013-05-15T11:25:44Z</time>
      </trkpt>
      <trkpt lat="43.65628" lon="6.78594">
        <ele>344.299988</ele>
        <time>2013-05-15T11:26:02Z</time>
      </trkpt>
      <trkpt lat="43.65633" lon="6.78584">
        <ele>343</ele>
        <time>2013-05-15T11:26:14Z</time>
      </trkpt>
      <trkpt lat="43.65638" lon="6.78574">
        <ele>341.200012</ele>
        <time>2013-05-15T11:26:35Z</time>
      </trkpt>
      <trkpt lat="43.65642" lon="6.78563">
        <ele>340</ele>
        <time>2013-05-15T11:26:49Z</time>
      </trkpt>
      <trkpt lat="43.65642" lon="6.78561">
        <ele>340</ele>
        <time>2013-05-15T11:26:50Z</time>
      </trkpt>
      <trkpt lat="43.65649" lon="6.7854">
        <ele>338.399994</ele>
        <time>2013-05-15T11:27:14Z</time>
      </trkpt>
      <trkpt lat="43.65653" lon="6.78531">
        <ele>338.299988</ele>
        <time>2013-05-15T11:27:34Z</time>
      </trkpt>
      <trkpt lat="43.6566" lon="6.78524">
        <ele>337.600006</ele>
        <time>2013-05-15T11:27:44Z</time>
      </trkpt>
      <trkpt lat="43.65654" lon="6.78515">
        <ele>337.299988</ele>
        <time>2013-05-15T11:28:56Z</time>
      </trkpt>
      <trkpt lat="43.65654" lon="6.78514">
        <ele>337</ele>
        <time>2013-05-15T11:28:57Z</time>
      </trkpt>
      <trkpt lat="43.65666" lon="6.78498">
        <ele>334.600006</ele>
        <time>2013-05-15T11:29:41Z</time>
      </trkpt>
      <trkpt lat="43.65675" lon="6.78494">
        <ele>334.100006</ele>
        <time>2013-05-15T11:29:54Z</time>
      </trkpt>
      <trkpt lat="43.6568" lon="6.78483">
        <ele>333.399994</ele>
        <time>2013-05-15T11:30:06Z</time>
      </trkpt>
      <trkpt lat="43.6568" lon="6.78483">
        <ele>333.299988</ele>
        <time>2013-05-15T11:30:07Z</time>
      </trkpt>
      <trkpt lat="43.65689" lon="6.78464">
        <ele>330.799988</ele>
        <time>2013-05-15T11:30:30Z</time>
      </trkpt>
      <trkpt lat="43.65694" lon="6.78455">
        <ele>330.5</ele>
        <time>2013-05-15T11:30:38Z</time>
      </trkpt>
      <trkpt lat="43.657" lon="6.78446">
        <ele>329.899994</ele>
        <time>2013-05-15T11:30:48Z</time>
      </trkpt>
      <trkpt lat="43.65706" lon="6.78437">
        <ele>328.299988</ele>
        <time>2013-05-15T11:31:00Z</time>
      </trkpt>
      <trkpt lat="43.65709" lon="6.78427">
        <ele>328.200012</ele>
        <time>2013-05-15T11:31:08Z</time>
      </trkpt>
      <trkpt lat="43.6571" lon="6.78426">
        <ele>328.100006</ele>
        <time>2013-05-15T11:31:09Z</time>
      </trkpt>
      <trkpt lat="43.65718" lon="6.78407">
        <ele>328.299988</ele>
        <time>2013-05-15T11:31:26Z</time>
      </trkpt>
      <trkpt lat="43.65722" lon="6.78396">
        <ele>325.799988</ele>
        <time>2013-05-15T11:31:38Z</time>
      </trkpt>
      <trkpt lat="43.65726" lon="6.78385">
        <ele>324.100006</ele>
        <time>2013-05-15T11:31:57Z</time>
      </trkpt>
      <trkpt lat="43.6573" lon="6.78375">
        <ele>323</ele>
        <time>2013-05-15T11:32:10Z</time>
      </trkpt>
      <trkpt lat="43.65731" lon="6.78374">
        <ele>323.100006</ele>
        <time>2013-05-15T11:32:11Z</time>
      </trkpt>
      <trkpt lat="43.65738" lon="6.78356">
        <ele>321.299988</ele>
        <time>2013-05-15T11:32:31Z</time>
      </trkpt>
      <trkpt lat="43.6574" lon="6.78345">
        <ele>319.299988</ele>
        <time>2013-05-15T11:32:40Z</time>
      </trkpt>
      <trkpt lat="43.65747" lon="6.78336">
        <ele>317.399994</ele>
        <time>2013-05-15T11:32:49Z</time>
      </trkpt>
      <trkpt lat="43.65753" lon="6.78329">
        <ele>316.299988</ele>
        <time>2013-05-15T11:33:00Z</time>
      </trkpt>
      <trkpt lat="43.65756" lon="6.78319">
        <ele>315</ele>
        <time>2013-05-15T11:33:10Z</time>
      </trkpt>
      <trkpt lat="43.6576" lon="6.78308">
        <ele>315.299988</ele>
        <time>2013-05-15T11:33:19Z</time>
      </trkpt>
      <trkpt lat="43.6576" lon="6.78306">
        <ele>315.100006</ele>
        <time>2013-05-15T11:33:20Z</time>
      </trkpt>
      <trkpt lat="43.65764" lon="6.78285">
        <ele>312</ele>
        <time>2013-05-15T11:33:42Z</time>
      </trkpt>
      <trkpt lat="43.65767" lon="6.78274">
        <ele>309.700012</ele>
        <time>2013-05-15T11:33:54Z</time>
      </trkpt>
      <trkpt lat="43.6577" lon="6.78263">
        <ele>308.100006</ele>
        <time>2013-05-15T11:34:08Z</time>
      </trkpt>
      <trkpt lat="43.65766" lon="6.78252">
        <ele>304.600006</ele>
        <time>2013-05-15T11:34:27Z</time>
      </trkpt>
      <trkpt lat="43.65766" lon="6.78252">
        <ele>304.799988</ele>
        <time>2013-05-15T11:34:28Z</time>
      </trkpt>
      <trkpt lat="43.65775" lon="6.78232">
        <ele>301.100006</ele>
        <time>2013-05-15T11:34:55Z</time>
      </trkpt>
      <trkpt lat="43.65777" lon="6.78221">
        <ele>300.899994</ele>
        <time>2013-05-15T11:35:05Z</time>
      </trkpt>
      <trkpt lat="43.65779" lon="6.78209">
        <ele>298.899994</ele>
        <time>2013-05-15T11:35:18Z</time>
      </trkpt>
      <trkpt lat="43.65784" lon="6.78199">
        <ele>296.799988</ele>
        <time>2013-05-15T11:37:44Z</time>
      </trkpt>
      <trkpt lat="43.65784" lon="6.78198">
        <ele>296.899994</ele>
        <time>2013-05-15T11:37:45Z</time>
      </trkpt>
      <trkpt lat="43.65794" lon="6.78179">
        <ele>295.5</ele>
        <time>2013-05-15T11:38:12Z</time>
      </trkpt>
      <trkpt lat="43.658" lon="6.7817">
        <ele>293.700012</ele>
        <time>2013-05-15T11:38:32Z</time>
      </trkpt>
      <trkpt lat="43.65805" lon="6.7816">
        <ele>292.600006</ele>
        <time>2013-05-15T11:39:07Z</time>
      </trkpt>
      <trkpt lat="43.65805" lon="6.7816">
        <ele>292.5</ele>
        <time>2013-05-15T11:39:08Z</time>
      </trkpt>
      <trkpt lat="43.65815" lon="6.7814">
        <ele>290.600006</ele>
        <time>2013-05-15T11:39:49Z</time>
      </trkpt>
      <trkpt lat="43.65806" lon="6.78137">
        <ele>289</ele>
        <time>2013-05-15T11:40:09Z</time>
      </trkpt>
      <trkpt lat="43.65805" lon="6.78137">
        <ele>289.200012</ele>
        <time>2013-05-15T11:40:10Z</time>
      </trkpt>
      <trkpt lat="43.6579" lon="6.78146">
        <ele>286.5</ele>
        <time>2013-05-15T11:40:36Z</time>
      </trkpt>
      <trkpt lat="43.65782" lon="6.78149">
        <ele>286.399994</ele>
        <time>2013-05-15T11:40:58Z</time>
      </trkpt>
      <trkpt lat="43.65774" lon="6.78151">
        <ele>284.600006</ele>
        <time>2013-05-15T11:41:10Z</time>
      </trkpt>
      <trkpt lat="43.65773" lon="6.78151">
        <ele>284.799988</ele>
        <time>2013-05-15T11:41:11Z</time>
      </trkpt>
      <trkpt lat="43.65783" lon="6.78132">
        <ele>280.899994</ele>
        <time>2013-05-15T11:41:49Z</time>
      </trkpt>
      <trkpt lat="43.65788" lon="6.78123">
        <ele>278.899994</ele>
        <time>2013-05-15T11:42:01Z</time>
      </trkpt>
      <trkpt lat="43.65796" lon="6.78117">
        <ele>278.399994</ele>
        <time>2013-05-15T11:42:15Z</time>
      </trkpt>
      <trkpt lat="43.65797" lon="6.78116">
        <ele>278.399994</ele>
        <time>2013-05-15T11:42:16Z</time>
      </trkpt>
      <trkpt lat="43.65812" lon="6.78114">
        <ele>275.5</ele>
        <time>2013-05-15T11:42:54Z</time>
      </trkpt>
      <trkpt lat="43.6581" lon="6.78102">
        <ele>272.799988</ele>
        <time>2013-05-15T11:43:11Z</time>
      </trkpt>
      <trkpt lat="43.65803" lon="6.78096">
        <ele>272.5</ele>
        <time>2013-05-15T11:43:22Z</time>
      </trkpt>
      <trkpt lat="43.65801" lon="6.78096">
        <ele>271.600006</ele>
        <time>2013-05-15T11:43:23Z</time>
      </trkpt>
      <trkpt lat="43.65787" lon="6.78087">
        <ele>267.799988</ele>
        <time>2013-05-15T11:43:50Z</time>
      </trkpt>
      <trkpt lat="43.65781" lon="6.7808">
        <ele>266.799988</ele>
        <time>2013-05-15T11:43:59Z</time>
      </trkpt>
      <trkpt lat="43.65773" lon="6.78078">
        <ele>265.700012</ele>
        <time>2013-05-15T11:44:10Z</time>
      </trkpt>
      <trkpt lat="43.65766" lon="6.78072">
        <ele>264.899994</ele>
        <time>2013-05-15T11:44:20Z</time>
      </trkpt>
      <trkpt lat="43.6576" lon="6.78063">
        <ele>263.299988</ele>
        <time>2013-05-15T11:44:35Z</time>
      </trkpt>
      <trkpt lat="43.6576" lon="6.78062">
        <ele>263.600006</ele>
        <time>2013-05-15T11:44:36Z</time>
      </trkpt>
      <trkpt lat="43.65748" lon="6.78046">
        <ele>260.600006</ele>
        <time>2013-05-15T11:44:54Z</time>
      </trkpt>
      <trkpt lat="43.65743" lon="6.78037">
        <ele>259.799988</ele>
        <time>2013-05-15T11:45:06Z</time>
      </trkpt>
      <trkpt lat="43.65737" lon="6.78028">
        <ele>258</ele>
        <time>2013-05-15T11:45:18Z</time>
      </trkpt>
      <trkpt lat="43.65733" lon="6.78018">
        <ele>257.700012</ele>
        <time>2013-05-15T11:45:29Z</time>
      </trkpt>
      <trkpt lat="43.65728" lon="6.78008">
        <ele>256</ele>
        <time>2013-05-15T11:45:43Z</time>
      </trkpt>
      <trkpt lat="43.65728" lon="6.78007">
        <ele>255.5</ele>
        <time>2013-05-15T11:45:44Z</time>
      </trkpt>
      <trkpt lat="43.65736" lon="6.77988">
        <ele>252.899994</ele>
        <time>2013-05-15T11:46:10Z</time>
      </trkpt>
      <trkpt lat="43.65744" lon="6.77984">
        <ele>250</ele>
        <time>2013-05-15T11:46:56Z</time>
      </trkpt>
      <trkpt lat="43.65745" lon="6.77984">
        <ele>250</ele>
        <time>2013-05-15T11:46:57Z</time>
      </trkpt>
      <trkpt lat="43.65757" lon="6.77999">
        <ele>248.300003</ele>
        <time>2013-05-15T11:47:13Z</time>
      </trkpt>
      <trkpt lat="43.65762" lon="6.78008">
        <ele>248.600006</ele>
        <time>2013-05-15T11:47:22Z</time>
      </trkpt>
      <trkpt lat="43.65768" lon="6.78018">
        <ele>247.199997</ele>
        <time>2013-05-15T11:47:32Z</time>
      </trkpt>
      <trkpt lat="43.65776" lon="6.7802">
        <ele>247.300003</ele>
        <time>2013-05-15T11:47:40Z</time>
      </trkpt>
      <trkpt lat="43.65782" lon="6.78013">
        <ele>246.899994</ele>
        <time>2013-05-15T11:47:50Z</time>
      </trkpt>
      <trkpt lat="43.65789" lon="6.78007">
        <ele>245.699997</ele>
        <time>2013-05-15T11:47:57Z</time>
      </trkpt>
      <trkpt lat="43.6579" lon="6.78006">
        <ele>246</ele>
        <time>2013-05-15T11:47:58Z</time>
      </trkpt>
      <trkpt lat="43.65799" lon="6.77989">
        <ele>244.5</ele>
        <time>2013-05-15T11:48:15Z</time>
      </trkpt>
      <trkpt lat="43.65805" lon="6.77981">
        <ele>243.899994</ele>
        <time>2013-05-15T11:48:24Z</time>
      </trkpt>
      <trkpt lat="43.65807" lon="6.7797">
        <ele>242.800003</ele>
        <time>2013-05-15T11:48:35Z</time>
      </trkpt>
      <trkpt lat="43.65812" lon="6.77961">
        <ele>242.100006</ele>
        <time>2013-05-15T11:48:44Z</time>
      </trkpt>
      <trkpt lat="43.65817" lon="6.77952">
        <ele>241.199997</ele>
        <time>2013-05-15T11:48:55Z</time>
      </trkpt>
      <trkpt lat="43.65819" lon="6.7794">
        <ele>240.699997</ele>
        <time>2013-05-15T11:49:06Z</time>
      </trkpt>
      <trkpt lat="43.6582" lon="6.77938">
        <ele>240.5</ele>
        <time>2013-05-15T11:49:07Z</time>
      </trkpt>
      <trkpt lat="43.65828" lon="6.7792">
        <ele>238.300003</ele>
        <time>2013-05-15T11:49:24Z</time>
      </trkpt>
      <trkpt lat="43.65836" lon="6.77923">
        <ele>236.600006</ele>
        <time>2013-05-15T11:49:42Z</time>
      </trkpt>
      <trkpt lat="43.65845" lon="6.77921">
        <ele>235.300003</ele>
        <time>2013-05-15T11:49:58Z</time>
      </trkpt>
      <trkpt lat="43.65854" lon="6.7792">
        <ele>234</ele>
        <time>2013-05-15T11:50:28Z</time>
      </trkpt>
      <trkpt lat="43.65854" lon="6.7792">
        <ele>233.600006</ele>
        <time>2013-05-15T11:50:29Z</time>
      </trkpt>
      <trkpt lat="43.65867" lon="6.77911">
        <ele>231.199997</ele>
        <time>2013-05-15T11:51:00Z</time>
      </trkpt>
      <trkpt lat="43.65866" lon="6.779">
        <ele>229.300003</ele>
        <time>2013-05-15T11:51:11Z</time>
      </trkpt>
      <trkpt lat="43.65858" lon="6.77897">
        <ele>227.399994</ele>
        <time>2013-05-15T11:51:24Z</time>
      </trkpt>
      <trkpt lat="43.65866" lon="6.77891">
        <ele>224.600006</ele>
        <time>2013-05-15T11:51:44Z</time>
      </trkpt>
      <trkpt lat="43.65867" lon="6.77891">
        <ele>224.199997</ele>
        <time>2013-05-15T11:51:45Z</time>
      </trkpt>
      <trkpt lat="43.6588" lon="6.7788">
        <ele>223.100006</ele>
        <time>2013-05-15T11:52:04Z</time>
      </trkpt>
      <trkpt lat="43.65887" lon="6.77874">
        <ele>223.300003</ele>
        <time>2013-05-15T11:52:14Z</time>
      </trkpt>
      <trkpt lat="43.65893" lon="6.77865">
        <ele>220.699997</ele>
        <time>2013-05-15T11:52:31Z</time>
      </trkpt>
      <trkpt lat="43.65899" lon="6.77856">
        <ele>219.899994</ele>
        <time>2013-05-15T11:52:42Z</time>
      </trkpt>
      <trkpt lat="43.65904" lon="6.77846">
        <ele>218.800003</ele>
        <time>2013-05-15T11:52:51Z</time>
      </trkpt>
      <trkpt lat="43.65904" lon="6.77845">
        <ele>219</ele>
        <time>2013-05-15T11:52:52Z</time>
      </trkpt>
      <trkpt lat="43.65911" lon="6.77824">
        <ele>216.899994</ele>
        <time>2013-05-15T11:53:08Z</time>
      </trkpt>
      <trkpt lat="43.65916" lon="6.77814">
        <ele>216.899994</ele>
        <time>2013-05-15T11:53:17Z</time>
      </trkpt>
      <trkpt lat="43.6592" lon="6.77806">
        <ele>216.399994</ele>
        <time>2013-05-15T11:53:24Z</time>
      </trkpt>
      <trkpt lat="43.65925" lon="6.77795">
        <ele>216.399994</ele>
        <time>2013-05-15T11:53:31Z</time>
      </trkpt>
      <trkpt lat="43.65927" lon="6.77783">
        <ele>216.199997</ele>
        <time>2013-05-15T11:53:40Z</time>
      </trkpt>
      <trkpt lat="43.65932" lon="6.77775">
        <ele>216.100006</ele>
        <time>2013-05-15T11:53:48Z</time>
      </trkpt>
      <trkpt lat="43.65939" lon="6.77768">
        <ele>214.199997</ele>
        <time>2013-05-15T11:54:02Z</time>
      </trkpt>
      <trkpt lat="43.65939" lon="6.77766">
        <ele>214.300003</ele>
        <time>2013-05-15T11:54:03Z</time>
      </trkpt>
      <trkpt lat="43.65941" lon="6.77746">
        <ele>212</ele>
        <time>2013-05-15T11:54:29Z</time>
      </trkpt>
      <trkpt lat="43.65947" lon="6.77738">
        <ele>210.699997</ele>
        <time>2013-05-15T11:54:37Z</time>
      </trkpt>
      <trkpt lat="43.65953" lon="6.77729">
        <ele>209.699997</ele>
        <time>2013-05-15T11:54:48Z</time>
      </trkpt>
      <trkpt lat="43.65957" lon="6.77718">
        <ele>207.399994</ele>
        <time>2013-05-15T11:55:03Z</time>
      </trkpt>
      <trkpt lat="43.65957" lon="6.77718">
        <ele>207.100006</ele>
        <time>2013-05-15T11:55:04Z</time>
      </trkpt>
      <trkpt lat="43.65963" lon="6.77697">
        <ele>204.800003</ele>
        <time>2013-05-15T11:55:26Z</time>
      </trkpt>
      <trkpt lat="43.65971" lon="6.77696">
        <ele>204.5</ele>
        <time>2013-05-15T11:55:32Z</time>
      </trkpt>
      <trkpt lat="43.65979" lon="6.77693">
        <ele>204.800003</ele>
        <time>2013-05-15T11:55:43Z</time>
      </trkpt>
      <trkpt lat="43.65987" lon="6.7769">
        <ele>205.100006</ele>
        <time>2013-05-15T11:55:49Z</time>
      </trkpt>
      <trkpt lat="43.65995" lon="6.77685">
        <ele>204.600006</ele>
        <time>2013-05-15T11:55:58Z</time>
      </trkpt>
      <trkpt lat="43.65999" lon="6.77675">
        <ele>205.600006</ele>
        <time>2013-05-15T11:56:13Z</time>
      </trkpt>
      <trkpt lat="43.65999" lon="6.77674">
        <ele>205.5</ele>
        <time>2013-05-15T11:56:14Z</time>
      </trkpt>
      <trkpt lat="43.65998" lon="6.77652">
        <ele>206.5</ele>
        <time>2013-05-15T11:58:31Z</time>
      </trkpt>
      <trkpt lat="43.65998" lon="6.77652">
        <ele>206.600006</ele>
        <time>2013-05-15T11:58:32Z</time>
      </trkpt>
      <trkpt lat="43.65995" lon="6.77648">
        <ele>202.600006</ele>
        <time>2013-05-15T12:00:14Z</time>
      </trkpt>
      <trkpt lat="43.65995" lon="6.77648">
        <ele>202.699997</ele>
        <time>2013-05-15T12:00:15Z</time>
      </trkpt>
      <trkpt lat="43.65997" lon="6.77647">
        <ele>203</ele>
        <time>2013-05-15T12:01:16Z</time>
      </trkpt>
      <trkpt lat="43.65997" lon="6.77646">
        <ele>203</ele>
        <time>2013-05-15T12:01:17Z</time>
      </trkpt>
      <trkpt lat="43.65982" lon="6.77636">
        <ele>207.699997</ele>
        <time>2013-05-15T12:02:03Z</time>
      </trkpt>
      <trkpt lat="43.65974" lon="6.77639">
        <ele>208.100006</ele>
        <time>2013-05-15T12:02:11Z</time>
      </trkpt>
      <trkpt lat="43.65967" lon="6.77646">
        <ele>208</ele>
        <time>2013-05-15T12:02:21Z</time>
      </trkpt>
      <trkpt lat="43.65966" lon="6.77647">
        <ele>208.199997</ele>
        <time>2013-05-15T12:02:22Z</time>
      </trkpt>
      <trkpt lat="43.65952" lon="6.77658">
        <ele>207.300003</ele>
        <time>2013-05-15T12:02:38Z</time>
      </trkpt>
      <trkpt lat="43.65944" lon="6.77656">
        <ele>206.100006</ele>
        <time>2013-05-15T12:02:44Z</time>
      </trkpt>
      <trkpt lat="43.65936" lon="6.77657">
        <ele>206.399994</ele>
        <time>2013-05-15T12:02:48Z</time>
      </trkpt>
      <trkpt lat="43.65928" lon="6.77659">
        <ele>207.600006</ele>
        <time>2013-05-15T12:02:53Z</time>
      </trkpt>
      <trkpt lat="43.6592" lon="6.77665">
        <ele>206.699997</ele>
        <time>2013-05-15T12:02:59Z</time>
      </trkpt>
      <trkpt lat="43.65913" lon="6.77672">
        <ele>206.800003</ele>
        <time>2013-05-15T12:03:06Z</time>
      </trkpt>
      <trkpt lat="43.65905" lon="6.77676">
        <ele>207</ele>
        <time>2013-05-15T12:03:12Z</time>
      </trkpt>
      <trkpt lat="43.65898" lon="6.77683">
        <ele>206.899994</ele>
        <time>2013-05-15T12:03:21Z</time>
      </trkpt>
      <trkpt lat="43.65889" lon="6.77684">
        <ele>206.800003</ele>
        <time>2013-05-15T12:03:30Z</time>
      </trkpt>
      <trkpt lat="43.65887" lon="6.77685">
        <ele>207</ele>
        <time>2013-05-15T12:03:31Z</time>
      </trkpt>
      <trkpt lat="43.65873" lon="6.77683">
        <ele>206.699997</ele>
        <time>2013-05-15T12:03:46Z</time>
      </trkpt>
      <trkpt lat="43.65865" lon="6.77682">
        <ele>206.199997</ele>
        <time>2013-05-15T12:03:54Z</time>
      </trkpt>
      <trkpt lat="43.65858" lon="6.77688">
        <ele>206.300003</ele>
        <time>2013-05-15T12:04:06Z</time>
      </trkpt>
      <trkpt lat="43.6585" lon="6.77688">
        <ele>206</ele>
        <time>2013-05-15T12:04:13Z</time>
      </trkpt>
      <trkpt lat="43.65842" lon="6.77689">
        <ele>206.300003</ele>
        <time>2013-05-15T12:04:22Z</time>
      </trkpt>
      <trkpt lat="43.65835" lon="6.77696">
        <ele>205.800003</ele>
        <time>2013-05-15T12:04:34Z</time>
      </trkpt>
      <trkpt lat="43.65835" lon="6.77697">
        <ele>205.699997</ele>
        <time>2013-05-15T12:04:35Z</time>
      </trkpt>
      <trkpt lat="43.65824" lon="6.77714">
        <ele>205.899994</ele>
        <time>2013-05-15T12:04:58Z</time>
      </trkpt>
      <trkpt lat="43.65815" lon="6.77711">
        <ele>205.100006</ele>
        <time>2013-05-15T12:05:04Z</time>
      </trkpt>
      <trkpt lat="43.65807" lon="6.77712">
        <ele>205.199997</ele>
        <time>2013-05-15T12:05:13Z</time>
      </trkpt>
      <trkpt lat="43.65798" lon="6.77711">
        <ele>205.100006</ele>
        <time>2013-05-15T12:05:19Z</time>
      </trkpt>
      <trkpt lat="43.65791" lon="6.77714">
        <ele>204.699997</ele>
        <time>2013-05-15T12:05:25Z</time>
      </trkpt>
      <trkpt lat="43.65782" lon="6.77716">
        <ele>204.600006</ele>
        <time>2013-05-15T12:05:32Z</time>
      </trkpt>
      <trkpt lat="43.65774" lon="6.77718">
        <ele>205.600006</ele>
        <time>2013-05-15T12:05:48Z</time>
      </trkpt>
      <trkpt lat="43.65772" lon="6.77719">
        <ele>205.600006</ele>
        <time>2013-05-15T12:05:49Z</time>
      </trkpt>
      <trkpt lat="43.6576" lon="6.77731">
        <ele>204.600006</ele>
        <time>2013-05-15T12:06:08Z</time>
      </trkpt>
      <trkpt lat="43.65751" lon="6.7773">
        <ele>205.100006</ele>
        <time>2013-05-15T12:06:19Z</time>
      </trkpt>
      <trkpt lat="43.65743" lon="6.77729">
        <ele>205.399994</ele>
        <time>2013-05-15T12:06:29Z</time>
      </trkpt>
      <trkpt lat="43.65734" lon="6.77729">
        <ele>204.5</ele>
        <time>2013-05-15T12:06:39Z</time>
      </trkpt>
      <trkpt lat="43.65727" lon="6.77731">
        <ele>204.100006</ele>
        <time>2013-05-15T12:07:15Z</time>
      </trkpt>
      <trkpt lat="43.65725" lon="6.77729">
        <ele>204.100006</ele>
        <time>2013-05-15T12:07:16Z</time>
      </trkpt>
      <trkpt lat="43.65713" lon="6.77716">
        <ele>204.399994</ele>
        <time>2013-05-15T12:07:50Z</time>
      </trkpt>
      <trkpt lat="43.65708" lon="6.77726">
        <ele>204.100006</ele>
        <time>2013-05-15T12:08:09Z</time>
      </trkpt>
      <trkpt lat="43.65704" lon="6.77736">
        <ele>204.300003</ele>
        <time>2013-05-15T12:08:57Z</time>
      </trkpt>
      <trkpt lat="43.65704" lon="6.77737">
        <ele>204.399994</ele>
        <time>2013-05-15T12:08:58Z</time>
      </trkpt>
      <trkpt lat="43.65689" lon="6.7773">
        <ele>203.199997</ele>
        <time>2013-05-15T12:09:49Z</time>
      </trkpt>
      <trkpt lat="43.65682" lon="6.77723">
        <ele>204.100006</ele>
        <time>2013-05-15T12:10:04Z</time>
      </trkpt>
      <trkpt lat="43.65681" lon="6.77723">
        <ele>203.899994</ele>
        <time>2013-05-15T12:10:05Z</time>
      </trkpt>
      <trkpt lat="43.65666" lon="6.7772">
        <ele>203.600006</ele>
        <time>2013-05-15T12:10:22Z</time>
      </trkpt>
      <trkpt lat="43.65659" lon="6.77718">
        <ele>203.699997</ele>
        <time>2013-05-15T12:10:26Z</time>
      </trkpt>
      <trkpt lat="43.65651" lon="6.77721">
        <ele>203.800003</ele>
        <time>2013-05-15T12:10:31Z</time>
      </trkpt>
      <trkpt lat="43.65643" lon="6.77726">
        <ele>203.5</ele>
        <time>2013-05-15T12:10:39Z</time>
      </trkpt>
      <trkpt lat="43.65636" lon="6.7773">
        <ele>203.199997</ele>
        <time>2013-05-15T12:10:47Z</time>
      </trkpt>
      <trkpt lat="43.65628" lon="6.77735">
        <ele>203.399994</ele>
        <time>2013-05-15T12:10:53Z</time>
      </trkpt>
      <trkpt lat="43.6562" lon="6.77735">
        <ele>203.300003</ele>
        <time>2013-05-15T12:10:59Z</time>
      </trkpt>
      <trkpt lat="43.65613" lon="6.77737">
        <ele>202.800003</ele>
        <time>2013-05-15T12:11:02Z</time>
      </trkpt>
      <trkpt lat="43.65606" lon="6.77742">
        <ele>203</ele>
        <time>2013-05-15T12:11:10Z</time>
      </trkpt>
      <trkpt lat="43.65604" lon="6.77742">
        <ele>203.199997</ele>
        <time>2013-05-15T12:11:11Z</time>
      </trkpt>
      <trkpt lat="43.6559" lon="6.77743">
        <ele>203.899994</ele>
        <time>2013-05-15T12:11:25Z</time>
      </trkpt>
      <trkpt lat="43.65582" lon="6.77743">
        <ele>203.399994</ele>
        <time>2013-05-15T12:11:31Z</time>
      </trkpt>
      <trkpt lat="43.65574" lon="6.77747">
        <ele>203.5</ele>
        <time>2013-05-15T12:11:37Z</time>
      </trkpt>
      <trkpt lat="43.65567" lon="6.77753">
        <ele>203.300003</ele>
        <time>2013-05-15T12:11:46Z</time>
      </trkpt>
      <trkpt lat="43.65559" lon="6.77757">
        <ele>203.600006</ele>
        <time>2013-05-15T12:11:52Z</time>
      </trkpt>
      <trkpt lat="43.65552" lon="6.77763">
        <ele>203.899994</ele>
        <time>2013-05-15T12:11:58Z</time>
      </trkpt>
      <trkpt lat="43.65544" lon="6.77769">
        <ele>203.399994</ele>
        <time>2013-05-15T12:12:04Z</time>
      </trkpt>
      <trkpt lat="43.65536" lon="6.77773">
        <ele>202.899994</ele>
        <time>2013-05-15T12:12:11Z</time>
      </trkpt>
      <trkpt lat="43.65535" lon="6.77774">
        <ele>203.300003</ele>
        <time>2013-05-15T12:12:12Z</time>
      </trkpt>
      <trkpt lat="43.65522" lon="6.77788">
        <ele>203.5</ele>
        <time>2013-05-15T12:12:30Z</time>
      </trkpt>
      <trkpt lat="43.65517" lon="6.77798">
        <ele>203</ele>
        <time>2013-05-15T12:12:38Z</time>
      </trkpt>
      <trkpt lat="43.65516" lon="6.77809">
        <ele>203</ele>
        <time>2013-05-15T12:12:46Z</time>
      </trkpt>
      <trkpt lat="43.65514" lon="6.77821">
        <ele>203.199997</ele>
        <time>2013-05-15T12:12:54Z</time>
      </trkpt>
      <trkpt lat="43.65513" lon="6.77832">
        <ele>202.699997</ele>
        <time>2013-05-15T12:13:06Z</time>
      </trkpt>
      <trkpt lat="43.65511" lon="6.77844">
        <ele>203</ele>
        <time>2013-05-15T12:13:15Z</time>
      </trkpt>
      <trkpt lat="43.65511" lon="6.77846">
        <ele>203.199997</ele>
        <time>2013-05-15T12:13:16Z</time>
      </trkpt>
      <trkpt lat="43.65505" lon="6.77863">
        <ele>202.399994</ele>
        <time>2013-05-15T12:13:32Z</time>
      </trkpt>
      <trkpt lat="43.65501" lon="6.77874">
        <ele>202.5</ele>
        <time>2013-05-15T12:13:41Z</time>
      </trkpt>
      <trkpt lat="43.65502" lon="6.77885">
        <ele>202.800003</ele>
        <time>2013-05-15T12:13:53Z</time>
      </trkpt>
      <trkpt lat="43.65507" lon="6.77895">
        <ele>201.899994</ele>
        <time>2013-05-15T12:14:09Z</time>
      </trkpt>
      <trkpt lat="43.65505" lon="6.77907">
        <ele>201.100006</ele>
        <time>2013-05-15T12:14:21Z</time>
      </trkpt>
      <trkpt lat="43.65505" lon="6.77908">
        <ele>201.300003</ele>
        <time>2013-05-15T12:14:22Z</time>
      </trkpt>
      <trkpt lat="43.655" lon="6.77926">
        <ele>201.800003</ele>
        <time>2013-05-15T12:14:42Z</time>
      </trkpt>
      <trkpt lat="43.65496" lon="6.77937">
        <ele>201.300003</ele>
        <time>2013-05-15T12:14:50Z</time>
      </trkpt>
      <trkpt lat="43.65491" lon="6.77947">
        <ele>201.300003</ele>
        <time>2013-05-15T12:14:58Z</time>
      </trkpt>
      <trkpt lat="43.65488" lon="6.77959">
        <ele>201.199997</ele>
        <time>2013-05-15T12:15:06Z</time>
      </trkpt>
      <trkpt lat="43.65487" lon="6.7797">
        <ele>202.100006</ele>
        <time>2013-05-15T12:15:26Z</time>
      </trkpt>
      <trkpt lat="43.65487" lon="6.77972">
        <ele>202.199997</ele>
        <time>2013-05-15T12:15:27Z</time>
      </trkpt>
      <trkpt lat="43.6548" lon="6.7799">
        <ele>202.100006</ele>
        <time>2013-05-15T12:15:45Z</time>
      </trkpt>
      <trkpt lat="43.65479" lon="6.78002">
        <ele>202.199997</ele>
        <time>2013-05-15T12:15:53Z</time>
      </trkpt>
      <trkpt lat="43.65479" lon="6.78014">
        <ele>202.600006</ele>
        <time>2013-05-15T12:16:07Z</time>
      </trkpt>
      <trkpt lat="43.65481" lon="6.78025">
        <ele>202</ele>
        <time>2013-05-15T12:16:19Z</time>
      </trkpt>
      <trkpt lat="43.6548" lon="6.78037">
        <ele>202.199997</ele>
        <time>2013-05-15T12:16:47Z</time>
      </trkpt>
      <trkpt lat="43.6548" lon="6.78038">
        <ele>202.199997</ele>
        <time>2013-05-15T12:16:48Z</time>
      </trkpt>
      <trkpt lat="43.65469" lon="6.78055">
        <ele>202.399994</ele>
        <time>2013-05-15T12:17:10Z</time>
      </trkpt>
      <trkpt lat="43.65466" lon="6.78066">
        <ele>202.300003</ele>
        <time>2013-05-15T12:17:19Z</time>
      </trkpt>
      <trkpt lat="43.65459" lon="6.78073">
        <ele>202.399994</ele>
        <time>2013-05-15T12:17:28Z</time>
      </trkpt>
      <trkpt lat="43.65455" lon="6.78081">
        <ele>202.300003</ele>
        <time>2013-05-15T12:17:36Z</time>
      </trkpt>
      <trkpt lat="43.65451" lon="6.78091">
        <ele>202.600006</ele>
        <time>2013-05-15T12:17:44Z</time>
      </trkpt>
      <trkpt lat="43.65444" lon="6.78097">
        <ele>202.5</ele>
        <time>2013-05-15T12:17:49Z</time>
      </trkpt>
      <trkpt lat="43.65443" lon="6.78098">
        <ele>202.5</ele>
        <time>2013-05-15T12:17:50Z</time>
      </trkpt>
      <trkpt lat="43.65436" lon="6.78118">
        <ele>203.100006</ele>
        <time>2013-05-15T12:18:30Z</time>
      </trkpt>
      <trkpt lat="43.65434" lon="6.7813">
        <ele>202.600006</ele>
        <time>2013-05-15T12:18:52Z</time>
      </trkpt>
      <trkpt lat="43.65433" lon="6.78131">
        <ele>202.600006</ele>
        <time>2013-05-15T12:18:53Z</time>
      </trkpt>
      <trkpt lat="43.65425" lon="6.78149">
        <ele>202</ele>
        <time>2013-05-15T12:19:10Z</time>
      </trkpt>
      <trkpt lat="43.65418" lon="6.78155">
        <ele>202.399994</ele>
        <time>2013-05-15T12:19:17Z</time>
      </trkpt>
      <trkpt lat="43.65411" lon="6.78161">
        <ele>202.199997</ele>
        <time>2013-05-15T12:19:25Z</time>
      </trkpt>
      <trkpt lat="43.65406" lon="6.78171">
        <ele>202.800003</ele>
        <time>2013-05-15T12:19:35Z</time>
      </trkpt>
      <trkpt lat="43.65404" lon="6.78182">
        <ele>203</ele>
        <time>2013-05-15T12:19:42Z</time>
      </trkpt>
      <trkpt lat="43.65401" lon="6.78193">
        <ele>202.300003</ele>
        <time>2013-05-15T12:19:50Z</time>
      </trkpt>
      <trkpt lat="43.65394" lon="6.78199">
        <ele>202.199997</ele>
        <time>2013-05-15T12:19:58Z</time>
      </trkpt>
      <trkpt lat="43.65394" lon="6.782">
        <ele>202.199997</ele>
        <time>2013-05-15T12:19:59Z</time>
      </trkpt>
      <trkpt lat="43.65383" lon="6.78217">
        <ele>201.899994</ele>
        <time>2013-05-15T12:20:14Z</time>
      </trkpt>
      <trkpt lat="43.65377" lon="6.78226">
        <ele>201.800003</ele>
        <time>2013-05-15T12:20:24Z</time>
      </trkpt>
      <trkpt lat="43.65369" lon="6.7823">
        <ele>201.800003</ele>
        <time>2013-05-15T12:20:35Z</time>
      </trkpt>
      <trkpt lat="43.65361" lon="6.78234">
        <ele>201.5</ele>
        <time>2013-05-15T12:20:41Z</time>
      </trkpt>
      <trkpt lat="43.65354" lon="6.78238">
        <ele>201</ele>
        <time>2013-05-15T12:20:51Z</time>
      </trkpt>
      <trkpt lat="43.65345" lon="6.78242">
        <ele>200.899994</ele>
        <time>2013-05-15T12:20:59Z</time>
      </trkpt>
      <trkpt lat="43.65345" lon="6.78242">
        <ele>200.800003</ele>
        <time>2013-05-15T12:21:00Z</time>
      </trkpt>
      <trkpt lat="43.65331" lon="6.78254">
        <ele>199.399994</ele>
        <time>2013-05-15T12:21:20Z</time>
      </trkpt>
      <trkpt lat="43.65323" lon="6.78257">
        <ele>199.100006</ele>
        <time>2013-05-15T12:21:31Z</time>
      </trkpt>
      <trkpt lat="43.65316" lon="6.78264">
        <ele>198.5</ele>
        <time>2013-05-15T12:21:43Z</time>
      </trkpt>
      <trkpt lat="43.65308" lon="6.78267">
        <ele>197.600006</ele>
        <time>2013-05-15T12:21:54Z</time>
      </trkpt>
      <trkpt lat="43.65305" lon="6.78278">
        <ele>197.699997</ele>
        <time>2013-05-15T12:22:06Z</time>
      </trkpt>
      <trkpt lat="43.65304" lon="6.7828">
        <ele>197.800003</ele>
        <time>2013-05-15T12:22:07Z</time>
      </trkpt>
      <trkpt lat="43.65293" lon="6.78295">
        <ele>197.5</ele>
        <time>2013-05-15T12:22:24Z</time>
      </trkpt>
      <trkpt lat="43.6529" lon="6.78306">
        <ele>197.399994</ele>
        <time>2013-05-15T12:22:34Z</time>
      </trkpt>
      <trkpt lat="43.65282" lon="6.78311">
        <ele>197.300003</ele>
        <time>2013-05-15T12:22:43Z</time>
      </trkpt>
      <trkpt lat="43.6528" lon="6.78322">
        <ele>196.600006</ele>
        <time>2013-05-15T12:22:55Z</time>
      </trkpt>
      <trkpt lat="43.65276" lon="6.78332">
        <ele>195.5</ele>
        <time>2013-05-15T12:23:04Z</time>
      </trkpt>
      <trkpt lat="43.65275" lon="6.78344">
        <ele>194.600006</ele>
        <time>2013-05-15T12:23:15Z</time>
      </trkpt>
      <trkpt lat="43.65275" lon="6.78344">
        <ele>194.699997</ele>
        <time>2013-05-15T12:23:16Z</time>
      </trkpt>
      <trkpt lat="43.65265" lon="6.78361">
        <ele>194.600006</ele>
        <time>2013-05-15T12:23:39Z</time>
      </trkpt>
      <trkpt lat="43.65259" lon="6.7837">
        <ele>195.199997</ele>
        <time>2013-05-15T12:23:46Z</time>
      </trkpt>
      <trkpt lat="43.65255" lon="6.78381">
        <ele>193.5</ele>
        <time>2013-05-15T12:23:57Z</time>
      </trkpt>
      <trkpt lat="43.65251" lon="6.78391">
        <ele>193.300003</ele>
        <time>2013-05-15T12:24:06Z</time>
      </trkpt>
      <trkpt lat="43.65252" lon="6.78403">
        <ele>192.300003</ele>
        <time>2013-05-15T12:24:16Z</time>
      </trkpt>
      <trkpt lat="43.65251" lon="6.78404">
        <ele>192</ele>
        <time>2013-05-15T12:24:17Z</time>
      </trkpt>
      <trkpt lat="43.65239" lon="6.78416">
        <ele>191.5</ele>
        <time>2013-05-15T12:24:34Z</time>
      </trkpt>
      <trkpt lat="43.6523" lon="6.7842">
        <ele>190.899994</ele>
        <time>2013-05-15T12:24:42Z</time>
      </trkpt>
      <trkpt lat="43.65225" lon="6.78429">
        <ele>191.100006</ele>
        <time>2013-05-15T12:24:49Z</time>
      </trkpt>
      <trkpt lat="43.6522" lon="6.78437">
        <ele>190.600006</ele>
        <time>2013-05-15T12:24:59Z</time>
      </trkpt>
      <trkpt lat="43.65215" lon="6.78445">
        <ele>188.800003</ele>
        <time>2013-05-15T12:25:07Z</time>
      </trkpt>
      <trkpt lat="43.65207" lon="6.78449">
        <ele>188.199997</ele>
        <time>2013-05-15T12:25:15Z</time>
      </trkpt>
      <trkpt lat="43.65199" lon="6.78454">
        <ele>187.600006</ele>
        <time>2013-05-15T12:25:23Z</time>
      </trkpt>
      <trkpt lat="43.65198" lon="6.78455">
        <ele>187.399994</ele>
        <time>2013-05-15T12:25:24Z</time>
      </trkpt>
      <trkpt lat="43.65188" lon="6.78471">
        <ele>188.100006</ele>
        <time>2013-05-15T12:25:37Z</time>
      </trkpt>
      <trkpt lat="43.65181" lon="6.78475">
        <ele>188</ele>
        <time>2013-05-15T12:25:44Z</time>
      </trkpt>
      <trkpt lat="43.65173" lon="6.7848">
        <ele>187.800003</ele>
        <time>2013-05-15T12:25:53Z</time>
      </trkpt>
      <trkpt lat="43.65165" lon="6.78486">
        <ele>187.100006</ele>
        <time>2013-05-15T12:26:04Z</time>
      </trkpt>
      <trkpt lat="43.65158" lon="6.78492">
        <ele>187</ele>
        <time>2013-05-15T12:26:18Z</time>
      </trkpt>
      <trkpt lat="43.65153" lon="6.78502">
        <ele>187.699997</ele>
        <time>2013-05-15T12:26:59Z</time>
      </trkpt>
      <trkpt lat="43.65152" lon="6.78503">
        <ele>187.600006</ele>
        <time>2013-05-15T12:27:00Z</time>
      </trkpt>
      <trkpt lat="43.65141" lon="6.78519">
        <ele>188.300003</ele>
        <time>2013-05-15T12:27:19Z</time>
      </trkpt>
      <trkpt lat="43.65137" lon="6.7853">
        <ele>186.600006</ele>
        <time>2013-05-15T12:27:30Z</time>
      </trkpt>
      <trkpt lat="43.65129" lon="6.78534">
        <ele>185.699997</ele>
        <time>2013-05-15T12:27:37Z</time>
      </trkpt>
      <trkpt lat="43.65121" lon="6.78537">
        <ele>185.100006</ele>
        <time>2013-05-15T12:27:43Z</time>
      </trkpt>
      <trkpt lat="43.65112" lon="6.78539">
        <ele>184.899994</ele>
        <time>2013-05-15T12:27:51Z</time>
      </trkpt>
      <trkpt lat="43.65104" lon="6.7854">
        <ele>184.699997</ele>
        <time>2013-05-15T12:27:59Z</time>
      </trkpt>
      <trkpt lat="43.65096" lon="6.78537">
        <ele>184.399994</ele>
        <time>2013-05-15T12:28:03Z</time>
      </trkpt>
      <trkpt lat="43.65094" lon="6.78538">
        <ele>184.399994</ele>
        <time>2013-05-15T12:28:04Z</time>
      </trkpt>
      <trkpt lat="43.6508" lon="6.78533">
        <ele>185.5</ele>
        <time>2013-05-15T12:28:16Z</time>
      </trkpt>
      <trkpt lat="43.65072" lon="6.78529">
        <ele>184.300003</ele>
        <time>2013-05-15T12:28:26Z</time>
      </trkpt>
      <trkpt lat="43.65064" lon="6.78531">
        <ele>184.699997</ele>
        <time>2013-05-15T12:28:32Z</time>
      </trkpt>
      <trkpt lat="43.65055" lon="6.78532">
        <ele>185.300003</ele>
        <time>2013-05-15T12:28:37Z</time>
      </trkpt>
      <trkpt lat="43.65047" lon="6.78528">
        <ele>185.300003</ele>
        <time>2013-05-15T12:28:45Z</time>
      </trkpt>
      <trkpt lat="43.6504" lon="6.78523">
        <ele>185</ele>
        <time>2013-05-15T12:28:52Z</time>
      </trkpt>
      <trkpt lat="43.65032" lon="6.78522">
        <ele>185.600006</ele>
        <time>2013-05-15T12:29:01Z</time>
      </trkpt>
      <trkpt lat="43.65024" lon="6.78523">
        <ele>185</ele>
        <time>2013-05-15T12:29:09Z</time>
      </trkpt>
      <trkpt lat="43.65023" lon="6.78523">
        <ele>184.899994</ele>
        <time>2013-05-15T12:29:10Z</time>
      </trkpt>
      <trkpt lat="43.65014" lon="6.78541">
        <ele>184.100006</ele>
        <time>2013-05-15T12:29:27Z</time>
      </trkpt>
      <trkpt lat="43.6501" lon="6.78551">
        <ele>184.199997</ele>
        <time>2013-05-15T12:29:46Z</time>
      </trkpt>
      <trkpt lat="43.65007" lon="6.78562">
        <ele>185.300003</ele>
        <time>2013-05-15T12:30:20Z</time>
      </trkpt>
      <trkpt lat="43.65008" lon="6.78564">
        <ele>185.300003</ele>
        <time>2013-05-15T12:30:21Z</time>
      </trkpt>
      <trkpt lat="43.65007" lon="6.78562">
        <ele>185.199997</ele>
        <time>2013-05-15T12:31:08Z</time>
      </trkpt>
      <trkpt lat="43.65013" lon="6.78556">
        <ele>184.199997</ele>
        <time>2013-05-15T12:31:45Z</time>
      </trkpt>
      <trkpt lat="43.65015" lon="6.78556">
        <ele>184.300003</ele>
        <time>2013-05-15T12:31:46Z</time>
      </trkpt>
      <trkpt lat="43.65018" lon="6.78532">
        <ele>184.5</ele>
        <time>2013-05-15T12:32:47Z</time>
      </trkpt>
      <trkpt lat="43.65017" lon="6.78532">
        <ele>184.5</ele>
        <time>2013-05-15T12:32:48Z</time>
      </trkpt>
      <trkpt lat="43.65017" lon="6.78526">
        <ele>184.800003</ele>
        <time>2013-05-15T12:33:30Z</time>
      </trkpt>
      <trkpt lat="43.65008" lon="6.78525">
        <ele>185</ele>
        <time>2013-05-15T12:34:04Z</time>
      </trkpt>
      <trkpt lat="43.65008" lon="6.78525">
        <ele>184.899994</ele>
        <time>2013-05-15T12:34:05Z</time>
      </trkpt>
      <trkpt lat="43.64994" lon="6.78516">
        <ele>184.5</ele>
        <time>2013-05-15T12:34:34Z</time>
      </trkpt>
      <trkpt lat="43.64986" lon="6.7851">
        <ele>184.800003</ele>
        <time>2013-05-15T12:34:42Z</time>
      </trkpt>
      <trkpt lat="43.64981" lon="6.785">
        <ele>184.399994</ele>
        <time>2013-05-15T12:34:55Z</time>
      </trkpt>
      <trkpt lat="43.64973" lon="6.78494">
        <ele>184.300003</ele>
        <time>2013-05-15T12:34:59Z</time>
      </trkpt>
      <trkpt lat="43.64965" lon="6.78489">
        <ele>184</ele>
        <time>2013-05-15T12:35:03Z</time>
      </trkpt>
      <trkpt lat="43.64959" lon="6.78481">
        <ele>184.300003</ele>
        <time>2013-05-15T12:35:11Z</time>
      </trkpt>
      <trkpt lat="43.64958" lon="6.7848">
        <ele>184.300003</ele>
        <time>2013-05-15T12:35:12Z</time>
      </trkpt>
      <trkpt lat="43.64946" lon="6.78465">
        <ele>183.5</ele>
        <time>2013-05-15T12:35:31Z</time>
      </trkpt>
      <trkpt lat="43.64939" lon="6.78461">
        <ele>183.100006</ele>
        <time>2013-05-15T12:35:37Z</time>
      </trkpt>
      <trkpt lat="43.64933" lon="6.78456">
        <ele>183.199997</ele>
        <time>2013-05-15T12:35:45Z</time>
      </trkpt>
      <trkpt lat="43.64924" lon="6.78456">
        <ele>182.5</ele>
        <time>2013-05-15T12:35:50Z</time>
      </trkpt>
      <trkpt lat="43.64915" lon="6.78455">
        <ele>182.600006</ele>
        <time>2013-05-15T12:35:58Z</time>
      </trkpt>
      <trkpt lat="43.64906" lon="6.78453">
        <ele>182.399994</ele>
        <time>2013-05-15T12:36:11Z</time>
      </trkpt>
      <trkpt lat="43.64899" lon="6.78451">
        <ele>182.5</ele>
        <time>2013-05-15T12:36:17Z</time>
      </trkpt>
      <trkpt lat="43.64897" lon="6.7845">
        <ele>182.600006</ele>
        <time>2013-05-15T12:36:18Z</time>
      </trkpt>
      <trkpt lat="43.64883" lon="6.7846">
        <ele>183.5</ele>
        <time>2013-05-15T12:36:46Z</time>
      </trkpt>
      <trkpt lat="43.64875" lon="6.7846">
        <ele>183.699997</ele>
        <time>2013-05-15T12:36:53Z</time>
      </trkpt>
      <trkpt lat="43.6487" lon="6.7845">
        <ele>184</ele>
        <time>2013-05-15T12:37:02Z</time>
      </trkpt>
      <trkpt lat="43.64863" lon="6.78444">
        <ele>183.699997</ele>
        <time>2013-05-15T12:37:10Z</time>
      </trkpt>
      <trkpt lat="43.64855" lon="6.78444">
        <ele>184.100006</ele>
        <time>2013-05-15T12:37:18Z</time>
      </trkpt>
      <trkpt lat="43.64854" lon="6.78444">
        <ele>184.199997</ele>
        <time>2013-05-15T12:37:19Z</time>
      </trkpt>
      <trkpt lat="43.6484" lon="6.78446">
        <ele>183.899994</ele>
        <time>2013-05-15T12:37:37Z</time>
      </trkpt>
      <trkpt lat="43.64833" lon="6.7845">
        <ele>184</ele>
        <time>2013-05-15T12:37:41Z</time>
      </trkpt>
      <trkpt lat="43.64826" lon="6.78453">
        <ele>183.699997</ele>
        <time>2013-05-15T12:37:45Z</time>
      </trkpt>
      <trkpt lat="43.64818" lon="6.78449">
        <ele>183.300003</ele>
        <time>2013-05-15T12:37:50Z</time>
      </trkpt>
      <trkpt lat="43.64812" lon="6.78459">
        <ele>183.399994</ele>
        <time>2013-05-15T12:38:02Z</time>
      </trkpt>
      <trkpt lat="43.64805" lon="6.78464">
        <ele>183.5</ele>
        <time>2013-05-15T12:38:09Z</time>
      </trkpt>
      <trkpt lat="43.64806" lon="6.78476">
        <ele>182.100006</ele>
        <time>2013-05-15T12:38:28Z</time>
      </trkpt>
      <trkpt lat="43.64806" lon="6.78477">
        <ele>182.300003</ele>
        <time>2013-05-15T12:38:29Z</time>
      </trkpt>
      <trkpt lat="43.64789" lon="6.78476">
        <ele>185.600006</ele>
        <time>2013-05-15T12:39:00Z</time>
      </trkpt>
      <trkpt lat="43.64787" lon="6.78488">
        <ele>185.800003</ele>
        <time>2013-05-15T12:39:18Z</time>
      </trkpt>
      <trkpt lat="43.64783" lon="6.78498">
        <ele>186.399994</ele>
        <time>2013-05-15T12:39:49Z</time>
      </trkpt>
      <trkpt lat="43.64782" lon="6.78499">
        <ele>186.300003</ele>
        <time>2013-05-15T12:39:50Z</time>
      </trkpt>
      <trkpt lat="43.64769" lon="6.78512">
        <ele>185.800003</ele>
        <time>2013-05-15T12:40:06Z</time>
      </trkpt>
      <trkpt lat="43.64768" lon="6.78524">
        <ele>186.399994</ele>
        <time>2013-05-15T12:40:14Z</time>
      </trkpt>
      <trkpt lat="43.64767" lon="6.78535">
        <ele>186.100006</ele>
        <time>2013-05-15T12:40:22Z</time>
      </trkpt>
      <trkpt lat="43.64763" lon="6.78545">
        <ele>186.399994</ele>
        <time>2013-05-15T12:40:30Z</time>
      </trkpt>
      <trkpt lat="43.64758" lon="6.78555">
        <ele>186</ele>
        <time>2013-05-15T12:40:37Z</time>
      </trkpt>
      <trkpt lat="43.64757" lon="6.78566">
        <ele>187.199997</ele>
        <time>2013-05-15T12:40:45Z</time>
      </trkpt>
      <trkpt lat="43.64751" lon="6.78574">
        <ele>186.300003</ele>
        <time>2013-05-15T12:40:53Z</time>
      </trkpt>
      <trkpt lat="43.64751" lon="6.78575">
        <ele>186.300003</ele>
        <time>2013-05-15T12:40:54Z</time>
      </trkpt>
      <trkpt lat="43.64742" lon="6.78588">
        <ele>186.100006</ele>
        <time>2013-05-15T12:41:04Z</time>
      </trkpt>
      <trkpt lat="43.64735" lon="6.78594">
        <ele>186.699997</ele>
        <time>2013-05-15T12:41:10Z</time>
      </trkpt>
      <trkpt lat="43.64726" lon="6.78598">
        <ele>186.100006</ele>
        <time>2013-05-15T12:41:17Z</time>
      </trkpt>
      <trkpt lat="43.6472" lon="6.78605">
        <ele>185.699997</ele>
        <time>2013-05-15T12:41:23Z</time>
      </trkpt>
      <trkpt lat="43.64715" lon="6.78612">
        <ele>185.399994</ele>
        <time>2013-05-15T12:41:27Z</time>
      </trkpt>
      <trkpt lat="43.6471" lon="6.78622">
        <ele>185.699997</ele>
        <time>2013-05-15T12:41:36Z</time>
      </trkpt>
      <trkpt lat="43.64706" lon="6.78631">
        <ele>184.800003</ele>
        <time>2013-05-15T12:41:41Z</time>
      </trkpt>
      <trkpt lat="43.64705" lon="6.78643">
        <ele>183.399994</ele>
        <time>2013-05-15T12:41:50Z</time>
      </trkpt>
      <trkpt lat="43.64706" lon="6.78654">
        <ele>182.699997</ele>
        <time>2013-05-15T12:41:57Z</time>
      </trkpt>
      <trkpt lat="43.64706" lon="6.78656">
        <ele>182.899994</ele>
        <time>2013-05-15T12:41:58Z</time>
      </trkpt>
      <trkpt lat="43.64695" lon="6.78666">
        <ele>183.199997</ele>
        <time>2013-05-15T12:42:18Z</time>
      </trkpt>
      <trkpt lat="43.64688" lon="6.78672">
        <ele>183.100006</ele>
        <time>2013-05-15T12:42:28Z</time>
      </trkpt>
      <trkpt lat="43.6468" lon="6.78677">
        <ele>183</ele>
        <time>2013-05-15T12:42:37Z</time>
      </trkpt>
      <trkpt lat="43.64675" lon="6.78687">
        <ele>183.399994</ele>
        <time>2013-05-15T12:42:47Z</time>
      </trkpt>
      <trkpt lat="43.64667" lon="6.78691">
        <ele>183</ele>
        <time>2013-05-15T12:42:54Z</time>
      </trkpt>
      <trkpt lat="43.64659" lon="6.78696">
        <ele>183.600006</ele>
        <time>2013-05-15T12:43:00Z</time>
      </trkpt>
      <trkpt lat="43.64658" lon="6.78696">
        <ele>183.899994</ele>
        <time>2013-05-15T12:43:01Z</time>
      </trkpt>
      <trkpt lat="43.64642" lon="6.78702">
        <ele>182.300003</ele>
        <time>2013-05-15T12:43:15Z</time>
      </trkpt>
      <trkpt lat="43.64634" lon="6.78706">
        <ele>183.199997</ele>
        <time>2013-05-15T12:43:21Z</time>
      </trkpt>
      <trkpt lat="43.64628" lon="6.78713">
        <ele>182.300003</ele>
        <time>2013-05-15T12:43:28Z</time>
      </trkpt>
      <trkpt lat="43.6462" lon="6.78713">
        <ele>182.199997</ele>
        <time>2013-05-15T12:43:34Z</time>
      </trkpt>
      <trkpt lat="43.64611" lon="6.78717">
        <ele>181.800003</ele>
        <time>2013-05-15T12:43:41Z</time>
      </trkpt>
      <trkpt lat="43.64603" lon="6.78717">
        <ele>182</ele>
        <time>2013-05-15T12:44:01Z</time>
      </trkpt>
      <trkpt lat="43.64602" lon="6.78717">
        <ele>182.100006</ele>
        <time>2013-05-15T12:44:02Z</time>
      </trkpt>
      <trkpt lat="43.64589" lon="6.78727">
        <ele>182.399994</ele>
        <time>2013-05-15T12:44:15Z</time>
      </trkpt>
      <trkpt lat="43.64583" lon="6.78735">
        <ele>182.399994</ele>
        <time>2013-05-15T12:44:24Z</time>
      </trkpt>
      <trkpt lat="43.64581" lon="6.78746">
        <ele>181.699997</ele>
        <time>2013-05-15T12:44:29Z</time>
      </trkpt>
      <trkpt lat="43.64573" lon="6.78748">
        <ele>181</ele>
        <time>2013-05-15T12:44:33Z</time>
      </trkpt>
      <trkpt lat="43.64565" lon="6.78752">
        <ele>180.899994</ele>
        <time>2013-05-15T12:44:40Z</time>
      </trkpt>
      <trkpt lat="43.64563" lon="6.78763">
        <ele>181.300003</ele>
        <time>2013-05-15T12:44:49Z</time>
      </trkpt>
      <trkpt lat="43.64558" lon="6.78772">
        <ele>180.600006</ele>
        <time>2013-05-15T12:44:57Z</time>
      </trkpt>
      <trkpt lat="43.64555" lon="6.78783">
        <ele>181.300003</ele>
        <time>2013-05-15T12:45:04Z</time>
      </trkpt>
      <trkpt lat="43.64554" lon="6.78785">
        <ele>181.5</ele>
        <time>2013-05-15T12:45:05Z</time>
      </trkpt>
      <trkpt lat="43.64541" lon="6.78795">
        <ele>180.800003</ele>
        <time>2013-05-15T12:45:19Z</time>
      </trkpt>
      <trkpt lat="43.64533" lon="6.78793">
        <ele>181.199997</ele>
        <time>2013-05-15T12:45:24Z</time>
      </trkpt>
      <trkpt lat="43.64525" lon="6.78795">
        <ele>180.699997</ele>
        <time>2013-05-15T12:45:31Z</time>
      </trkpt>
      <trkpt lat="43.64518" lon="6.78801">
        <ele>180.899994</ele>
        <time>2013-05-15T12:45:38Z</time>
      </trkpt>
      <trkpt lat="43.64511" lon="6.78806">
        <ele>181.399994</ele>
        <time>2013-05-15T12:45:46Z</time>
      </trkpt>
      <trkpt lat="43.64505" lon="6.78815">
        <ele>180.899994</ele>
        <time>2013-05-15T12:45:56Z</time>
      </trkpt>
      <trkpt lat="43.64498" lon="6.78817">
        <ele>181.899994</ele>
        <time>2013-05-15T12:46:01Z</time>
      </trkpt>
      <trkpt lat="43.6449" lon="6.78824">
        <ele>182</ele>
        <time>2013-05-15T12:46:09Z</time>
      </trkpt>
      <trkpt lat="43.64489" lon="6.78825">
        <ele>182.100006</ele>
        <time>2013-05-15T12:46:10Z</time>
      </trkpt>
      <trkpt lat="43.64477" lon="6.78836">
        <ele>181.5</ele>
        <time>2013-05-15T12:46:21Z</time>
      </trkpt>
      <trkpt lat="43.64473" lon="6.78847">
        <ele>182</ele>
        <time>2013-05-15T12:46:37Z</time>
      </trkpt>
      <trkpt lat="43.6447" lon="6.78858">
        <ele>180.199997</ele>
        <time>2013-05-15T12:46:52Z</time>
      </trkpt>
      <trkpt lat="43.64464" lon="6.78866">
        <ele>181</ele>
        <time>2013-05-15T12:47:04Z</time>
      </trkpt>
      <trkpt lat="43.64459" lon="6.78876">
        <ele>181.399994</ele>
        <time>2013-05-15T12:47:14Z</time>
      </trkpt>
      <trkpt lat="43.64457" lon="6.78878">
        <ele>181.5</ele>
        <time>2013-05-15T12:47:15Z</time>
      </trkpt>
      <trkpt lat="43.64446" lon="6.78893">
        <ele>181.600006</ele>
        <time>2013-05-15T12:47:41Z</time>
      </trkpt>
      <trkpt lat="43.6444" lon="6.78899">
        <ele>180.5</ele>
        <time>2013-05-15T12:47:51Z</time>
      </trkpt>
      <trkpt lat="43.64432" lon="6.78902">
        <ele>179.800003</ele>
        <time>2013-05-15T12:47:59Z</time>
      </trkpt>
      <trkpt lat="43.64425" lon="6.7891">
        <ele>179.699997</ele>
        <time>2013-05-15T12:48:08Z</time>
      </trkpt>
      <trkpt lat="43.64419" lon="6.78918">
        <ele>179.100006</ele>
        <time>2013-05-15T12:48:23Z</time>
      </trkpt>
      <trkpt lat="43.64419" lon="6.78919">
        <ele>179</ele>
        <time>2013-05-15T12:48:24Z</time>
      </trkpt>
      <trkpt lat="43.64405" lon="6.78925">
        <ele>180.899994</ele>
        <time>2013-05-15T12:48:47Z</time>
      </trkpt>
      <trkpt lat="43.64397" lon="6.7893">
        <ele>182.100006</ele>
        <time>2013-05-15T12:48:56Z</time>
      </trkpt>
      <trkpt lat="43.64389" lon="6.78931">
        <ele>181.399994</ele>
        <time>2013-05-15T12:49:05Z</time>
      </trkpt>
      <trkpt lat="43.6438" lon="6.78934">
        <ele>180.399994</ele>
        <time>2013-05-15T12:49:18Z</time>
      </trkpt>
      <trkpt lat="43.64373" lon="6.78937">
        <ele>179.300003</ele>
        <time>2013-05-15T12:49:32Z</time>
      </trkpt>
      <trkpt lat="43.64372" lon="6.78937">
        <ele>179.300003</ele>
        <time>2013-05-15T12:49:33Z</time>
      </trkpt>
      <trkpt lat="43.64357" lon="6.78943">
        <ele>180.300003</ele>
        <time>2013-05-15T12:49:47Z</time>
      </trkpt>
      <trkpt lat="43.64348" lon="6.78944">
        <ele>180.899994</ele>
        <time>2013-05-15T12:49:52Z</time>
      </trkpt>
      <trkpt lat="43.6434" lon="6.78948">
        <ele>180.100006</ele>
        <time>2013-05-15T12:50:06Z</time>
      </trkpt>
      <trkpt lat="43.64332" lon="6.78954">
        <ele>180.5</ele>
        <time>2013-05-15T12:50:13Z</time>
      </trkpt>
      <trkpt lat="43.64327" lon="6.78963">
        <ele>181.100006</ele>
        <time>2013-05-15T12:50:22Z</time>
      </trkpt>
      <trkpt lat="43.64321" lon="6.78971">
        <ele>181</ele>
        <time>2013-05-15T12:50:33Z</time>
      </trkpt>
      <trkpt lat="43.6432" lon="6.78972">
        <ele>181.100006</ele>
        <time>2013-05-15T12:50:34Z</time>
      </trkpt>
      <trkpt lat="43.64333" lon="6.78987">
        <ele>180.5</ele>
        <time>2013-05-15T12:51:33Z</time>
      </trkpt>
      <trkpt lat="43.6434" lon="6.78993">
        <ele>178.699997</ele>
        <time>2013-05-15T12:51:59Z</time>
      </trkpt>
      <trkpt lat="43.6434" lon="6.78993">
        <ele>178.899994</ele>
        <time>2013-05-15T12:52:00Z</time>
      </trkpt>
      <trkpt lat="43.6435" lon="6.78997">
        <ele>178.199997</ele>
        <time>2013-05-15T12:53:05Z</time>
      </trkpt>
      <trkpt lat="43.64332" lon="6.79001">
        <ele>180.300003</ele>
        <time>2013-05-15T12:54:16Z</time>
      </trkpt>
      <trkpt lat="43.64331" lon="6.79001">
        <ele>180.300003</ele>
        <time>2013-05-15T12:54:17Z</time>
      </trkpt>
      <trkpt lat="43.64331" lon="6.79018">
        <ele>180.699997</ele>
        <time>2013-05-15T12:54:49Z</time>
      </trkpt>
      <trkpt lat="43.64331" lon="6.79031">
        <ele>181</ele>
        <time>2013-05-15T12:55:38Z</time>
      </trkpt>
      <trkpt lat="43.6433" lon="6.79032">
        <ele>181</ele>
        <time>2013-05-15T12:55:39Z</time>
      </trkpt>
      <trkpt lat="43.64328" lon="6.79042">
        <ele>179.199997</ele>
        <time>2013-05-15T12:56:27Z</time>
      </trkpt>
      <trkpt lat="43.64336" lon="6.7904">
        <ele>178.399994</ele>
        <time>2013-05-15T12:56:34Z</time>
      </trkpt>
      <trkpt lat="43.64341" lon="6.79048">
        <ele>178.199997</ele>
        <time>2013-05-15T12:56:43Z</time>
      </trkpt>
      <trkpt lat="43.64342" lon="6.7905">
        <ele>178.399994</ele>
        <time>2013-05-15T12:56:44Z</time>
      </trkpt>
      <trkpt lat="43.64332" lon="6.79069">
        <ele>178.699997</ele>
        <time>2013-05-15T12:57:04Z</time>
      </trkpt>
      <trkpt lat="43.64327" lon="6.79079">
        <ele>177.800003</ele>
        <time>2013-05-15T12:57:18Z</time>
      </trkpt>
      <trkpt lat="43.64335" lon="6.79078">
        <ele>177.699997</ele>
        <time>2013-05-15T12:58:44Z</time>
      </trkpt>
      <trkpt lat="43.64336" lon="6.79077">
        <ele>177.699997</ele>
        <time>2013-05-15T12:58:45Z</time>
      </trkpt>
      <trkpt lat="43.64346" lon="6.79069">
        <ele>178.899994</ele>
        <time>2013-05-15T13:00:27Z</time>
      </trkpt>
      <trkpt lat="43.64347" lon="6.7907">
        <ele>178.899994</ele>
        <time>2013-05-15T13:00:28Z</time>
      </trkpt>
      <trkpt lat="43.64349" lon="6.7906">
        <ele>179.399994</ele>
        <time>2013-05-15T13:01:44Z</time>
      </trkpt>
      <trkpt lat="43.6435" lon="6.79061">
        <ele>179.5</ele>
        <time>2013-05-15T13:01:45Z</time>
      </trkpt>
      <trkpt lat="43.64349" lon="6.7906">
        <ele>182</ele>
        <time>2013-05-15T13:02:36Z</time>
      </trkpt>
      <trkpt lat="43.6434" lon="6.79064">
        <ele>180.100006</ele>
        <time>2013-05-15T13:03:55Z</time>
      </trkpt>
      <trkpt lat="43.6434" lon="6.79064">
        <ele>180.199997</ele>
        <time>2013-05-15T13:03:56Z</time>
      </trkpt>
      <trkpt lat="43.64349" lon="6.79078">
        <ele>180.300003</ele>
        <time>2013-05-15T13:04:51Z</time>
      </trkpt>
      <trkpt lat="43.64342" lon="6.79072">
        <ele>181.300003</ele>
        <time>2013-05-15T13:05:55Z</time>
      </trkpt>
      <trkpt lat="43.64341" lon="6.7907">
        <ele>181.399994</ele>
        <time>2013-05-15T13:05:56Z</time>
      </trkpt>
      <trkpt lat="43.64343" lon="6.79063">
        <ele>180.899994</ele>
        <time>2013-05-15T13:06:46Z</time>
      </trkpt>
      <trkpt lat="43.64346" lon="6.79052">
        <ele>180.399994</ele>
        <time>2013-05-15T13:07:24Z</time>
      </trkpt>
      <trkpt lat="43.64346" lon="6.79051">
        <ele>180</ele>
        <time>2013-05-15T13:07:25Z</time>
      </trkpt>
      <trkpt lat="43.64338" lon="6.7903">
        <ele>180.399994</ele>
        <time>2013-05-15T13:07:51Z</time>
      </trkpt>
      <trkpt lat="43.6433" lon="6.79028">
        <ele>180.600006</ele>
        <time>2013-05-15T13:08:04Z</time>
      </trkpt>
      <trkpt lat="43.64326" lon="6.79018">
        <ele>181.100006</ele>
        <time>2013-05-15T13:08:27Z</time>
      </trkpt>
      <trkpt lat="43.64325" lon="6.79017">
        <ele>180.899994</ele>
        <time>2013-05-15T13:08:28Z</time>
      </trkpt>
      <trkpt lat="43.64338" lon="6.79033">
        <ele>181.899994</ele>
        <time>2013-05-15T13:09:10Z</time>
      </trkpt>
      <trkpt lat="43.6433" lon="6.79028">
        <ele>181.600006</ele>
        <time>2013-05-15T13:09:37Z</time>
      </trkpt>
      <trkpt lat="43.6433" lon="6.79028">
        <ele>181.5</ele>
        <time>2013-05-15T13:09:38Z</time>
      </trkpt>
      <trkpt lat="43.6433" lon="6.7903">
        <ele>181.5</ele>
        <time>2013-05-15T13:10:29Z</time>
      </trkpt>
      <trkpt lat="43.64328" lon="6.79019">
        <ele>183</ele>
        <time>2013-05-15T13:12:02Z</time>
      </trkpt>
      <trkpt lat="43.64328" lon="6.79018">
        <ele>183.199997</ele>
        <time>2013-05-15T13:12:03Z</time>
      </trkpt>
      <trkpt lat="43.64319" lon="6.78999">
        <ele>186.300003</ele>
        <time>2013-05-15T13:12:24Z</time>
      </trkpt>
      <trkpt lat="43.64314" lon="6.78991">
        <ele>186.899994</ele>
        <time>2013-05-15T13:12:34Z</time>
      </trkpt>
      <trkpt lat="43.64307" lon="6.78985">
        <ele>187.699997</ele>
        <time>2013-05-15T13:12:47Z</time>
      </trkpt>
      <trkpt lat="43.64298" lon="6.78987">
        <ele>188.600006</ele>
        <time>2013-05-15T13:12:58Z</time>
      </trkpt>
      <trkpt lat="43.6429" lon="6.78984">
        <ele>191.800003</ele>
        <time>2013-05-15T13:13:15Z</time>
      </trkpt>
      <trkpt lat="43.64289" lon="6.78985">
        <ele>192.100006</ele>
        <time>2013-05-15T13:13:16Z</time>
      </trkpt>
      <trkpt lat="43.64284" lon="6.78999">
        <ele>195.5</ele>
        <time>2013-05-15T13:13:51Z</time>
      </trkpt>
      <trkpt lat="43.64281" lon="6.79011">
        <ele>196.600006</ele>
        <time>2013-05-15T13:14:13Z</time>
      </trkpt>
      <trkpt lat="43.64275" lon="6.79019">
        <ele>197.199997</ele>
        <time>2013-05-15T13:14:23Z</time>
      </trkpt>
      <trkpt lat="43.64275" lon="6.7902">
        <ele>197.300003</ele>
        <time>2013-05-15T13:14:24Z</time>
      </trkpt>
      <trkpt lat="43.64263" lon="6.79035">
        <ele>197.100006</ele>
        <time>2013-05-15T13:14:40Z</time>
      </trkpt>
      <trkpt lat="43.64257" lon="6.79044">
        <ele>197.800003</ele>
        <time>2013-05-15T13:14:52Z</time>
      </trkpt>
      <trkpt lat="43.64253" lon="6.79053">
        <ele>197.899994</ele>
        <time>2013-05-15T13:15:02Z</time>
      </trkpt>
      <trkpt lat="43.64246" lon="6.79059">
        <ele>196.899994</ele>
        <time>2013-05-15T13:15:10Z</time>
      </trkpt>
      <trkpt lat="43.64237" lon="6.7906">
        <ele>197.300003</ele>
        <time>2013-05-15T13:15:16Z</time>
      </trkpt>
      <trkpt lat="43.64228" lon="6.79061">
        <ele>197.199997</ele>
        <time>2013-05-15T13:15:28Z</time>
      </trkpt>
      <trkpt lat="43.64228" lon="6.79062">
        <ele>196.899994</ele>
        <time>2013-05-15T13:15:29Z</time>
      </trkpt>
      <trkpt lat="43.64216" lon="6.79078">
        <ele>196.699997</ele>
        <time>2013-05-15T13:16:06Z</time>
      </trkpt>
      <trkpt lat="43.64208" lon="6.79083">
        <ele>196.800003</ele>
        <time>2013-05-15T13:16:16Z</time>
      </trkpt>
      <trkpt lat="43.64201" lon="6.79088">
        <ele>196.199997</ele>
        <time>2013-05-15T13:16:26Z</time>
      </trkpt>
      <trkpt lat="43.64193" lon="6.79092">
        <ele>195.899994</ele>
        <time>2013-05-15T13:16:33Z</time>
      </trkpt>
      <trkpt lat="43.64192" lon="6.79094">
        <ele>196.100006</ele>
        <time>2013-05-15T13:16:34Z</time>
      </trkpt>
      <trkpt lat="43.64183" lon="6.79109">
        <ele>195.899994</ele>
        <time>2013-05-15T13:16:50Z</time>
      </trkpt>
      <trkpt lat="43.64175" lon="6.79114">
        <ele>195.300003</ele>
        <time>2013-05-15T13:16:56Z</time>
      </trkpt>
      <trkpt lat="43.64166" lon="6.79117">
        <ele>192.800003</ele>
        <time>2013-05-15T13:17:21Z</time>
      </trkpt>
      <trkpt lat="43.64158" lon="6.79116">
        <ele>191.699997</ele>
        <time>2013-05-15T13:17:30Z</time>
      </trkpt>
      <trkpt lat="43.6415" lon="6.79117">
        <ele>189.5</ele>
        <time>2013-05-15T13:17:39Z</time>
      </trkpt>
      <trkpt lat="43.64149" lon="6.79118">
        <ele>189.100006</ele>
        <time>2013-05-15T13:17:40Z</time>
      </trkpt>
      <trkpt lat="43.64146" lon="6.7914">
        <ele>187.199997</ele>
        <time>2013-05-15T13:18:10Z</time>
      </trkpt>
      <trkpt lat="43.64141" lon="6.79148">
        <ele>187.5</ele>
        <time>2013-05-15T13:18:14Z</time>
      </trkpt>
      <trkpt lat="43.64133" lon="6.79154">
        <ele>185.699997</ele>
        <time>2013-05-15T13:18:21Z</time>
      </trkpt>
      <trkpt lat="43.64125" lon="6.79154">
        <ele>186.199997</ele>
        <time>2013-05-15T13:18:28Z</time>
      </trkpt>
      <trkpt lat="43.64118" lon="6.79161">
        <ele>186.300003</ele>
        <time>2013-05-15T13:18:36Z</time>
      </trkpt>
      <trkpt lat="43.64109" lon="6.79169">
        <ele>185</ele>
        <time>2013-05-15T13:18:45Z</time>
      </trkpt>
      <trkpt lat="43.64108" lon="6.79171">
        <ele>186</ele>
        <time>2013-05-15T13:18:47Z</time>
      </trkpt>
      <trkpt lat="43.64096" lon="6.7918">
        <ele>185.600006</ele>
        <time>2013-05-15T13:19:01Z</time>
      </trkpt>
      <trkpt lat="43.64089" lon="6.79185">
        <ele>184.600006</ele>
        <time>2013-05-15T13:19:07Z</time>
      </trkpt>
      <trkpt lat="43.6408" lon="6.79188">
        <ele>183.699997</ele>
        <time>2013-05-15T13:19:13Z</time>
      </trkpt>
      <trkpt lat="43.64074" lon="6.79196">
        <ele>183.5</ele>
        <time>2013-05-15T13:19:22Z</time>
      </trkpt>
      <trkpt lat="43.64065" lon="6.79198">
        <ele>183.399994</ele>
        <time>2013-05-15T13:19:29Z</time>
      </trkpt>
      <trkpt lat="43.64059" lon="6.79205">
        <ele>182.399994</ele>
        <time>2013-05-15T13:19:36Z</time>
      </trkpt>
      <trkpt lat="43.64055" lon="6.79213">
        <ele>182.100006</ele>
        <time>2013-05-15T13:19:40Z</time>
      </trkpt>
      <trkpt lat="43.6405" lon="6.79223">
        <ele>181.5</ele>
        <time>2013-05-15T13:19:48Z</time>
      </trkpt>
      <trkpt lat="43.64048" lon="6.79223">
        <ele>181.600006</ele>
        <time>2013-05-15T13:19:49Z</time>
      </trkpt>
      <trkpt lat="43.64038" lon="6.79238">
        <ele>180.399994</ele>
        <time>2013-05-15T13:20:01Z</time>
      </trkpt>
      <trkpt lat="43.64035" lon="6.79248">
        <ele>180.399994</ele>
        <time>2013-05-15T13:20:06Z</time>
      </trkpt>
      <trkpt lat="43.64033" lon="6.7926">
        <ele>179.399994</ele>
        <time>2013-05-15T13:20:12Z</time>
      </trkpt>
      <trkpt lat="43.64026" lon="6.79267">
        <ele>179.300003</ele>
        <time>2013-05-15T13:20:19Z</time>
      </trkpt>
      <trkpt lat="43.64019" lon="6.79273">
        <ele>178.699997</ele>
        <time>2013-05-15T13:20:25Z</time>
      </trkpt>
      <trkpt lat="43.64014" lon="6.79283">
        <ele>177.800003</ele>
        <time>2013-05-15T13:20:36Z</time>
      </trkpt>
      <trkpt lat="43.6401" lon="6.79293">
        <ele>176.5</ele>
        <time>2013-05-15T13:20:46Z</time>
      </trkpt>
      <trkpt lat="43.64002" lon="6.79296">
        <ele>176.5</ele>
        <time>2013-05-15T13:20:52Z</time>
      </trkpt>
      <trkpt lat="43.64001" lon="6.79297">
        <ele>176.399994</ele>
        <time>2013-05-15T13:20:53Z</time>
      </trkpt>
      <trkpt lat="43.63988" lon="6.79306">
        <ele>176</ele>
        <time>2013-05-15T13:21:10Z</time>
      </trkpt>
      <trkpt lat="43.6398" lon="6.79308">
        <ele>176.300003</ele>
        <time>2013-05-15T13:21:16Z</time>
      </trkpt>
      <trkpt lat="43.63973" lon="6.79314">
        <ele>175.899994</ele>
        <time>2013-05-15T13:21:21Z</time>
      </trkpt>
      <trkpt lat="43.63966" lon="6.79317">
        <ele>176</ele>
        <time>2013-05-15T13:21:26Z</time>
      </trkpt>
      <trkpt lat="43.63959" lon="6.79322">
        <ele>175.899994</ele>
        <time>2013-05-15T13:21:34Z</time>
      </trkpt>
      <trkpt lat="43.63952" lon="6.79326">
        <ele>176.300003</ele>
        <time>2013-05-15T13:21:38Z</time>
      </trkpt>
      <trkpt lat="43.63944" lon="6.79332">
        <ele>176.5</ele>
        <time>2013-05-15T13:21:44Z</time>
      </trkpt>
      <trkpt lat="43.63936" lon="6.79337">
        <ele>176.199997</ele>
        <time>2013-05-15T13:21:52Z</time>
      </trkpt>
      <trkpt lat="43.63929" lon="6.79338">
        <ele>176.600006</ele>
        <time>2013-05-15T13:22:00Z</time>
      </trkpt>
      <trkpt lat="43.63926" lon="6.79337">
        <ele>176.300003</ele>
        <time>2013-05-15T13:22:01Z</time>
      </trkpt>
      <trkpt lat="43.63912" lon="6.79338">
        <ele>177.100006</ele>
        <time>2013-05-15T13:22:13Z</time>
      </trkpt>
      <trkpt lat="43.63906" lon="6.79347">
        <ele>176.199997</ele>
        <time>2013-05-15T13:22:19Z</time>
      </trkpt>
      <trkpt lat="43.63899" lon="6.79349">
        <ele>176.300003</ele>
        <time>2013-05-15T13:22:24Z</time>
      </trkpt>
      <trkpt lat="43.63891" lon="6.79351">
        <ele>176.399994</ele>
        <time>2013-05-15T13:22:30Z</time>
      </trkpt>
      <trkpt lat="43.63885" lon="6.7936">
        <ele>176.800003</ele>
        <time>2013-05-15T13:22:38Z</time>
      </trkpt>
      <trkpt lat="43.63878" lon="6.79366">
        <ele>177.5</ele>
        <time>2013-05-15T13:22:42Z</time>
      </trkpt>
      <trkpt lat="43.6387" lon="6.79363">
        <ele>177.699997</ele>
        <time>2013-05-15T13:22:52Z</time>
      </trkpt>
      <trkpt lat="43.63862" lon="6.79365">
        <ele>178.300003</ele>
        <time>2013-05-15T13:22:58Z</time>
      </trkpt>
      <trkpt lat="43.63854" lon="6.79364">
        <ele>179.399994</ele>
        <time>2013-05-15T13:23:06Z</time>
      </trkpt>
      <trkpt lat="43.63853" lon="6.79365">
        <ele>179.600006</ele>
        <time>2013-05-15T13:23:07Z</time>
      </trkpt>
      <trkpt lat="43.63839" lon="6.79359">
        <ele>179.800003</ele>
        <time>2013-05-15T13:23:19Z</time>
      </trkpt>
      <trkpt lat="43.6383" lon="6.79357">
        <ele>179.600006</ele>
        <time>2013-05-15T13:23:27Z</time>
      </trkpt>
      <trkpt lat="43.63822" lon="6.79356">
        <ele>179.899994</ele>
        <time>2013-05-15T13:23:34Z</time>
      </trkpt>
      <trkpt lat="43.63814" lon="6.79351">
        <ele>180</ele>
        <time>2013-05-15T13:23:42Z</time>
      </trkpt>
      <trkpt lat="43.63807" lon="6.79346">
        <ele>180.5</ele>
        <time>2013-05-15T13:23:48Z</time>
      </trkpt>
      <trkpt lat="43.63799" lon="6.7935">
        <ele>180.800003</ele>
        <time>2013-05-15T13:23:55Z</time>
      </trkpt>
      <trkpt lat="43.63791" lon="6.79348">
        <ele>180.699997</ele>
        <time>2013-05-15T13:24:00Z</time>
      </trkpt>
      <trkpt lat="43.63782" lon="6.79351">
        <ele>180.899994</ele>
        <time>2013-05-15T13:24:07Z</time>
      </trkpt>
      <trkpt lat="43.63782" lon="6.79352">
        <ele>181</ele>
        <time>2013-05-15T13:24:08Z</time>
      </trkpt>
      <trkpt lat="43.63767" lon="6.79361">
        <ele>180.100006</ele>
        <time>2013-05-15T13:24:21Z</time>
      </trkpt>
      <trkpt lat="43.63759" lon="6.79357">
        <ele>178.899994</ele>
        <time>2013-05-15T13:24:36Z</time>
      </trkpt>
      <trkpt lat="43.63751" lon="6.79361">
        <ele>178</ele>
        <time>2013-05-15T13:24:45Z</time>
      </trkpt>
      <trkpt lat="43.63743" lon="6.79361">
        <ele>177.100006</ele>
        <time>2013-05-15T13:24:52Z</time>
      </trkpt>
      <trkpt lat="43.63736" lon="6.79368">
        <ele>176</ele>
        <time>2013-05-15T13:24:58Z</time>
      </trkpt>
      <trkpt lat="43.63728" lon="6.79374">
        <ele>175.100006</ele>
        <time>2013-05-15T13:25:04Z</time>
      </trkpt>
      <trkpt lat="43.6372" lon="6.79375">
        <ele>174.399994</ele>
        <time>2013-05-15T13:25:12Z</time>
      </trkpt>
      <trkpt lat="43.63719" lon="6.79375">
        <ele>174.300003</ele>
        <time>2013-05-15T13:25:13Z</time>
      </trkpt>
      <trkpt lat="43.63704" lon="6.79383">
        <ele>173.300003</ele>
        <time>2013-05-15T13:26:12Z</time>
      </trkpt>
      <trkpt lat="43.63695" lon="6.79381">
        <ele>173.899994</ele>
        <time>2013-05-15T13:26:19Z</time>
      </trkpt>
      <trkpt lat="43.63694" lon="6.79383">
        <ele>173.699997</ele>
        <time>2013-05-15T13:26:20Z</time>
      </trkpt>
      <trkpt lat="43.63678" lon="6.79386">
        <ele>173.699997</ele>
        <time>2013-05-15T13:26:33Z</time>
      </trkpt>
      <trkpt lat="43.63671" lon="6.79382">
        <ele>173</ele>
        <time>2013-05-15T13:26:41Z</time>
      </trkpt>
      <trkpt lat="43.63663" lon="6.79376">
        <ele>172.800003</ele>
        <time>2013-05-15T13:26:48Z</time>
      </trkpt>
      <trkpt lat="43.63657" lon="6.79369">
        <ele>173.199997</ele>
        <time>2013-05-15T13:26:56Z</time>
      </trkpt>
      <trkpt lat="43.6365" lon="6.79368">
        <ele>173.199997</ele>
        <time>2013-05-15T13:27:04Z</time>
      </trkpt>
      <trkpt lat="43.63641" lon="6.79366">
        <ele>172.399994</ele>
        <time>2013-05-15T13:27:09Z</time>
      </trkpt>
      <trkpt lat="43.63634" lon="6.79365">
        <ele>173.100006</ele>
        <time>2013-05-15T13:27:24Z</time>
      </trkpt>
      <trkpt lat="43.63632" lon="6.79365">
        <ele>173.300003</ele>
        <time>2013-05-15T13:27:25Z</time>
      </trkpt>
      <trkpt lat="43.63618" lon="6.7936">
        <ele>172.800003</ele>
        <time>2013-05-15T13:27:37Z</time>
      </trkpt>
      <trkpt lat="43.6361" lon="6.79356">
        <ele>173</ele>
        <time>2013-05-15T13:27:42Z</time>
      </trkpt>
      <trkpt lat="43.63602" lon="6.7935">
        <ele>172.699997</ele>
        <time>2013-05-15T13:27:51Z</time>
      </trkpt>
      <trkpt lat="43.63595" lon="6.79347">
        <ele>172.800003</ele>
        <time>2013-05-15T13:27:58Z</time>
      </trkpt>
      <trkpt lat="43.63588" lon="6.79339">
        <ele>172.100006</ele>
        <time>2013-05-15T13:28:05Z</time>
      </trkpt>
      <trkpt lat="43.63583" lon="6.79331">
        <ele>172.699997</ele>
        <time>2013-05-15T13:28:15Z</time>
      </trkpt>
      <trkpt lat="43.63583" lon="6.79318">
        <ele>173.199997</ele>
        <time>2013-05-15T13:28:35Z</time>
      </trkpt>
      <trkpt lat="43.63583" lon="6.79318">
        <ele>173.100006</ele>
        <time>2013-05-15T13:28:36Z</time>
      </trkpt>
      <trkpt lat="43.63567" lon="6.79312">
        <ele>174.5</ele>
        <time>2013-05-15T13:29:16Z</time>
      </trkpt>
      <trkpt lat="43.6356" lon="6.79306">
        <ele>174.699997</ele>
        <time>2013-05-15T13:29:20Z</time>
      </trkpt>
      <trkpt lat="43.63554" lon="6.79299">
        <ele>174.600006</ele>
        <time>2013-05-15T13:29:26Z</time>
      </trkpt>
      <trkpt lat="43.63547" lon="6.79294">
        <ele>174.199997</ele>
        <time>2013-05-15T13:29:30Z</time>
      </trkpt>
      <trkpt lat="43.63543" lon="6.79285">
        <ele>174.399994</ele>
        <time>2013-05-15T13:29:34Z</time>
      </trkpt>
      <trkpt lat="43.63536" lon="6.79279">
        <ele>173.5</ele>
        <time>2013-05-15T13:29:41Z</time>
      </trkpt>
      <trkpt lat="43.63535" lon="6.79278">
        <ele>173.399994</ele>
        <time>2013-05-15T13:29:42Z</time>
      </trkpt>
      <trkpt lat="43.63521" lon="6.79276">
        <ele>173.100006</ele>
        <time>2013-05-15T13:29:52Z</time>
      </trkpt>
      <trkpt lat="43.63513" lon="6.79274">
        <ele>174.100006</ele>
        <time>2013-05-15T13:29:59Z</time>
      </trkpt>
      <trkpt lat="43.63505" lon="6.79268">
        <ele>174.100006</ele>
        <time>2013-05-15T13:30:05Z</time>
      </trkpt>
      <trkpt lat="43.63498" lon="6.79263">
        <ele>174.199997</ele>
        <time>2013-05-15T13:30:16Z</time>
      </trkpt>
      <trkpt lat="43.63491" lon="6.79258">
        <ele>173.699997</ele>
        <time>2013-05-15T13:30:30Z</time>
      </trkpt>
      <trkpt lat="43.63483" lon="6.79253">
        <ele>172.600006</ele>
        <time>2013-05-15T13:30:38Z</time>
      </trkpt>
      <trkpt lat="43.63475" lon="6.7925">
        <ele>173.300003</ele>
        <time>2013-05-15T13:30:47Z</time>
      </trkpt>
      <trkpt lat="43.63473" lon="6.7925">
        <ele>173.199997</ele>
        <time>2013-05-15T13:30:48Z</time>
      </trkpt>
      <trkpt lat="43.63459" lon="6.79242">
        <ele>173.699997</ele>
        <time>2013-05-15T13:30:58Z</time>
      </trkpt>
      <trkpt lat="43.63452" lon="6.79236">
        <ele>173.600006</ele>
        <time>2013-05-15T13:31:07Z</time>
      </trkpt>
      <trkpt lat="43.63444" lon="6.79232">
        <ele>173.899994</ele>
        <time>2013-05-15T13:31:16Z</time>
      </trkpt>
      <trkpt lat="43.6344" lon="6.79221">
        <ele>173.899994</ele>
        <time>2013-05-15T13:31:25Z</time>
      </trkpt>
      <trkpt lat="43.63435" lon="6.79212">
        <ele>174</ele>
        <time>2013-05-15T13:31:32Z</time>
      </trkpt>
      <trkpt lat="43.63434" lon="6.792">
        <ele>173.800003</ele>
        <time>2013-05-15T13:31:43Z</time>
      </trkpt>
      <trkpt lat="43.63429" lon="6.7919">
        <ele>174</ele>
        <time>2013-05-15T13:31:53Z</time>
      </trkpt>
      <trkpt lat="43.63428" lon="6.7919">
        <ele>174.199997</ele>
        <time>2013-05-15T13:31:54Z</time>
      </trkpt>
      <trkpt lat="43.63413" lon="6.79186">
        <ele>175.199997</ele>
        <time>2013-05-15T13:32:05Z</time>
      </trkpt>
      <trkpt lat="43.63405" lon="6.79182">
        <ele>175.199997</ele>
        <time>2013-05-15T13:32:12Z</time>
      </trkpt>
      <trkpt lat="43.63397" lon="6.79178">
        <ele>174.800003</ele>
        <time>2013-05-15T13:32:17Z</time>
      </trkpt>
      <trkpt lat="43.63388" lon="6.79176">
        <ele>174.5</ele>
        <time>2013-05-15T13:32:25Z</time>
      </trkpt>
      <trkpt lat="43.63382" lon="6.79179">
        <ele>175</ele>
        <time>2013-05-15T13:32:28Z</time>
      </trkpt>
      <trkpt lat="43.63373" lon="6.7918">
        <ele>175.100006</ele>
        <time>2013-05-15T13:32:32Z</time>
      </trkpt>
      <trkpt lat="43.63365" lon="6.79181">
        <ele>174.800003</ele>
        <time>2013-05-15T13:32:37Z</time>
      </trkpt>
      <trkpt lat="43.63357" lon="6.79181">
        <ele>175.699997</ele>
        <time>2013-05-15T13:32:46Z</time>
      </trkpt>
      <trkpt lat="43.63349" lon="6.79178">
        <ele>175.5</ele>
        <time>2013-05-15T13:32:55Z</time>
      </trkpt>
      <trkpt lat="43.63347" lon="6.79177">
        <ele>175.399994</ele>
        <time>2013-05-15T13:32:56Z</time>
      </trkpt>
      <trkpt lat="43.63333" lon="6.79173">
        <ele>176.600006</ele>
        <time>2013-05-15T13:33:09Z</time>
      </trkpt>
      <trkpt lat="43.63325" lon="6.79174">
        <ele>176.800003</ele>
        <time>2013-05-15T13:33:15Z</time>
      </trkpt>
      <trkpt lat="43.63316" lon="6.79179">
        <ele>177.399994</ele>
        <time>2013-05-15T13:33:22Z</time>
      </trkpt>
      <trkpt lat="43.6331" lon="6.79183">
        <ele>177.199997</ele>
        <time>2013-05-15T13:33:26Z</time>
      </trkpt>
      <trkpt lat="43.63304" lon="6.79189">
        <ele>176.600006</ele>
        <time>2013-05-15T13:33:31Z</time>
      </trkpt>
      <trkpt lat="43.63296" lon="6.79195">
        <ele>176.100006</ele>
        <time>2013-05-15T13:33:39Z</time>
      </trkpt>
      <trkpt lat="43.6329" lon="6.79204">
        <ele>176.300003</ele>
        <time>2013-05-15T13:33:46Z</time>
      </trkpt>
      <trkpt lat="43.63283" lon="6.79209">
        <ele>176.199997</ele>
        <time>2013-05-15T13:33:55Z</time>
      </trkpt>
      <trkpt lat="43.63277" lon="6.79217">
        <ele>175</ele>
        <time>2013-05-15T13:34:00Z</time>
      </trkpt>
      <trkpt lat="43.63276" lon="6.79219">
        <ele>174.699997</ele>
        <time>2013-05-15T13:34:01Z</time>
      </trkpt>
      <trkpt lat="43.63271" lon="6.79239">
        <ele>174.5</ele>
        <time>2013-05-15T13:34:12Z</time>
      </trkpt>
      <trkpt lat="43.63269" lon="6.79249">
        <ele>174.5</ele>
        <time>2013-05-15T13:34:20Z</time>
      </trkpt>
      <trkpt lat="43.63266" lon="6.7926">
        <ele>174.600006</ele>
        <time>2013-05-15T13:34:28Z</time>
      </trkpt>
      <trkpt lat="43.63265" lon="6.79272">
        <ele>173.800003</ele>
        <time>2013-05-15T13:34:35Z</time>
      </trkpt>
      <trkpt lat="43.63266" lon="6.79283">
        <ele>173.600006</ele>
        <time>2013-05-15T13:34:44Z</time>
      </trkpt>
      <trkpt lat="43.63265" lon="6.79295">
        <ele>174.300003</ele>
        <time>2013-05-15T13:34:51Z</time>
      </trkpt>
      <trkpt lat="43.63267" lon="6.79307">
        <ele>173.800003</ele>
        <time>2013-05-15T13:34:58Z</time>
      </trkpt>
      <trkpt lat="43.63273" lon="6.79315">
        <ele>173.800003</ele>
        <time>2013-05-15T13:35:05Z</time>
      </trkpt>
      <trkpt lat="43.63274" lon="6.79316">
        <ele>173.899994</ele>
        <time>2013-05-15T13:35:06Z</time>
      </trkpt>
      <trkpt lat="43.63283" lon="6.79333">
        <ele>174.5</ele>
        <time>2013-05-15T13:35:26Z</time>
      </trkpt>
      <trkpt lat="43.63285" lon="6.79321">
        <ele>174.600006</ele>
        <time>2013-05-15T13:36:10Z</time>
      </trkpt>
      <trkpt lat="43.63284" lon="6.7932">
        <ele>174.5</ele>
        <time>2013-05-15T13:36:11Z</time>
      </trkpt>
      <trkpt lat="43.63282" lon="6.79333">
        <ele>176</ele>
        <time>2013-05-15T13:38:36Z</time>
      </trkpt>
      <trkpt lat="43.63268" lon="6.79346">
        <ele>173.699997</ele>
        <time>2013-05-15T13:40:57Z</time>
      </trkpt>
      <trkpt lat="43.63268" lon="6.79347">
        <ele>173.399994</ele>
        <time>2013-05-15T13:40:58Z</time>
      </trkpt>
      <trkpt lat="43.63261" lon="6.79368">
        <ele>173.800003</ele>
        <time>2013-05-15T13:41:23Z</time>
      </trkpt>
      <trkpt lat="43.6326" lon="6.79379">
        <ele>174.199997</ele>
        <time>2013-05-15T13:41:31Z</time>
      </trkpt>
      <trkpt lat="43.63259" lon="6.7939">
        <ele>172.5</ele>
        <time>2013-05-15T13:41:37Z</time>
      </trkpt>
      <trkpt lat="43.63257" lon="6.79401">
        <ele>172.600006</ele>
        <time>2013-05-15T13:41:44Z</time>
      </trkpt>
      <trkpt lat="43.63258" lon="6.79412">
        <ele>172.199997</ele>
        <time>2013-05-15T13:41:53Z</time>
      </trkpt>
      <trkpt lat="43.63258" lon="6.79424">
        <ele>171.100006</ele>
        <time>2013-05-15T13:41:59Z</time>
      </trkpt>
      <trkpt lat="43.63258" lon="6.79426">
        <ele>170.899994</ele>
        <time>2013-05-15T13:42:00Z</time>
      </trkpt>
      <trkpt lat="43.63261" lon="6.79448">
        <ele>171.100006</ele>
        <time>2013-05-15T13:42:11Z</time>
      </trkpt>
      <trkpt lat="43.63259" lon="6.79459">
        <ele>171.5</ele>
        <time>2013-05-15T13:42:18Z</time>
      </trkpt>
      <trkpt lat="43.63257" lon="6.79469">
        <ele>170.800003</ele>
        <time>2013-05-15T13:42:23Z</time>
      </trkpt>
      <trkpt lat="43.63253" lon="6.79479">
        <ele>171.300003</ele>
        <time>2013-05-15T13:42:28Z</time>
      </trkpt>
      <trkpt lat="43.6325" lon="6.7949">
        <ele>171.699997</ele>
        <time>2013-05-15T13:42:36Z</time>
      </trkpt>
      <trkpt lat="43.63245" lon="6.79498">
        <ele>171.199997</ele>
        <time>2013-05-15T13:42:41Z</time>
      </trkpt>
      <trkpt lat="43.63239" lon="6.79505">
        <ele>170.600006</ele>
        <time>2013-05-15T13:42:45Z</time>
      </trkpt>
      <trkpt lat="43.63232" lon="6.79511">
        <ele>171.199997</ele>
        <time>2013-05-15T13:42:51Z</time>
      </trkpt>
      <trkpt lat="43.63226" lon="6.79518">
        <ele>171.399994</ele>
        <time>2013-05-15T13:42:56Z</time>
      </trkpt>
      <trkpt lat="43.63221" lon="6.79525">
        <ele>171.199997</ele>
        <time>2013-05-15T13:43:00Z</time>
      </trkpt>
      <trkpt lat="43.63219" lon="6.79527">
        <ele>171.699997</ele>
        <time>2013-05-15T13:43:01Z</time>
      </trkpt>
      <trkpt lat="43.6321" lon="6.7954">
        <ele>171.199997</ele>
        <time>2013-05-15T13:43:12Z</time>
      </trkpt>
      <trkpt lat="43.63204" lon="6.79546">
        <ele>172.199997</ele>
        <time>2013-05-15T13:43:16Z</time>
      </trkpt>
      <trkpt lat="43.63198" lon="6.79553">
        <ele>171.5</ele>
        <time>2013-05-15T13:43:21Z</time>
      </trkpt>
      <trkpt lat="43.63191" lon="6.79561">
        <ele>170.399994</ele>
        <time>2013-05-15T13:43:29Z</time>
      </trkpt>
      <trkpt lat="43.63185" lon="6.79568">
        <ele>171.600006</ele>
        <time>2013-05-15T13:43:36Z</time>
      </trkpt>
      <trkpt lat="43.63188" lon="6.79579">
        <ele>171.300003</ele>
        <time>2013-05-15T13:43:58Z</time>
      </trkpt>
      <trkpt lat="43.6318" lon="6.79577">
        <ele>171.199997</ele>
        <time>2013-05-15T13:44:09Z</time>
      </trkpt>
      <trkpt lat="43.63179" lon="6.79577">
        <ele>171.100006</ele>
        <time>2013-05-15T13:44:10Z</time>
      </trkpt>
      <trkpt lat="43.63168" lon="6.7959">
        <ele>171.5</ele>
        <time>2013-05-15T13:44:22Z</time>
      </trkpt>
      <trkpt lat="43.63163" lon="6.79599">
        <ele>172.100006</ele>
        <time>2013-05-15T13:44:34Z</time>
      </trkpt>
      <trkpt lat="43.63156" lon="6.79606">
        <ele>172.899994</ele>
        <time>2013-05-15T13:44:40Z</time>
      </trkpt>
      <trkpt lat="43.63149" lon="6.79611">
        <ele>172.600006</ele>
        <time>2013-05-15T13:44:46Z</time>
      </trkpt>
      <trkpt lat="43.63141" lon="6.79612">
        <ele>171.899994</ele>
        <time>2013-05-15T13:44:51Z</time>
      </trkpt>
      <trkpt lat="43.63134" lon="6.79613">
        <ele>171.100006</ele>
        <time>2013-05-15T13:44:56Z</time>
      </trkpt>
      <trkpt lat="43.63127" lon="6.79609">
        <ele>170.300003</ele>
        <time>2013-05-15T13:45:00Z</time>
      </trkpt>
      <trkpt lat="43.63118" lon="6.79605">
        <ele>169.300003</ele>
        <time>2013-05-15T13:45:05Z</time>
      </trkpt>
      <trkpt lat="43.6311" lon="6.79601">
        <ele>169</ele>
        <time>2013-05-15T13:45:12Z</time>
      </trkpt>
      <trkpt lat="43.63109" lon="6.796">
        <ele>168.699997</ele>
        <time>2013-05-15T13:45:13Z</time>
      </trkpt>
      <trkpt lat="43.63094" lon="6.79599">
        <ele>168.600006</ele>
        <time>2013-05-15T13:45:25Z</time>
      </trkpt>
      <trkpt lat="43.63087" lon="6.79599">
        <ele>168.899994</ele>
        <time>2013-05-15T13:45:29Z</time>
      </trkpt>
      <trkpt lat="43.6308" lon="6.79604">
        <ele>169</ele>
        <time>2013-05-15T13:45:33Z</time>
      </trkpt>
      <trkpt lat="43.63071" lon="6.79605">
        <ele>169.5</ele>
        <time>2013-05-15T13:45:37Z</time>
      </trkpt>
      <trkpt lat="43.63063" lon="6.7961">
        <ele>169.199997</ele>
        <time>2013-05-15T13:45:45Z</time>
      </trkpt>
      <trkpt lat="43.63056" lon="6.79616">
        <ele>169.699997</ele>
        <time>2013-05-15T13:45:56Z</time>
      </trkpt>
      <trkpt lat="43.63049" lon="6.79621">
        <ele>169.699997</ele>
        <time>2013-05-15T13:46:03Z</time>
      </trkpt>
      <trkpt lat="43.63041" lon="6.79625">
        <ele>169.5</ele>
        <time>2013-05-15T13:46:08Z</time>
      </trkpt>
      <trkpt lat="43.63035" lon="6.7963">
        <ele>169.5</ele>
        <time>2013-05-15T13:46:11Z</time>
      </trkpt>
      <trkpt lat="43.63027" lon="6.79633">
        <ele>169.5</ele>
        <time>2013-05-15T13:46:19Z</time>
      </trkpt>
      <trkpt lat="43.63026" lon="6.79634">
        <ele>169.399994</ele>
        <time>2013-05-15T13:46:20Z</time>
      </trkpt>
      <trkpt lat="43.63015" lon="6.79648">
        <ele>169</ele>
        <time>2013-05-15T13:46:29Z</time>
      </trkpt>
      <trkpt lat="43.63007" lon="6.79654">
        <ele>169.100006</ele>
        <time>2013-05-15T13:46:36Z</time>
      </trkpt>
      <trkpt lat="43.62999" lon="6.79656">
        <ele>169.899994</ele>
        <time>2013-05-15T13:46:41Z</time>
      </trkpt>
      <trkpt lat="43.62992" lon="6.79663">
        <ele>169.800003</ele>
        <time>2013-05-15T13:46:45Z</time>
      </trkpt>
      <trkpt lat="43.62983" lon="6.79664">
        <ele>168.399994</ele>
        <time>2013-05-15T13:46:59Z</time>
      </trkpt>
      <trkpt lat="43.62975" lon="6.79666">
        <ele>169.300003</ele>
        <time>2013-05-15T13:47:16Z</time>
      </trkpt>
      <trkpt lat="43.62969" lon="6.79675">
        <ele>169</ele>
        <time>2013-05-15T13:47:21Z</time>
      </trkpt>
      <trkpt lat="43.62968" lon="6.79676">
        <ele>168.899994</ele>
        <time>2013-05-15T13:47:22Z</time>
      </trkpt>
      <trkpt lat="43.62958" lon="6.79692">
        <ele>169.5</ele>
        <time>2013-05-15T13:47:39Z</time>
      </trkpt>
      <trkpt lat="43.62951" lon="6.79696">
        <ele>169.699997</ele>
        <time>2013-05-15T13:47:45Z</time>
      </trkpt>
      <trkpt lat="43.62944" lon="6.79703">
        <ele>169.5</ele>
        <time>2013-05-15T13:47:49Z</time>
      </trkpt>
      <trkpt lat="43.62938" lon="6.7971">
        <ele>169.300003</ele>
        <time>2013-05-15T13:47:52Z</time>
      </trkpt>
      <trkpt lat="43.62933" lon="6.79718">
        <ele>169.600006</ele>
        <time>2013-05-15T13:47:56Z</time>
      </trkpt>
      <trkpt lat="43.62929" lon="6.79728">
        <ele>169.5</ele>
        <time>2013-05-15T13:48:01Z</time>
      </trkpt>
      <trkpt lat="43.62921" lon="6.79734">
        <ele>169.800003</ele>
        <time>2013-05-15T13:48:10Z</time>
      </trkpt>
      <trkpt lat="43.62913" lon="6.79737">
        <ele>169.699997</ele>
        <time>2013-05-15T13:48:17Z</time>
      </trkpt>
      <trkpt lat="43.62908" lon="6.79744">
        <ele>169.800003</ele>
        <time>2013-05-15T13:48:22Z</time>
      </trkpt>
      <trkpt lat="43.62906" lon="6.79746">
        <ele>170.199997</ele>
        <time>2013-05-15T13:48:23Z</time>
      </trkpt>
      <trkpt lat="43.62893" lon="6.79752">
        <ele>169.600006</ele>
        <time>2013-05-15T13:48:31Z</time>
      </trkpt>
      <trkpt lat="43.62885" lon="6.79757">
        <ele>170.399994</ele>
        <time>2013-05-15T13:48:35Z</time>
      </trkpt>
      <trkpt lat="43.62878" lon="6.79761">
        <ele>170.100006</ele>
        <time>2013-05-15T13:48:39Z</time>
      </trkpt>
      <trkpt lat="43.62872" lon="6.79765">
        <ele>169.800003</ele>
        <time>2013-05-15T13:48:43Z</time>
      </trkpt>
      <trkpt lat="43.62865" lon="6.7977">
        <ele>169.899994</ele>
        <time>2013-05-15T13:48:47Z</time>
      </trkpt>
      <trkpt lat="43.62856" lon="6.79773">
        <ele>169.899994</ele>
        <time>2013-05-15T13:48:55Z</time>
      </trkpt>
      <trkpt lat="43.6285" lon="6.79778">
        <ele>169.800003</ele>
        <time>2013-05-15T13:49:00Z</time>
      </trkpt>
      <trkpt lat="43.62842" lon="6.79779">
        <ele>169.5</ele>
        <time>2013-05-15T13:49:05Z</time>
      </trkpt>
      <trkpt lat="43.62835" lon="6.79783">
        <ele>168.699997</ele>
        <time>2013-05-15T13:49:09Z</time>
      </trkpt>
      <trkpt lat="43.62828" lon="6.79789">
        <ele>168.899994</ele>
        <time>2013-05-15T13:49:12Z</time>
      </trkpt>
      <trkpt lat="43.62822" lon="6.79794">
        <ele>169.100006</ele>
        <time>2013-05-15T13:49:15Z</time>
      </trkpt>
      <trkpt lat="43.62814" lon="6.79797">
        <ele>168.800003</ele>
        <time>2013-05-15T13:49:23Z</time>
      </trkpt>
      <trkpt lat="43.62813" lon="6.79798">
        <ele>168.800003</ele>
        <time>2013-05-15T13:49:24Z</time>
      </trkpt>
      <trkpt lat="43.62797" lon="6.79805">
        <ele>169.100006</ele>
        <time>2013-05-15T13:49:37Z</time>
      </trkpt>
      <trkpt lat="43.6279" lon="6.79812">
        <ele>168.199997</ele>
        <time>2013-05-15T13:49:45Z</time>
      </trkpt>
      <trkpt lat="43.62789" lon="6.79824">
        <ele>168.199997</ele>
        <time>2013-05-15T13:50:10Z</time>
      </trkpt>
      <trkpt lat="43.62786" lon="6.79835">
        <ele>168.300003</ele>
        <time>2013-05-15T13:50:16Z</time>
      </trkpt>
      <trkpt lat="43.62784" lon="6.79845">
        <ele>168.699997</ele>
        <time>2013-05-15T13:50:21Z</time>
      </trkpt>
      <trkpt lat="43.62781" lon="6.79855">
        <ele>168.5</ele>
        <time>2013-05-15T13:50:28Z</time>
      </trkpt>
      <trkpt lat="43.6278" lon="6.79857">
        <ele>168.199997</ele>
        <time>2013-05-15T13:50:29Z</time>
      </trkpt>
      <trkpt lat="43.62767" lon="6.79863">
        <ele>168.300003</ele>
        <time>2013-05-15T13:50:39Z</time>
      </trkpt>
      <trkpt lat="43.6276" lon="6.79868">
        <ele>168.199997</ele>
        <time>2013-05-15T13:50:43Z</time>
      </trkpt>
      <trkpt lat="43.62754" lon="6.79874">
        <ele>167.800003</ele>
        <time>2013-05-15T13:50:46Z</time>
      </trkpt>
      <trkpt lat="43.62746" lon="6.79878">
        <ele>167.300003</ele>
        <time>2013-05-15T13:50:50Z</time>
      </trkpt>
      <trkpt lat="43.62739" lon="6.79883">
        <ele>167.300003</ele>
        <time>2013-05-15T13:50:55Z</time>
      </trkpt>
      <trkpt lat="43.62733" lon="6.79888">
        <ele>167.5</ele>
        <time>2013-05-15T13:50:58Z</time>
      </trkpt>
      <trkpt lat="43.62726" lon="6.79881">
        <ele>168.5</ele>
        <time>2013-05-15T13:51:10Z</time>
      </trkpt>
      <trkpt lat="43.62717" lon="6.79876">
        <ele>167</ele>
        <time>2013-05-15T13:51:20Z</time>
      </trkpt>
      <trkpt lat="43.62708" lon="6.79877">
        <ele>168.5</ele>
        <time>2013-05-15T13:51:47Z</time>
      </trkpt>
      <trkpt lat="43.62707" lon="6.79876">
        <ele>168.300003</ele>
        <time>2013-05-15T13:51:48Z</time>
      </trkpt>
      <trkpt lat="43.62705" lon="6.79889">
        <ele>168.399994</ele>
        <time>2013-05-15T13:54:15Z</time>
      </trkpt>
      <trkpt lat="43.62699" lon="6.79909">
        <ele>169</ele>
        <time>2013-05-15T13:54:29Z</time>
      </trkpt>
      <trkpt lat="43.62696" lon="6.79921">
        <ele>169.5</ele>
        <time>2013-05-15T13:54:47Z</time>
      </trkpt>
      <trkpt lat="43.62692" lon="6.79931">
        <ele>169.199997</ele>
        <time>2013-05-15T13:54:57Z</time>
      </trkpt>
      <trkpt lat="43.62687" lon="6.79941">
        <ele>169.199997</ele>
        <time>2013-05-15T13:55:03Z</time>
      </trkpt>
      <trkpt lat="43.6268" lon="6.79949">
        <ele>168.300003</ele>
        <time>2013-05-15T13:55:11Z</time>
      </trkpt>
      <trkpt lat="43.62676" lon="6.79959">
        <ele>168</ele>
        <time>2013-05-15T13:55:19Z</time>
      </trkpt>
      <trkpt lat="43.62676" lon="6.79961">
        <ele>167.899994</ele>
        <time>2013-05-15T13:55:20Z</time>
      </trkpt>
      <trkpt lat="43.62664" lon="6.79976">
        <ele>167.300003</ele>
        <time>2013-05-15T13:55:59Z</time>
      </trkpt>
      <trkpt lat="43.62659" lon="6.79986">
        <ele>168.699997</ele>
        <time>2013-05-15T13:56:14Z</time>
      </trkpt>
      <trkpt lat="43.62653" lon="6.79992">
        <ele>167.899994</ele>
        <time>2013-05-15T13:56:22Z</time>
      </trkpt>
      <trkpt lat="43.62651" lon="6.79993">
        <ele>167.899994</ele>
        <time>2013-05-15T13:56:23Z</time>
      </trkpt>
      <trkpt lat="43.62645" lon="6.80011">
        <ele>168.800003</ele>
        <time>2013-05-15T13:56:35Z</time>
      </trkpt>
      <trkpt lat="43.62641" lon="6.8002">
        <ele>168.199997</ele>
        <time>2013-05-15T13:56:40Z</time>
      </trkpt>
      <trkpt lat="43.62635" lon="6.80029">
        <ele>166.800003</ele>
        <time>2013-05-15T13:56:46Z</time>
      </trkpt>
      <trkpt lat="43.62631" lon="6.80043">
        <ele>167</ele>
        <time>2013-05-15T13:56:56Z</time>
      </trkpt>
      <trkpt lat="43.62627" lon="6.80053">
        <ele>167.899994</ele>
        <time>2013-05-15T13:57:06Z</time>
      </trkpt>
      <trkpt lat="43.62621" lon="6.80061">
        <ele>168.600006</ele>
        <time>2013-05-15T13:57:17Z</time>
      </trkpt>
      <trkpt lat="43.62613" lon="6.80071">
        <ele>168</ele>
        <time>2013-05-15T13:57:38Z</time>
      </trkpt>
      <trkpt lat="43.62613" lon="6.80072">
        <ele>168</ele>
        <time>2013-05-15T13:57:40Z</time>
      </trkpt>
      <trkpt lat="43.62614" lon="6.80094">
        <ele>168.300003</ele>
        <time>2013-05-15T13:58:07Z</time>
      </trkpt>
      <trkpt lat="43.62616" lon="6.80106">
        <ele>168.600006</ele>
        <time>2013-05-15T13:58:17Z</time>
      </trkpt>
      <trkpt lat="43.62614" lon="6.80119">
        <ele>169.699997</ele>
        <time>2013-05-15T13:58:24Z</time>
      </trkpt>
      <trkpt lat="43.62614" lon="6.80131">
        <ele>169</ele>
        <time>2013-05-15T13:58:34Z</time>
      </trkpt>
      <trkpt lat="43.62614" lon="6.80143">
        <ele>169.5</ele>
        <time>2013-05-15T13:58:44Z</time>
      </trkpt>
      <trkpt lat="43.62614" lon="6.80144">
        <ele>169.600006</ele>
        <time>2013-05-15T13:58:45Z</time>
      </trkpt>
      <trkpt lat="43.62611" lon="6.80166">
        <ele>168.800003</ele>
        <time>2013-05-15T13:59:01Z</time>
      </trkpt>
      <trkpt lat="43.62606" lon="6.80177">
        <ele>168.399994</ele>
        <time>2013-05-15T13:59:07Z</time>
      </trkpt>
      <trkpt lat="43.62605" lon="6.80188">
        <ele>168.600006</ele>
        <time>2013-05-15T13:59:13Z</time>
      </trkpt>
      <trkpt lat="43.62597" lon="6.80192">
        <ele>167.399994</ele>
        <time>2013-05-15T13:59:38Z</time>
      </trkpt>
      <trkpt lat="43.62591" lon="6.802">
        <ele>166.600006</ele>
        <time>2013-05-15T14:00:42Z</time>
      </trkpt>
      <trkpt lat="43.6259" lon="6.802">
        <ele>166.5</ele>
        <time>2013-05-15T14:00:43Z</time>
      </trkpt>
      <trkpt lat="43.62587" lon="6.80212">
        <ele>166.399994</ele>
        <time>2013-05-15T14:01:46Z</time>
      </trkpt>
      <trkpt lat="43.62582" lon="6.80231">
        <ele>168.300003</ele>
        <time>2013-05-15T14:02:08Z</time>
      </trkpt>
      <trkpt lat="43.62581" lon="6.80243">
        <ele>168.399994</ele>
        <time>2013-05-15T14:02:14Z</time>
      </trkpt>
      <trkpt lat="43.62583" lon="6.80255">
        <ele>168.100006</ele>
        <time>2013-05-15T14:02:21Z</time>
      </trkpt>
      <trkpt lat="43.62585" lon="6.80267">
        <ele>169.100006</ele>
        <time>2013-05-15T14:02:32Z</time>
      </trkpt>
      <trkpt lat="43.62588" lon="6.80278">
        <ele>169.100006</ele>
        <time>2013-05-15T14:02:40Z</time>
      </trkpt>
      <trkpt lat="43.6259" lon="6.80288">
        <ele>168.399994</ele>
        <time>2013-05-15T14:02:46Z</time>
      </trkpt>
      <trkpt lat="43.6259" lon="6.8029">
        <ele>168.399994</ele>
        <time>2013-05-15T14:02:47Z</time>
      </trkpt>
      <trkpt lat="43.62592" lon="6.8031">
        <ele>168.800003</ele>
        <time>2013-05-15T14:02:58Z</time>
      </trkpt>
      <trkpt lat="43.62589" lon="6.8032">
        <ele>168.899994</ele>
        <time>2013-05-15T14:03:05Z</time>
      </trkpt>
      <trkpt lat="43.62593" lon="6.80331">
        <ele>168.800003</ele>
        <time>2013-05-15T14:03:13Z</time>
      </trkpt>
      <trkpt lat="43.62594" lon="6.80342">
        <ele>168.699997</ele>
        <time>2013-05-15T14:03:19Z</time>
      </trkpt>
      <trkpt lat="43.62597" lon="6.80353">
        <ele>169.300003</ele>
        <time>2013-05-15T14:03:27Z</time>
      </trkpt>
      <trkpt lat="43.626" lon="6.80364">
        <ele>169.300003</ele>
        <time>2013-05-15T14:03:36Z</time>
      </trkpt>
      <trkpt lat="43.62603" lon="6.80376">
        <ele>168.600006</ele>
        <time>2013-05-15T14:03:43Z</time>
      </trkpt>
      <trkpt lat="43.62604" lon="6.80388">
        <ele>169.100006</ele>
        <time>2013-05-15T14:03:53Z</time>
      </trkpt>
      <trkpt lat="43.62604" lon="6.8039">
        <ele>169.399994</ele>
        <time>2013-05-15T14:03:54Z</time>
      </trkpt>
      <trkpt lat="43.62606" lon="6.80412">
        <ele>169.100006</ele>
        <time>2013-05-15T14:04:04Z</time>
      </trkpt>
      <trkpt lat="43.62612" lon="6.80421">
        <ele>169.800003</ele>
        <time>2013-05-15T14:04:12Z</time>
      </trkpt>
      <trkpt lat="43.62618" lon="6.80429">
        <ele>169.300003</ele>
        <time>2013-05-15T14:04:19Z</time>
      </trkpt>
      <trkpt lat="43.62622" lon="6.80439">
        <ele>168.399994</ele>
        <time>2013-05-15T14:04:27Z</time>
      </trkpt>
      <trkpt lat="43.62625" lon="6.8045">
        <ele>168.100006</ele>
        <time>2013-05-15T14:04:33Z</time>
      </trkpt>
      <trkpt lat="43.62626" lon="6.80462">
        <ele>168</ele>
        <time>2013-05-15T14:04:41Z</time>
      </trkpt>
      <trkpt lat="43.62626" lon="6.80473">
        <ele>168</ele>
        <time>2013-05-15T14:04:48Z</time>
      </trkpt>
      <trkpt lat="43.62623" lon="6.80484">
        <ele>168.399994</ele>
        <time>2013-05-15T14:04:55Z</time>
      </trkpt>
      <trkpt lat="43.62622" lon="6.80486">
        <ele>168.5</ele>
        <time>2013-05-15T14:04:56Z</time>
      </trkpt>
      <trkpt lat="43.62617" lon="6.80506">
        <ele>168.899994</ele>
        <time>2013-05-15T14:05:09Z</time>
      </trkpt>
      <trkpt lat="43.62615" lon="6.80518">
        <ele>168.800003</ele>
        <time>2013-05-15T14:05:16Z</time>
      </trkpt>
      <trkpt lat="43.62615" lon="6.80529">
        <ele>168.899994</ele>
        <time>2013-05-15T14:05:22Z</time>
      </trkpt>
      <trkpt lat="43.62613" lon="6.8054">
        <ele>168.899994</ele>
        <time>2013-05-15T14:05:28Z</time>
      </trkpt>
      <trkpt lat="43.62613" lon="6.8055">
        <ele>169.300003</ele>
        <time>2013-05-15T14:05:33Z</time>
      </trkpt>
      <trkpt lat="43.62615" lon="6.8056">
        <ele>169.699997</ele>
        <time>2013-05-15T14:05:39Z</time>
      </trkpt>
      <trkpt lat="43.62614" lon="6.80572">
        <ele>169</ele>
        <time>2013-05-15T14:05:45Z</time>
      </trkpt>
      <trkpt lat="43.62614" lon="6.80583">
        <ele>169.699997</ele>
        <time>2013-05-15T14:05:55Z</time>
      </trkpt>
      <trkpt lat="43.62615" lon="6.80594">
        <ele>169.699997</ele>
        <time>2013-05-15T14:06:00Z</time>
      </trkpt>
      <trkpt lat="43.62615" lon="6.80596">
        <ele>169.699997</ele>
        <time>2013-05-15T14:06:01Z</time>
      </trkpt>
      <trkpt lat="43.62618" lon="6.80616">
        <ele>168.899994</ele>
        <time>2013-05-15T14:06:12Z</time>
      </trkpt>
      <trkpt lat="43.62622" lon="6.80625">
        <ele>169.600006</ele>
        <time>2013-05-15T14:06:21Z</time>
      </trkpt>
      <trkpt lat="43.62627" lon="6.80634">
        <ele>170.300003</ele>
        <time>2013-05-15T14:06:28Z</time>
      </trkpt>
      <trkpt lat="43.62634" lon="6.8064">
        <ele>170.300003</ele>
        <time>2013-05-15T14:06:33Z</time>
      </trkpt>
      <trkpt lat="43.62638" lon="6.8065">
        <ele>169.699997</ele>
        <time>2013-05-15T14:06:39Z</time>
      </trkpt>
      <trkpt lat="43.62642" lon="6.8066">
        <ele>169.600006</ele>
        <time>2013-05-15T14:06:47Z</time>
      </trkpt>
      <trkpt lat="43.62646" lon="6.80669">
        <ele>169.399994</ele>
        <time>2013-05-15T14:06:54Z</time>
      </trkpt>
      <trkpt lat="43.62649" lon="6.80681">
        <ele>169.199997</ele>
        <time>2013-05-15T14:07:01Z</time>
      </trkpt>
      <trkpt lat="43.6265" lon="6.80683">
        <ele>169.100006</ele>
        <time>2013-05-15T14:07:02Z</time>
      </trkpt>
      <trkpt lat="43.62651" lon="6.80704">
        <ele>170</ele>
        <time>2013-05-15T14:07:20Z</time>
      </trkpt>
      <trkpt lat="43.62654" lon="6.80715">
        <ele>169.199997</ele>
        <time>2013-05-15T14:07:25Z</time>
      </trkpt>
      <trkpt lat="43.6266" lon="6.80724">
        <ele>169.699997</ele>
        <time>2013-05-15T14:07:35Z</time>
      </trkpt>
      <trkpt lat="43.62666" lon="6.80733">
        <ele>170.300003</ele>
        <time>2013-05-15T14:07:54Z</time>
      </trkpt>
      <trkpt lat="43.6267" lon="6.80743">
        <ele>170.300003</ele>
        <time>2013-05-15T14:08:02Z</time>
      </trkpt>
      <trkpt lat="43.6267" lon="6.80745">
        <ele>170.300003</ele>
        <time>2013-05-15T14:08:03Z</time>
      </trkpt>
      <trkpt lat="43.62678" lon="6.80763">
        <ele>170.300003</ele>
        <time>2013-05-15T14:08:18Z</time>
      </trkpt>
      <trkpt lat="43.62681" lon="6.80774">
        <ele>169.800003</ele>
        <time>2013-05-15T14:08:33Z</time>
      </trkpt>
      <trkpt lat="43.62686" lon="6.80783">
        <ele>169.899994</ele>
        <time>2013-05-15T14:08:41Z</time>
      </trkpt>
      <trkpt lat="43.62691" lon="6.80792">
        <ele>169.300003</ele>
        <time>2013-05-15T14:08:48Z</time>
      </trkpt>
      <trkpt lat="43.62697" lon="6.80802">
        <ele>169.800003</ele>
        <time>2013-05-15T14:08:56Z</time>
      </trkpt>
      <trkpt lat="43.62702" lon="6.80811">
        <ele>170.399994</ele>
        <time>2013-05-15T14:09:03Z</time>
      </trkpt>
      <trkpt lat="43.62704" lon="6.80812">
        <ele>170.399994</ele>
        <time>2013-05-15T14:09:04Z</time>
      </trkpt>
      <trkpt lat="43.62716" lon="6.80826">
        <ele>171.100006</ele>
        <time>2013-05-15T14:09:17Z</time>
      </trkpt>
      <trkpt lat="43.62722" lon="6.80834">
        <ele>170.899994</ele>
        <time>2013-05-15T14:09:27Z</time>
      </trkpt>
      <trkpt lat="43.62729" lon="6.80841">
        <ele>170.100006</ele>
        <time>2013-05-15T14:11:26Z</time>
      </trkpt>
      <trkpt lat="43.6273" lon="6.80842">
        <ele>170.100006</ele>
        <time>2013-05-15T14:11:27Z</time>
      </trkpt>
      <trkpt lat="43.62743" lon="6.80854">
        <ele>170.899994</ele>
        <time>2013-05-15T14:11:46Z</time>
      </trkpt>
      <trkpt lat="43.6275" lon="6.80861">
        <ele>172.100006</ele>
        <time>2013-05-15T14:11:53Z</time>
      </trkpt>
      <trkpt lat="43.62758" lon="6.80865">
        <ele>174.399994</ele>
        <time>2013-05-15T14:12:01Z</time>
      </trkpt>
      <trkpt lat="43.62764" lon="6.80873">
        <ele>175.600006</ele>
        <time>2013-05-15T14:12:08Z</time>
      </trkpt>
      <trkpt lat="43.6277" lon="6.80882">
        <ele>176.899994</ele>
        <time>2013-05-15T14:12:22Z</time>
      </trkpt>
      <trkpt lat="43.62766" lon="6.80894">
        <ele>176.100006</ele>
        <time>2013-05-15T14:12:30Z</time>
      </trkpt>
      <trkpt lat="43.62766" lon="6.80895">
        <ele>176.199997</ele>
        <time>2013-05-15T14:12:31Z</time>
      </trkpt>
      <trkpt lat="43.62765" lon="6.80916">
        <ele>177.899994</ele>
        <time>2013-05-15T14:12:49Z</time>
      </trkpt>
      <trkpt lat="43.62768" lon="6.80927">
        <ele>178.199997</ele>
        <time>2013-05-15T14:12:55Z</time>
      </trkpt>
      <trkpt lat="43.62769" lon="6.8094">
        <ele>179.100006</ele>
        <time>2013-05-15T14:13:01Z</time>
      </trkpt>
      <trkpt lat="43.62767" lon="6.8095">
        <ele>180.300003</ele>
        <time>2013-05-15T14:13:08Z</time>
      </trkpt>
      <trkpt lat="43.62768" lon="6.80961">
        <ele>180.600006</ele>
        <time>2013-05-15T14:13:16Z</time>
      </trkpt>
      <trkpt lat="43.62772" lon="6.80972">
        <ele>180.899994</ele>
        <time>2013-05-15T14:13:27Z</time>
      </trkpt>
      <trkpt lat="43.62777" lon="6.80983">
        <ele>181</ele>
        <time>2013-05-15T14:13:34Z</time>
      </trkpt>
      <trkpt lat="43.62777" lon="6.80984">
        <ele>181.300003</ele>
        <time>2013-05-15T14:13:35Z</time>
      </trkpt>
      <trkpt lat="43.62786" lon="6.81">
        <ele>183</ele>
        <time>2013-05-15T14:13:46Z</time>
      </trkpt>
      <trkpt lat="43.62788" lon="6.81012">
        <ele>183.699997</ele>
        <time>2013-05-15T14:13:56Z</time>
      </trkpt>
      <trkpt lat="43.62787" lon="6.81024">
        <ele>183.699997</ele>
        <time>2013-05-15T14:14:01Z</time>
      </trkpt>
      <trkpt lat="43.62792" lon="6.81032">
        <ele>183.600006</ele>
        <time>2013-05-15T14:14:08Z</time>
      </trkpt>
      <trkpt lat="43.62789" lon="6.81043">
        <ele>184.600006</ele>
        <time>2013-05-15T14:14:16Z</time>
      </trkpt>
      <trkpt lat="43.62789" lon="6.81055">
        <ele>185.100006</ele>
        <time>2013-05-15T14:14:22Z</time>
      </trkpt>
      <trkpt lat="43.6279" lon="6.81067">
        <ele>187</ele>
        <time>2013-05-15T14:14:32Z</time>
      </trkpt>
      <trkpt lat="43.62793" lon="6.81077">
        <ele>188</ele>
        <time>2013-05-15T14:14:39Z</time>
      </trkpt>
      <trkpt lat="43.62793" lon="6.81079">
        <ele>188.5</ele>
        <time>2013-05-15T14:14:40Z</time>
      </trkpt>
      <trkpt lat="43.628" lon="6.81098">
        <ele>189.5</ele>
        <time>2013-05-15T14:14:53Z</time>
      </trkpt>
      <trkpt lat="43.62806" lon="6.81107">
        <ele>191.5</ele>
        <time>2013-05-15T14:15:00Z</time>
      </trkpt>
      <trkpt lat="43.62811" lon="6.81116">
        <ele>190.600006</ele>
        <time>2013-05-15T14:15:09Z</time>
      </trkpt>
      <trkpt lat="43.62814" lon="6.81126">
        <ele>190.100006</ele>
        <time>2013-05-15T14:15:18Z</time>
      </trkpt>
      <trkpt lat="43.62818" lon="6.81137">
        <ele>190</ele>
        <time>2013-05-15T14:15:26Z</time>
      </trkpt>
      <trkpt lat="43.6282" lon="6.81149">
        <ele>189.699997</ele>
        <time>2013-05-15T14:15:32Z</time>
      </trkpt>
      <trkpt lat="43.62822" lon="6.81159">
        <ele>190.300003</ele>
        <time>2013-05-15T14:15:40Z</time>
      </trkpt>
      <trkpt lat="43.62823" lon="6.81161">
        <ele>190.300003</ele>
        <time>2013-05-15T14:15:41Z</time>
      </trkpt>
      <trkpt lat="43.62828" lon="6.81181">
        <ele>188.899994</ele>
        <time>2013-05-15T14:15:55Z</time>
      </trkpt>
      <trkpt lat="43.62828" lon="6.81192">
        <ele>187.199997</ele>
        <time>2013-05-15T14:16:00Z</time>
      </trkpt>
      <trkpt lat="43.62831" lon="6.81204">
        <ele>187.300003</ele>
        <time>2013-05-15T14:16:06Z</time>
      </trkpt>
      <trkpt lat="43.62835" lon="6.81214">
        <ele>186.5</ele>
        <time>2013-05-15T14:16:13Z</time>
      </trkpt>
      <trkpt lat="43.62838" lon="6.81225">
        <ele>185.399994</ele>
        <time>2013-05-15T14:16:21Z</time>
      </trkpt>
      <trkpt lat="43.62839" lon="6.81235">
        <ele>184.100006</ele>
        <time>2013-05-15T14:16:26Z</time>
      </trkpt>
      <trkpt lat="43.62842" lon="6.81246">
        <ele>183.199997</ele>
        <time>2013-05-15T14:16:33Z</time>
      </trkpt>
      <trkpt lat="43.62844" lon="6.81256">
        <ele>182.300003</ele>
        <time>2013-05-15T14:16:37Z</time>
      </trkpt>
      <trkpt lat="43.62847" lon="6.81266">
        <ele>181.800003</ele>
        <time>2013-05-15T14:16:45Z</time>
      </trkpt>
      <trkpt lat="43.62848" lon="6.81268">
        <ele>181.699997</ele>
        <time>2013-05-15T14:16:46Z</time>
      </trkpt>
      <trkpt lat="43.62856" lon="6.81284">
        <ele>180.600006</ele>
        <time>2013-05-15T14:16:59Z</time>
      </trkpt>
      <trkpt lat="43.6286" lon="6.81293">
        <ele>179.899994</ele>
        <time>2013-05-15T14:17:04Z</time>
      </trkpt>
      <trkpt lat="43.62866" lon="6.81302">
        <ele>178.100006</ele>
        <time>2013-05-15T14:17:11Z</time>
      </trkpt>
      <trkpt lat="43.62871" lon="6.81312">
        <ele>177.800003</ele>
        <time>2013-05-15T14:17:18Z</time>
      </trkpt>
      <trkpt lat="43.62875" lon="6.81323">
        <ele>175.600006</ele>
        <time>2013-05-15T14:17:27Z</time>
      </trkpt>
      <trkpt lat="43.62881" lon="6.8133">
        <ele>174.399994</ele>
        <time>2013-05-15T14:17:35Z</time>
      </trkpt>
      <trkpt lat="43.62885" lon="6.8134">
        <ele>173.699997</ele>
        <time>2013-05-15T14:17:42Z</time>
      </trkpt>
      <trkpt lat="43.62892" lon="6.81346">
        <ele>172.600006</ele>
        <time>2013-05-15T14:17:50Z</time>
      </trkpt>
      <trkpt lat="43.62893" lon="6.81346">
        <ele>173</ele>
        <time>2013-05-15T14:17:51Z</time>
      </trkpt>
      <trkpt lat="43.62904" lon="6.81362">
        <ele>170.899994</ele>
        <time>2013-05-15T14:18:08Z</time>
      </trkpt>
      <trkpt lat="43.62907" lon="6.81373">
        <ele>169</ele>
        <time>2013-05-15T14:18:21Z</time>
      </trkpt>
      <trkpt lat="43.6291" lon="6.81384">
        <ele>167.899994</ele>
        <time>2013-05-15T14:18:30Z</time>
      </trkpt>
      <trkpt lat="43.62914" lon="6.81394">
        <ele>166.300003</ele>
        <time>2013-05-15T14:18:40Z</time>
      </trkpt>
      <trkpt lat="43.62916" lon="6.81406">
        <ele>163.800003</ele>
        <time>2013-05-15T14:18:56Z</time>
      </trkpt>
      <trkpt lat="43.62916" lon="6.81407">
        <ele>164</ele>
        <time>2013-05-15T14:18:57Z</time>
      </trkpt>
      <trkpt lat="43.62909" lon="6.81427">
        <ele>160.100006</ele>
        <time>2013-05-15T14:19:24Z</time>
      </trkpt>
      <trkpt lat="43.62907" lon="6.81439">
        <ele>159.600006</ele>
        <time>2013-05-15T14:19:34Z</time>
      </trkpt>
      <trkpt lat="43.62904" lon="6.8145">
        <ele>158.800003</ele>
        <time>2013-05-15T14:19:43Z</time>
      </trkpt>
      <trkpt lat="43.62902" lon="6.81462">
        <ele>157.800003</ele>
        <time>2013-05-15T14:19:52Z</time>
      </trkpt>
      <trkpt lat="43.629" lon="6.81473">
        <ele>156.5</ele>
        <time>2013-05-15T14:19:58Z</time>
      </trkpt>
      <trkpt lat="43.62899" lon="6.81476">
        <ele>156.300003</ele>
        <time>2013-05-15T14:19:59Z</time>
      </trkpt>
      <trkpt lat="43.62897" lon="6.81495">
        <ele>154.699997</ele>
        <time>2013-05-15T14:20:11Z</time>
      </trkpt>
      <trkpt lat="43.62904" lon="6.81503">
        <ele>153.600006</ele>
        <time>2013-05-15T14:20:21Z</time>
      </trkpt>
      <trkpt lat="43.62907" lon="6.81514">
        <ele>151.300003</ele>
        <time>2013-05-15T14:20:32Z</time>
      </trkpt>
      <trkpt lat="43.62901" lon="6.81523">
        <ele>149.199997</ele>
        <time>2013-05-15T14:20:47Z</time>
      </trkpt>
      <trkpt lat="43.62897" lon="6.81534">
        <ele>147.699997</ele>
        <time>2013-05-15T14:21:04Z</time>
      </trkpt>
      <trkpt lat="43.62896" lon="6.81536">
        <ele>147.600006</ele>
        <time>2013-05-15T14:21:05Z</time>
      </trkpt>
      <trkpt lat="43.62884" lon="6.81545">
        <ele>145.800003</ele>
        <time>2013-05-15T14:21:28Z</time>
      </trkpt>
      <trkpt lat="43.62875" lon="6.81554">
        <ele>143</ele>
        <time>2013-05-15T14:21:36Z</time>
      </trkpt>
      <trkpt lat="43.62868" lon="6.81563">
        <ele>142</ele>
        <time>2013-05-15T14:21:44Z</time>
      </trkpt>
      <trkpt lat="43.62861" lon="6.81574">
        <ele>142</ele>
        <time>2013-05-15T14:21:52Z</time>
      </trkpt>
      <trkpt lat="43.62852" lon="6.8158">
        <ele>139</ele>
        <time>2013-05-15T14:22:04Z</time>
      </trkpt>
      <trkpt lat="43.6285" lon="6.81581">
        <ele>139.800003</ele>
        <time>2013-05-15T14:22:06Z</time>
      </trkpt>
      <trkpt lat="43.6283" lon="6.81597">
        <ele>136</ele>
        <time>2013-05-15T14:22:24Z</time>
      </trkpt>
      <trkpt lat="43.62818" lon="6.81609">
        <ele>134</ele>
        <time>2013-05-15T14:22:36Z</time>
      </trkpt>
      <trkpt lat="43.62808" lon="6.81616">
        <ele>132</ele>
        <time>2013-05-15T14:22:48Z</time>
      </trkpt>
      <trkpt lat="43.62797" lon="6.81614">
        <ele>133</ele>
        <time>2013-05-15T14:23:00Z</time>
      </trkpt>
      <trkpt lat="43.62786" lon="6.81617">
        <ele>134</ele>
        <time>2013-05-15T14:23:12Z</time>
      </trkpt>
      <trkpt lat="43.62786" lon="6.81616">
        <ele>135.399994</ele>
        <time>2013-05-15T14:23:15Z</time>
      </trkpt>
      <trkpt lat="43.62765" lon="6.81634">
        <ele>137</ele>
        <time>2013-05-15T14:24:05Z</time>
      </trkpt>
      <trkpt lat="43.62764" lon="6.8162">
        <ele>140</ele>
        <time>2013-05-15T14:24:21Z</time>
      </trkpt>
      <trkpt lat="43.62764" lon="6.81619">
        <ele>140.399994</ele>
        <time>2013-05-15T14:24:23Z</time>
      </trkpt>
      <trkpt lat="43.62745" lon="6.81628">
        <ele>146</ele>
        <time>2013-05-15T14:25:03Z</time>
      </trkpt>
      <trkpt lat="43.62737" lon="6.81635">
        <ele>147</ele>
        <time>2013-05-15T14:25:15Z</time>
      </trkpt>
      <trkpt lat="43.62728" lon="6.81642">
        <ele>149</ele>
        <time>2013-05-15T14:25:27Z</time>
      </trkpt>
      <trkpt lat="43.62727" lon="6.81644">
        <ele>150.199997</ele>
        <time>2013-05-15T14:25:29Z</time>
      </trkpt>
      <trkpt lat="43.62713" lon="6.81665">
        <ele>152</ele>
        <time>2013-05-15T14:25:55Z</time>
      </trkpt>
      <trkpt lat="43.62704" lon="6.81666">
        <ele>154</ele>
        <time>2013-05-15T14:26:11Z</time>
      </trkpt>
      <trkpt lat="43.62699" lon="6.8168">
        <ele>156</ele>
        <time>2013-05-15T14:26:27Z</time>
      </trkpt>
      <trkpt lat="43.6269" lon="6.81685">
        <ele>158</ele>
        <time>2013-05-15T14:26:43Z</time>
      </trkpt>
      <trkpt lat="43.6269" lon="6.81685">
        <ele>158.399994</ele>
        <time>2013-05-15T14:26:45Z</time>
      </trkpt>
      <trkpt lat="43.62671" lon="6.8168">
        <ele>161</ele>
        <time>2013-05-15T14:27:15Z</time>
      </trkpt>
      <trkpt lat="43.62664" lon="6.81671">
        <ele>163</ele>
        <time>2013-05-15T14:27:31Z</time>
      </trkpt>
      <trkpt lat="43.62652" lon="6.81676">
        <ele>164</ele>
        <time>2013-05-15T14:27:45Z</time>
      </trkpt>
      <trkpt lat="43.62651" lon="6.81678">
        <ele>164.899994</ele>
        <time>2013-05-15T14:27:47Z</time>
      </trkpt>
      <trkpt lat="43.62638" lon="6.81694">
        <ele>166</ele>
        <time>2013-05-15T14:28:33Z</time>
      </trkpt>
      <trkpt lat="43.62638" lon="6.81709">
        <ele>164</ele>
        <time>2013-05-15T14:29:12Z</time>
      </trkpt>
      <trkpt lat="43.62639" lon="6.8171">
        <ele>164.699997</ele>
        <time>2013-05-15T14:29:14Z</time>
      </trkpt>
      <trkpt lat="43.62661" lon="6.81706">
        <ele>157</ele>
        <time>2013-05-15T14:29:53Z</time>
      </trkpt>
      <trkpt lat="43.62663" lon="6.81718">
        <ele>156</ele>
        <time>2013-05-15T14:30:09Z</time>
      </trkpt>
      <trkpt lat="43.6267" lon="6.8171">
        <ele>152</ele>
        <time>2013-05-15T14:30:29Z</time>
      </trkpt>
      <trkpt lat="43.62671" lon="6.81709">
        <ele>152.300003</ele>
        <time>2013-05-15T14:30:31Z</time>
      </trkpt>
      <trkpt lat="43.62679" lon="6.81732">
        <ele>147</ele>
        <time>2013-05-15T14:31:01Z</time>
      </trkpt>
      <trkpt lat="43.62687" lon="6.81739">
        <ele>145</ele>
        <time>2013-05-15T14:31:19Z</time>
      </trkpt>
      <trkpt lat="43.62699" lon="6.81735">
        <ele>143</ele>
        <time>2013-05-15T14:31:37Z</time>
      </trkpt>
      <trkpt lat="43.62703" lon="6.81734">
        <ele>142.300003</ele>
        <time>2013-05-15T14:31:41Z</time>
      </trkpt>
      <trkpt lat="43.62703" lon="6.81759">
        <ele>134</ele>
        <time>2013-05-15T14:32:28Z</time>
      </trkpt>
      <trkpt lat="43.62695" lon="6.81772">
        <ele>132</ele>
        <time>2013-05-15T14:32:46Z</time>
      </trkpt>
      <trkpt lat="43.62694" lon="6.81773">
        <ele>131.5</ele>
        <time>2013-05-15T14:32:50Z</time>
      </trkpt>
      <trkpt lat="43.62693" lon="6.81786">
        <ele>127</ele>
        <time>2013-05-15T14:33:24Z</time>
      </trkpt>
      <trkpt lat="43.62695" lon="6.81804">
        <ele>125</ele>
        <time>2013-05-15T14:33:36Z</time>
      </trkpt>
      <trkpt lat="43.62707" lon="6.81811">
        <ele>124</ele>
        <time>2013-05-15T14:33:53Z</time>
      </trkpt>
      <trkpt lat="43.62712" lon="6.81807">
        <ele>124.699997</ele>
        <time>2013-05-15T14:33:57Z</time>
      </trkpt>
      <trkpt lat="43.62726" lon="6.81792">
        <ele>124</ele>
        <time>2013-05-15T14:34:07Z</time>
      </trkpt>
      <trkpt lat="43.62732" lon="6.81782">
        <ele>124</ele>
        <time>2013-05-15T14:34:15Z</time>
      </trkpt>
      <trkpt lat="43.62741" lon="6.81768">
        <ele>123</ele>
        <time>2013-05-15T14:34:25Z</time>
      </trkpt>
      <trkpt lat="43.6275" lon="6.8176">
        <ele>123</ele>
        <time>2013-05-15T14:34:35Z</time>
      </trkpt>
      <trkpt lat="43.62758" lon="6.81753">
        <ele>123</ele>
        <time>2013-05-15T14:34:43Z</time>
      </trkpt>
      <trkpt lat="43.62764" lon="6.81743">
        <ele>122</ele>
        <time>2013-05-15T14:34:51Z</time>
      </trkpt>
      <trkpt lat="43.62773" lon="6.81738">
        <ele>122</ele>
        <time>2013-05-15T14:35:03Z</time>
      </trkpt>
      <trkpt lat="43.62774" lon="6.81736">
        <ele>122.400002</ele>
        <time>2013-05-15T14:35:05Z</time>
      </trkpt>
      <trkpt lat="43.62792" lon="6.81745">
        <ele>121</ele>
        <time>2013-05-15T14:35:31Z</time>
      </trkpt>
      <trkpt lat="43.62796" lon="6.81754">
        <ele>121.800003</ele>
        <time>2013-05-15T14:35:38Z</time>
      </trkpt>
      <trkpt lat="43.62797" lon="6.81764">
        <ele>121.5</ele>
        <time>2013-05-15T14:35:54Z</time>
      </trkpt>
      <trkpt lat="43.62804" lon="6.8177">
        <ele>121.699997</ele>
        <time>2013-05-15T14:36:07Z</time>
      </trkpt>
      <trkpt lat="43.62805" lon="6.8177">
        <ele>121.5</ele>
        <time>2013-05-15T14:36:08Z</time>
      </trkpt>
      <trkpt lat="43.62815" lon="6.81802">
        <ele>121</ele>
        <time>2013-05-15T14:36:37Z</time>
      </trkpt>
      <trkpt lat="43.62825" lon="6.81791">
        <ele>121</ele>
        <time>2013-05-15T14:36:49Z</time>
      </trkpt>
      <trkpt lat="43.62819" lon="6.81779">
        <ele>120</ele>
        <time>2013-05-15T14:37:19Z</time>
      </trkpt>
      <trkpt lat="43.6282" lon="6.81778">
        <ele>120.599998</ele>
        <time>2013-05-15T14:37:23Z</time>
      </trkpt>
      <trkpt lat="43.62825" lon="6.81771">
        <ele>120</ele>
        <time>2013-05-15T14:38:23Z</time>
      </trkpt>
      <trkpt lat="43.62823" lon="6.81769">
        <ele>121.300003</ele>
        <time>2013-05-15T14:38:27Z</time>
      </trkpt>
    </trkseg>
  </trk>
</gpx>